[[{"header":{"parameterUnit":"m.s-1","parameterCategory":1,"la1":31.0,"la2":29.5877,"lo1":-88.7671,"lo2":-86.6584,"dy":0.0162,"dx":0.0185,"nx":115,"ny":88,"refTime":"2023-09-23T00:00:00:Z","depth":0,"parameterNumber":2,"parameterNumberName":"U-component_of_WINDS"},"data":[0.0,0.0,0.0,0.0,0.0,0.0,0.0,0.0,0.0,0.0,0.0,0.0,0.0,0.0,0.0,0.0,0.0,0.0,0.0,0.0,0.0,0.0,0.0,0.0,0.0,0.0,0.0,0.0,0.0,0.0,0.0,0.0,0.0,0.0,0.0,0.0,0.0,0.0,0.0,0.0,0.0,0.0,0.0,0.0,0.0,0.0,0.0,0.0,0.0,0.0,0.0,0.0,0.0,0.0,0.0,0.0,0.0,0.0,0.0,0.0,0.0,0.0,0.0,0.0,0.0,0.0,0.0,0.0,0.0,0.0,0.0,0.0,0.0,0.0,0.0,0.0,0.0,0.0,0.0,0.0,0.0,0.0,0.0,0.0,0.0,0.0,0.0,0.0,0.0,0.0,0.0,0.0,0.0,0.0,0.0,0.0,0.0,0.0,0.0,0.0,0.0,0.0,0.0,0.0,0.0,0.0,0.0,0.0,0.0,0.0,0.0,0.0,0.0,0.0,0.0,0.0,0.0,0.0,0.0,0.0,0.0,0.0,0.0,0.0,0.0,0.0,0.0,0.0,0.0,0.0,0.0,0.0,0.0,0.0,0.0,0.0,0.0,0.0,0.0,0.0,0.0,0.0,0.0,0.0,0.0,0.0,0.0,0.0,0.0,0.0,0.0,0.0,0.0,0.0,0.0,0.0,0.0,0.0,0.0,0.0,0.0,0.0,0.0,0.0,0.0,0.0,0.0,0.0,0.0,0.0,0.0,0.0,0.0,0.0,0.0,0.0,0.0,0.0,0.0,0.0,0.0,0.0,0.0,0.0,0.0,0.0,0.0,0.0,0.0,0.0,0.0,0.0,0.0,0.0,0.0,0.0,0.0,0.0,0.0,0.0,0.0,0.0,0.0,0.0,0.0,0.0,0.0,0.0,0.0,0.0,0.0,0.0,0.0,0.0,0.0,0.0,0.0,0.0,0.0,0.0,0.0,0.0,0.0,0.0,0.0,0.0,0.0,0.0,0.0,0.0,0.0,0.0,0.0,0.0,0.0,0.0,0.0,0.0,0.0,0.0,0.0,0.0,0.0,0.0,0.0,0.0,0.0,0.0,0.0,0.0,0.0,0.0,0.0,0.0,0.0,0.0,0.0,0.0,0.0,0.0,0.0,0.0,0.0,0.0,0.0,0.0,0.0,0.0,0.0,0.0,0.0,0.0,0.0,0.0,0.0,0.0,0.0,0.0,0.0,0.0,0.0,0.0,0.0,0.0,0.0,0.0,0.0,0.0,0.0,0.0,0.0,0.0,0.0,0.0,0.0,0.0,0.0,0.0,0.0,0.0,0.0,0.0,0.0,0.0,0.0,0.0,0.0,0.0,0.0,0.0,0.0,0.0,0.0,0.0,0.0,0.0,0.0,0.0,0.0,0.0,0.0,0.0,0.0,0.0,0.0,0.0,0.0,0.0,0.0,0.0,0.0,0.0,0.0,0.0,0.0,0.0,0.0,0.0,0.0,0.0,0.0,0.0,0.0,0.0,0.0,0.0,0.0,0.0,0.0,0.0,0.0,0.0,0.0,0.0,0.0,0.0,0.0,0.0,0.0,0.0,0.0,0.0,0.0,0.0,0.0,0.0,0.0,0.0,0.0,0.0,0.0,0.0,0.0,0.0,0.0,0.0,0.0,0.0,0.0,0.0,0.0,0.0,0.0,0.0,0.0,0.0,0.0,0.0,0.0,0.0,0.0,0.0,0.0,0.0,0.0,0.0,0.0,0.0,0.0,0.0,0.0,0.0,0.0,0.0,0.0,0.0,0.0,0.0,0.0,0.0,0.0,0.0,0.0,0.0,0.0,0.0,0.0,0.0,0.0,0.0,0.0,0.0,0.0,0.0,0.0,0.0,0.0,0.0,0.0,0.0,0.0,0.0,0.0,0.0,0.0,0.0,0.0,0.0,0.0,0.0,0.0,0.0,0.0,0.0,0.0,0.0,0.0,0.0,0.0,0.0,0.0,0.0,0.0,0.0,0.0,0.0,0.0,0.0,0.0,0.0,0.0,0.0,0.0,0.0,0.0,0.0,0.0,0.0,0.0,0.0,0.0,0.0,0.0,0.0,0.0,0.0,0.0,0.0,0.0,0.0,0.0,0.0,0.0,0.0,0.0,0.0,0.0,0.0,0.0,0.0,0.0,0.0,0.0,0.0,0.0,0.0,0.0,0.0,0.0,0.0,0.0,0.0,0.0,0.0,0.0,0.0,0.0,0.0,0.0,0.0,0.0,0.0,0.0,0.0,0.0,0.0,0.0,0.0,0.0,0.0,0.0,0.0,0.0,0.0,0.0,0.0,0.0,0.0,0.0,0.0,0.0,0.0,0.0,0.0,0.0,0.0,0.0,0.0,0.0,0.0,0.0,0.0,0.0,0.0,0.0,0.0,0.0,0.0,0.0,0.0,0.0,0.0,0.0,0.0,0.0,0.0,0.0,0.0,0.0,0.0,0.0,0.0,0.0,0.0,0.0,0.0,0.0,0.0,0.0,0.0,0.0,0.0,0.0,0.0,0.0,0.0,0.0,0.0,0.0,0.0,0.0,0.0,0.0,0.0,0.0,0.0,0.0,0.0,0.0,0.0,0.0,0.0,0.0,0.0,0.0,0.0,0.0,0.0,0.0,0.0,0.0,0.0,0.0,0.0,0.0,0.0,0.0,0.0,0.0,0.0,0.0,0.0,0.0,0.0,0.0,0.0,0.0,0.0,0.0,0.0,0.0,0.0,0.0,0.0,0.0,0.0,0.0,0.0,0.0,0.0,0.0,0.0,0.0,0.0,0.0,0.0,0.0,0.0,0.0,0.0,0.0,0.0,0.0,0.0,0.0,0.0,0.0,0.0,0.0,0.0,0.0,0.0,0.0,0.0,0.0,0.0,0.0,0.0,0.0,0.0,0.0,0.0,0.0,0.0,0.0,0.0,0.0,0.0,0.0,0.0,0.0,0.0,0.0,0.0,0.0,0.0,0.0,0.0,0.0,0.0,0.0,0.0,0.0,0.0,0.0,0.0,0.0,0.0,0.0,0.0,0.0,0.0,0.0,0.0,0.0,0.0,0.0,0.0,0.0,0.0,0.0,0.0,0.0,0.0,0.0,0.0,0.0,0.0,0.0,0.0,0.0,0.0,0.0,0.0,0.0,0.0,0.0,0.0,0.0,0.0,0.0,0.0,0.0,0.0,0.0,0.0,0.0,0.0,0.0,0.0,0.0,0.0,0.0,0.0,0.0,0.0,0.0,0.0,0.0,0.0,0.0,0.0,0.0,0.0,0.0,0.0,0.0,0.0,0.0,0.0,0.0,0.0,0.0,0.0,0.0,0.0,0.0,0.0,0.0,0.0,0.0,0.0,0.0,0.0,0.0,0.0,0.0,0.0,0.0,0.0,0.0,0.0,0.0,0.0,0.0,0.0,0.0,0.0,0.0,0.0,0.0,0.0,0.0,0.0,0.0,0.0,0.0,0.0,0.0,0.0,0.0,0.0,0.0,0.0,0.0,0.0,0.0,0.0,0.0,0.0,0.0,0.0,0.0,0.0,0.0,0.0,0.0,0.0,0.0,0.0,0.0,0.0,0.0,0.0,0.0,0.0,0.0,0.0,0.0,0.0,0.0,0.0,0.0,0.0,0.0,0.0,0.0,0.0,0.0,0.0,0.0,0.0,0.0,0.0,0.0,0.0,0.0,0.0,0.0,0.0,0.0,0.0,0.0,0.0,0.0,0.0,0.0,0.0,0.0,0.0,0.0,0.0,0.0,0.0,0.0,0.0,0.0,0.0,0.0,0.0,0.0,0.0,0.0,0.0,0.0,0.0,0.0,0.0,0.0,0.0,0.0,0.0,0.0,0.0,0.0,0.0,0.0,0.0,0.0,0.0,0.0,0.0,0.0,0.0,0.0,0.0,0.0,0.0,0.0,0.0,0.0,0.0,0.0,0.0,0.0,0.0,0.0,0.0,0.0,0.0,0.0,0.0,0.0,0.0,0.0,0.0,0.0,0.0,0.0,0.0,0.0,0.0,0.0,0.0,0.0,0.0,0.0,0.0,0.0,0.0,0.0,0.0,0.0,0.0,0.0,0.0,0.0,0.0,0.0,0.0,0.0,0.0,0.0,0.0,0.0,0.0,0.0,0.0,0.0,0.0,0.0,0.0,0.0,0.0,0.0,0.0,0.0,0.0,0.0,0.0,0.0,0.0,0.0,0.0,0.0,0.0,0.0,0.0,0.0,0.0,0.0,0.0,0.0,0.0,0.0,0.0,1.786,0.0,0.0,0.0,0.0,0.0,0.0,0.0,0.0,0.0,0.0,0.0,0.0,0.0,0.0,0.0,0.0,0.0,0.0,0.0,0.0,0.0,0.0,0.0,0.0,0.0,0.0,0.0,0.0,0.0,0.0,0.0,0.0,0.0,0.0,0.0,0.0,0.0,0.0,0.0,0.0,0.0,0.0,0.0,0.0,0.0,0.0,0.0,0.0,0.0,0.0,0.0,0.0,0.0,0.0,0.0,0.0,0.0,0.0,0.0,0.0,0.0,0.0,0.0,0.0,0.0,0.0,0.0,0.0,0.0,0.0,0.0,0.0,0.0,0.0,0.0,0.0,0.0,0.0,0.0,0.0,0.0,0.0,0.0,0.0,0.0,0.0,0.0,0.0,0.0,0.0,0.0,0.0,0.0,0.0,0.0,0.0,0.0,0.0,0.0,0.0,0.0,0.0,0.0,0.0,0.0,0.0,0.0,0.0,0.0,0.0,1.7701,1.7801,1.7476,1.7304,1.7226,0.0,0.0,0.0,0.0,0.0,0.0,0.0,0.0,0.0,0.0,0.0,0.0,0.0,0.0,0.0,0.0,0.0,0.0,0.0,0.0,0.0,0.0,0.0,0.0,0.0,0.0,0.0,0.0,0.0,0.0,0.0,0.0,0.0,0.0,0.0,0.0,0.0,0.0,0.0,0.0,0.0,0.0,0.0,0.0,0.0,0.0,0.0,0.0,0.0,0.0,0.0,0.0,0.0,0.0,0.0,0.0,0.0,0.0,0.0,0.0,0.0,0.0,0.0,0.0,0.0,0.0,0.0,0.0,0.0,0.0,0.0,0.0,0.0,0.0,0.0,0.0,0.0,0.0,0.0,0.0,0.0,0.0,0.0,0.0,0.0,0.0,0.0,0.0,0.0,0.0,0.0,0.0,0.0,0.0,0.0,0.0,0.0,0.0,0.0,0.0,0.0,0.0,0.0,0.0,0.0,0.0,0.0,0.0,0.0,0.0,0.0,0.0,1.7374,1.7313,1.6706,0.0,0.0,0.0,0.0,0.0,0.0,0.0,0.0,0.0,0.0,0.0,0.0,0.0,0.0,0.0,0.0,0.0,0.0,0.0,0.0,0.0,0.0,0.0,0.0,0.0,0.0,0.0,0.0,0.0,0.0,0.0,0.0,0.0,0.0,0.0,0.0,0.0,0.0,0.0,0.0,0.0,0.0,0.0,0.0,0.0,0.0,0.0,0.0,0.0,0.0,0.0,0.0,0.0,0.0,0.0,0.0,0.0,0.0,0.0,0.0,0.0,0.0,0.0,0.0,0.0,0.0,0.0,0.0,0.0,0.0,0.0,0.0,0.0,0.0,0.0,0.0,0.0,0.0,0.0,0.0,0.0,0.0,0.0,0.0,0.0,0.0,0.0,0.0,0.0,0.0,0.0,0.0,0.0,0.0,0.0,0.0,0.0,0.0,0.0,0.0,0.0,0.0,0.0,0.0,0.0,0.0,0.0,0.0,0.0,0.0,1.6992,1.7751,1.7099,0.0,1.6557,0.0,0.0,0.0,0.0,0.0,0.0,0.0,0.0,0.0,0.0,0.0,0.0,0.0,0.0,0.0,0.0,0.0,0.0,0.0,0.0,0.0,0.0,0.0,0.0,0.0,0.0,0.0,0.0,0.0,0.0,0.0,0.0,0.0,0.0,0.0,0.0,0.0,0.0,0.0,0.0,0.0,0.0,0.0,0.0,0.0,0.0,0.0,0.0,0.0,0.0,0.0,0.0,0.0,0.0,0.0,0.0,0.0,0.0,0.0,0.0,0.0,0.0,0.0,0.0,0.0,0.0,0.0,0.0,0.0,0.0,0.0,0.0,0.0,0.0,0.0,0.0,0.0,0.0,0.0,0.0,0.0,0.0,0.0,0.0,0.0,0.0,0.0,0.0,0.0,0.0,0.0,0.0,0.0,0.0,0.0,0.0,0.0,0.0,0.0,0.0,0.0,0.0,0.0,0.0,0.0,0.0,0.0,0.0,0.0,0.0,1.6238,1.7103,1.6734,1.632,0.0,0.0,0.0,0.0,0.0,0.0,0.0,0.0,0.0,0.0,0.0,0.0,0.0,0.0,0.0,0.0,0.0,0.0,0.0,0.0,0.0,0.0,0.0,0.0,0.0,0.0,0.0,0.0,0.0,0.0,0.0,0.0,0.0,0.0,0.0,0.0,0.0,0.0,0.0,0.0,0.0,0.0,0.0,0.0,0.0,0.0,0.0,0.0,0.0,0.0,0.0,0.0,0.0,0.0,0.0,0.0,0.0,0.0,0.0,0.0,0.0,0.0,0.0,0.0,0.0,0.0,0.0,0.0,0.0,0.0,0.0,0.0,0.0,0.0,0.0,0.0,0.0,0.0,0.0,0.0,0.0,0.0,0.0,0.0,0.0,0.0,0.0,0.0,0.0,0.0,0.0,0.0,0.0,0.0,0.0,0.0,0.0,0.0,0.0,0.0,0.0,0.0,0.0,0.0,0.0,0.0,0.0,0.0,0.0,0.0,1.5536,1.5709,1.6496,1.6292,1.5978,1.5657,0.0,0.0,0.0,0.0,0.0,0.0,0.0,0.0,0.0,0.0,0.0,0.0,0.0,0.0,0.0,0.0,0.0,0.0,0.0,0.0,0.0,0.0,0.0,0.0,0.0,0.0,0.0,0.0,0.0,0.0,0.0,0.0,0.0,0.0,0.0,0.0,0.0,0.0,0.0,0.0,0.0,0.0,0.0,0.0,0.0,0.0,0.0,0.0,0.0,0.0,0.0,0.0,0.0,0.0,0.0,0.0,0.0,0.0,0.0,0.0,0.0,0.0,0.0,0.0,0.0,0.0,0.0,0.0,0.0,0.0,0.0,0.0,0.0,0.0,0.0,0.0,0.0,0.0,0.0,0.0,0.0,0.0,0.0,0.0,0.0,0.0,0.0,0.0,0.0,0.0,0.0,0.0,0.0,0.0,0.0,0.0,0.0,0.0,0.0,0.0,0.0,0.0,0.0,0.0,0.0,0.0,0.0,0.0,1.7529,1.6112,1.567,1.6426,1.5695,1.5638,0.0,0.0,0.0,0.0,0.0,0.0,0.0,0.0,0.0,0.0,0.0,0.0,0.0,0.0,0.0,0.0,0.0,0.0,0.0,0.0,0.0,0.0,0.0,0.0,0.0,0.0,0.0,0.0,0.0,0.0,0.0,0.0,0.0,0.0,0.0,0.0,0.0,0.0,0.0,0.0,0.0,0.0,0.0,0.0,0.0,0.0,0.0,0.0,0.0,0.0,0.0,0.0,0.0,0.0,0.0,0.0,0.0,0.0,0.0,0.0,0.0,0.0,0.0,0.0,0.0,0.0,0.0,0.0,0.0,0.0,0.0,0.0,0.0,0.0,0.0,0.0,0.0,0.0,0.0,0.0,0.0,0.0,0.0,0.0,0.0,0.0,0.0,0.0,0.0,0.0,0.0,0.0,0.0,0.0,0.0,0.0,0.0,0.0,0.0,0.0,0.0,0.0,0.0,0.0,0.0,0.0,0.0,0.0,0.0,1.617,1.6112,1.5901,1.5586,1.5843,1.5882,0.0,0.0,0.0,0.0,0.0,0.0,0.0,0.0,0.0,0.0,0.0,0.0,0.0,0.0,0.0,0.0,0.0,0.0,0.0,0.0,0.0,0.0,0.0,0.0,0.0,0.0,0.0,0.0,0.0,0.0,0.0,0.0,0.0,0.0,0.0,0.0,0.0,0.0,0.0,0.0,0.0,0.0,0.0,0.0,0.0,0.0,0.0,0.0,0.0,0.0,0.0,0.0,0.0,0.0,0.0,0.0,0.0,0.0,0.0,0.0,0.0,0.0,0.0,0.0,0.0,0.0,0.0,0.0,0.0,0.0,0.0,0.0,0.0,0.0,0.0,0.0,0.0,0.0,0.0,0.0,0.0,0.0,0.0,0.0,0.0,0.0,0.0,0.0,0.0,0.0,0.0,0.0,0.0,0.0,0.0,0.0,0.0,0.0,0.0,0.0,0.0,0.0,0.0,0.0,0.0,0.0,0.0,0.0,0.0,1.5236,0.0,1.5933,1.5046,1.562,1.5658,0.0,0.0,0.0,0.0,0.0,0.0,0.0,0.0,0.0,0.0,0.0,0.0,0.0,0.0,0.0,0.0,0.0,0.0,0.0,0.0,0.0,0.0,0.0,0.0,0.0,0.0,0.0,0.0,0.0,0.0,0.0,0.0,0.0,0.0,0.0,0.0,0.0,0.0,0.0,0.0,0.0,0.0,0.0,0.0,0.0,0.0,0.0,0.0,0.0,0.0,0.0,0.0,0.0,0.0,0.0,0.0,0.0,0.0,0.0,0.0,0.0,0.0,0.0,0.0,0.0,0.0,0.0,0.0,0.0,0.0,0.0,0.0,0.0,0.0,0.0,0.0,0.0,0.0,0.0,0.0,0.0,0.0,0.0,0.0,0.0,0.0,0.0,0.0,0.0,0.0,0.0,0.0,0.0,0.0,0.0,0.0,0.0,0.0,0.0,0.0,0.0,0.0,0.0,0.0,0.0,0.0,0.0,0.0,1.5133,1.5033,1.5681,1.5629,1.4923,1.4913,1.4904,0.0,0.0,0.0,0.0,0.0,0.0,0.0,0.0,0.0,0.0,0.0,0.0,0.0,0.0,0.0,0.0,0.0,0.0,0.0,0.0,0.0,0.0,0.0,0.0,0.0,0.0,0.0,0.0,0.0,0.0,0.0,0.0,0.0,0.0,0.0,0.0,0.0,0.0,0.0,0.0,0.0,0.0,0.0,0.0,0.0,0.0,0.0,0.0,0.0,0.0,0.0,0.0,0.0,0.0,0.0,0.0,0.0,0.0,0.0,0.0,0.0,0.0,0.0,0.0,0.0,0.0,0.0,0.0,0.0,0.0,0.0,0.0,0.0,0.0,0.0,0.0,0.0,0.0,0.0,0.0,0.0,0.0,0.0,0.0,0.0,0.0,0.0,0.0,0.0,0.0,0.0,0.0,0.0,0.0,0.0,0.0,0.0,0.0,0.0,0.0,0.0,0.0,0.0,0.0,0.0,0.0,0.0,0.0,0.0,1.4917,1.4568,1.4509,1.4719,1.4275,1.4246,0.0,0.0,0.0,0.0,0.0,0.0,0.0,0.0,0.0,0.0,0.0,0.0,0.0,0.0,0.0,0.0,0.0,0.0,0.0,0.0,0.0,0.0,0.0,0.0,0.0,0.0,0.0,0.0,0.0,0.0,0.0,0.0,0.0,0.0,0.0,0.0,0.0,0.0,0.0,0.0,0.0,0.0,0.0,0.0,0.0,0.0,0.0,0.0,0.0,0.0,0.0,0.0,0.0,0.0,0.0,0.0,0.0,0.0,0.0,0.0,0.0,0.0,0.0,0.0,0.0,0.0,0.0,0.0,0.0,0.0,0.0,0.0,0.0,0.0,0.0,0.0,0.0,0.0,0.0,0.0,0.0,0.0,0.0,0.0,0.0,0.0,0.0,0.0,0.0,0.0,0.0,0.0,0.0,0.0,0.0,0.0,0.0,0.0,0.0,0.0,0.0,0.0,0.0,0.0,0.0,0.0,0.0,0.0,0.0,1.5604,1.511,1.5061,1.5521,1.5069,1.4763,1.4624,0.0,0.0,0.0,0.0,0.0,0.0,0.0,0.0,0.0,0.0,0.0,0.0,0.0,0.0,0.0,0.0,0.0,0.0,0.0,0.0,0.0,0.0,0.0,0.0,0.0,0.0,0.0,0.0,0.0,0.0,0.0,0.0,0.0,0.0,0.0,0.0,0.0,0.0,0.0,0.0,0.0,0.0,0.0,0.0,0.0,0.0,0.0,0.0,0.0,0.0,0.0,0.0,0.0,0.0,0.0,0.0,0.0,0.0,0.0,0.0,0.0,0.0,0.0,0.0,0.0,0.0,0.0,0.0,0.0,0.0,0.0,0.0,0.0,0.0,0.0,0.0,0.0,0.0,0.0,0.0,0.0,0.0,0.0,0.0,0.0,0.0,0.0,0.0,0.0,0.0,0.0,0.0,0.0,0.0,0.0,0.0,0.0,0.0,0.0,0.0,0.0,0.0,0.0,0.0,0.0,0.0,0.0,0.0,1.705,1.7105,1.7101,1.7018,1.6853,1.6138,0.0,0.0,0.0,0.0,0.0,0.0,0.0,0.0,0.0,0.0,0.0,0.0,0.0,0.0,0.0,0.0,0.0,0.0,0.0,0.0,0.0,0.0,0.0,0.0,0.0,0.0,0.0,0.0,0.0,0.0,0.0,0.0,0.0,0.0,0.0,0.0,0.0,0.0,0.0,0.0,0.0,0.0,0.0,0.0,0.0,0.0,0.0,0.0,0.0,0.0,0.0,0.0,0.0,0.0,0.0,0.0,0.0,0.0,0.0,0.0,0.0,0.0,0.0,0.0,0.0,0.0,0.0,0.0,0.0,0.0,0.0,0.0,0.0,0.0,0.0,0.0,0.0,0.0,0.0,0.0,0.0,0.0,0.0,0.0,0.0,0.0,0.0,0.0,0.0,0.0,0.0,0.0,0.0,0.0,0.0,0.0,0.0,0.0,0.0,0.0,0.0,0.0,0.0,0.0,0.0,0.0,0.0,0.0,0.0,1.8913,1.95,1.9417,1.8669,1.694,1.6101,0.0,0.0,0.0,0.0,0.0,0.0,0.0,0.0,0.0,0.0,0.0,0.0,0.0,0.0,0.0,0.0,0.0,0.0,0.0,0.0,0.0,0.0,0.0,0.0,0.0,0.0,0.0,0.0,0.0,0.0,0.0,0.0,0.0,0.0,0.0,0.0,0.0,0.0,0.0,0.0,0.0,0.0,0.0,0.0,0.0,0.0,0.0,0.0,0.0,0.0,0.0,0.0,0.0,0.0,0.0,0.0,0.0,0.0,0.0,0.0,0.0,0.0,0.0,0.0,0.0,0.0,0.0,0.0,0.0,0.0,0.0,0.0,0.0,0.0,0.0,0.0,0.0,0.0,0.0,0.0,0.0,0.0,0.0,0.0,0.0,0.0,0.0,0.0,0.0,0.0,0.0,0.0,0.0,0.0,0.0,0.0,0.0,0.0,0.0,0.0,0.0,0.0,0.0,0.0,0.0,0.0,0.0,0.0,1.7843,1.9679,2.1092,2.1544,2.095,1.8332,1.6827,0.0,0.0,0.0,0.0,0.0,0.0,0.0,0.0,0.0,0.0,0.0,0.0,0.0,0.0,0.0,0.0,0.0,0.0,0.0,0.0,0.0,0.0,0.0,0.0,0.0,0.0,0.0,0.0,0.0,0.0,0.0,0.0,0.0,0.0,0.0,0.0,0.0,0.0,0.0,0.0,0.0,0.0,0.0,0.0,0.0,0.0,0.0,0.0,0.0,0.0,0.0,0.0,0.0,0.0,0.0,0.0,0.0,0.0,0.0,0.0,0.0,0.0,0.0,0.0,0.0,0.0,0.0,0.0,0.0,0.0,0.0,0.0,0.0,0.0,0.0,0.0,0.0,0.0,0.0,0.0,0.0,0.0,0.0,0.0,0.0,0.0,0.0,0.0,0.0,0.0,0.0,0.0,0.0,0.0,0.0,0.0,0.0,0.0,0.0,0.0,0.0,0.0,0.0,0.0,0.0,0.0,0.0,0.0,1.843,1.9861,2.1978,2.3111,2.3023,2.0174,1.8003,0.0,0.0,0.0,0.0,0.0,0.0,0.0,0.0,0.0,0.0,0.0,0.0,0.0,0.0,0.0,0.0,0.0,0.0,0.0,0.0,0.0,0.0,0.0,0.0,0.0,0.0,0.0,0.0,0.0,0.0,0.0,0.0,0.0,0.0,0.0,0.0,0.0,0.0,0.0,0.0,0.0,0.0,0.0,0.0,0.0,0.0,0.0,0.0,0.0,0.0,0.0,0.0,0.0,0.0,0.0,0.0,0.0,0.0,0.0,0.0,0.0,0.0,0.0,0.0,0.0,0.0,0.0,0.0,0.0,0.0,0.0,0.0,0.0,0.0,0.0,0.0,0.0,0.0,0.0,0.0,0.0,0.0,0.0,0.0,0.0,0.0,0.0,0.0,0.0,0.0,0.0,0.0,0.0,0.0,0.0,0.0,0.0,0.0,0.0,0.0,0.0,0.0,0.0,0.0,0.0,0.0,0.0,0.0,1.894,2.0841,2.1934,2.248,2.2463,1.9974,1.8537,0.0,0.0,0.0,0.0,0.0,0.0,0.0,0.0,0.0,0.0,0.0,0.0,0.0,0.0,0.0,0.0,0.0,0.0,0.0,0.0,0.0,0.0,0.0,0.0,0.0,0.0,0.0,0.0,0.0,0.0,0.0,0.0,0.0,0.0,0.0,0.0,0.0,0.0,0.0,0.0,0.0,0.0,0.0,0.0,0.0,0.0,0.0,0.0,1.562,0.0,0.0,0.0,0.0,0.0,0.0,0.0,0.0,0.0,0.0,0.0,0.0,0.0,0.0,0.0,0.0,0.0,0.0,0.0,0.0,0.0,0.0,0.0,0.0,0.0,0.0,0.0,0.0,0.0,0.0,0.0,0.0,0.0,0.0,0.0,0.0,0.0,0.0,0.0,0.0,0.0,0.0,0.0,0.0,0.0,0.0,0.0,0.0,0.0,0.0,0.0,0.0,0.0,0.0,0.0,0.0,0.0,0.0,0.0,1.9469,2.1153,2.1921,2.2327,2.2226,2.0323,1.9021,0.0,0.0,0.0,0.0,0.0,0.0,0.0,0.0,0.0,0.0,0.0,0.0,0.0,0.0,0.0,0.0,0.0,0.0,0.0,0.0,0.0,0.0,0.0,0.0,0.0,0.0,0.0,0.0,0.0,0.0,0.0,0.0,0.0,0.0,0.0,0.0,0.0,0.0,0.0,0.0,0.0,0.0,0.0,0.0,0.0,0.0,0.0,0.0,0.0,0.0,0.0,0.0,0.0,0.0,0.0,0.0,0.0,0.0,0.0,0.0,0.0,0.0,0.0,0.0,0.0,0.0,0.0,0.0,0.0,0.0,0.0,0.0,0.0,0.0,0.0,0.0,0.0,0.0,0.0,0.0,0.0,0.0,0.0,0.0,0.0,0.0,0.0,0.0,0.0,0.0,0.0,0.0,0.0,0.0,0.0,0.0,0.0,0.0,0.0,0.0,0.0,0.0,0.0,0.0,0.0,0.0,0.0,1.8422,1.9764,2.1305,2.1989,2.2327,2.2276,2.0795,1.9389,1.8091,0.0,0.0,0.0,0.0,0.0,0.0,0.0,0.0,0.0,0.0,0.0,0.0,0.0,0.0,0.0,0.0,0.0,0.0,0.0,0.0,0.0,0.0,0.0,0.0,0.0,0.0,0.0,0.0,0.0,0.0,0.0,0.0,0.0,0.0,0.0,0.0,0.0,0.0,1.5088,1.5331,0.0,0.0,0.0,0.0,0.0,0.0,0.0,0.0,1.5819,0.0,0.0,0.0,0.0,0.0,0.0,0.0,0.0,0.0,0.0,0.0,0.0,0.0,0.0,0.0,0.0,0.0,0.0,0.0,0.0,0.0,0.0,0.0,0.0,0.0,0.0,0.0,0.0,0.0,0.0,0.0,0.0,0.0,0.0,0.0,0.0,0.0,0.0,0.0,0.0,0.0,0.0,0.0,0.0,0.0,0.0,0.0,0.0,0.0,0.0,0.0,0.0,0.0,0.0,0.0,0.0,1.854,1.8212,1.9358,2.204,2.2243,2.2327,2.2276,2.0795,1.9316,1.789,0.0,0.0,0.0,0.0,0.0,0.0,0.0,0.0,0.0,0.0,0.0,0.0,0.0,0.0,0.0,0.0,0.0,0.0,0.0,0.0,0.0,0.0,0.0,0.0,0.0,0.0,0.0,0.0,0.0,0.0,0.0,0.0,0.0,0.0,0.0,0.0,0.0,0.0,0.0,1.5376,1.6056,0.0,0.0,0.0,0.0,0.0,0.0,0.0,0.0,1.6409,0.0,0.0,0.0,0.0,0.0,0.0,0.0,0.0,0.0,0.0,0.0,0.0,0.0,0.0,0.0,0.0,0.0,0.0,0.0,0.0,0.0,0.0,0.0,0.0,0.0,0.0,0.0,0.0,0.0,0.0,0.0,0.0,0.0,0.0,0.0,0.0,0.0,0.0,0.0,0.0,0.0,0.0,0.0,0.0,0.0,0.0,0.0,0.0,0.0,0.0,0.0,0.0,0.0,0.0,0.0,1.8758,1.9333,2.0467,2.2243,2.2327,2.2327,2.2293,2.0795,1.9478,0.0,0.0,0.0,0.0,0.0,0.0,0.0,0.0,0.0,0.0,0.0,0.0,0.0,0.0,0.0,0.0,0.0,0.0,0.0,0.0,0.0,0.0,0.0,0.0,0.0,0.0,0.0,0.0,0.0,0.0,0.0,0.0,0.0,0.0,0.0,0.0,0.0,0.0,0.0,0.0,1.5684,1.6023,1.6086,0.0,0.0,0.0,0.0,0.0,0.0,1.6534,1.6534,0.0,0.0,0.0,0.0,0.0,0.0,0.0,0.0,0.0,0.0,0.0,0.0,0.0,0.0,0.0,0.0,0.0,0.0,0.0,0.0,0.0,0.0,0.0,0.0,0.0,0.0,0.0,0.0,0.0,0.0,0.0,0.0,0.0,0.0,0.0,0.0,0.0,0.0,0.0,0.0,0.0,0.0,0.0,0.0,0.0,0.0,0.0,0.0,0.0,0.0,0.0,0.0,0.0,0.0,0.0,1.89,2.0247,2.1397,2.2276,2.2327,2.2254,2.213,2.0465,1.9301,0.0,0.0,0.0,0.0,0.0,0.0,0.0,0.0,0.0,0.0,0.0,0.0,0.0,0.0,0.0,0.0,0.0,0.0,0.0,0.0,0.0,0.0,0.0,0.0,0.0,0.0,0.0,0.0,0.0,0.0,0.0,0.0,0.0,0.0,0.0,0.0,0.0,0.0,0.0,0.0,0.0,1.5906,1.6446,1.6534,0.0,0.0,0.0,0.0,1.6534,1.6534,0.0,0.0,0.0,0.0,0.0,0.0,0.0,0.0,0.0,0.0,0.0,0.0,0.0,0.0,0.0,0.0,0.0,0.0,0.0,0.0,0.0,0.0,0.0,0.0,0.0,0.0,0.0,0.0,0.0,0.0,0.0,0.0,0.0,0.0,0.0,0.0,0.0,0.0,0.0,0.0,0.0,0.0,0.0,0.0,0.0,0.0,0.0,0.0,0.0,0.0,0.0,0.0,0.0,0.0,0.0,0.0,1.886,1.9722,2.0829,2.2226,2.231,2.2106,2.1655,1.932,1.8178,0.0,0.0,0.0,0.0,0.0,0.0,0.0,0.0,0.0,0.0,0.0,0.0,0.0,0.0,0.0,0.0,0.0,0.0,0.0,0.0,0.0,0.0,0.0,0.0,0.0,0.0,0.0,0.0,0.0,0.0,0.0,0.0,0.0,0.0,0.0,0.0,0.0,0.0,0.0,0.0,0.0,1.5894,1.6434,1.6534,1.6534,0.0,0.0,1.6534,1.6534,1.6534,0.0,0.0,0.0,0.0,0.0,0.0,0.0,0.0,0.0,0.0,0.0,0.0,0.0,0.0,0.0,0.0,0.0,0.0,0.0,0.0,0.0,0.0,0.0,0.0,0.0,0.0,0.0,0.0,0.0,0.0,0.0,0.0,0.0,0.0,0.0,0.0,0.0,0.0,0.0,0.0,0.0,0.0,0.0,0.0,0.0,0.0,0.0,0.0,0.0,0.0,0.0,0.0,0.0,0.0,0.0,1.8241,1.9495,2.0431,2.1233,2.1866,2.1899,2.1688,2.1275,1.9007,1.8149,0.0,0.0,0.0,0.0,0.0,0.0,0.0,0.0,0.0,0.0,0.0,0.0,0.0,0.0,0.0,0.0,0.0,0.0,0.0,0.0,0.0,0.0,0.0,0.0,0.0,0.0,0.0,0.0,0.0,0.0,0.0,0.0,0.0,0.0,0.0,0.0,0.0,0.0,0.0,0.0,0.0,0.0,1.6441,1.6534,0.0,0.0,0.0,1.6534,1.6534,0.0,0.0,0.0,0.0,0.0,0.0,0.0,0.0,0.0,0.0,0.0,0.0,0.0,0.0,0.0,0.0,0.0,0.0,0.0,0.0,0.0,0.0,0.0,0.0,0.0,0.0,0.0,0.0,0.0,0.0,0.0,0.0,0.0,0.0,0.0,0.0,0.0,0.0,0.0,0.0,0.0,0.0,0.0,0.0,0.0,0.0,0.0,0.0,0.0,0.0,0.0,0.0,0.0,0.0,0.0,0.0,0.0,1.9848,2.0916,2.1477,2.1477,2.146,2.1244,2.083,1.9017,0.0,0.0,0.0,0.0,0.0,0.0,0.0,0.0,0.0,0.0,0.0,0.0,0.0,0.0,0.0,0.0,0.0,0.0,0.0,0.0,0.0,0.0,0.0,0.0,0.0,0.0,0.0,1.5938,0.0,0.0,0.0,0.0,0.0,0.0,0.0,0.0,0.0,0.0,0.0,0.0,0.0,0.0,1.6534,1.6534,1.6534,1.6534,0.0,0.0,1.6534,1.6534,1.6534,1.6534,0.0,0.0,0.0,0.0,0.0,0.0,0.0,0.0,0.0,0.0,0.0,0.0,0.0,0.0,0.0,0.0,0.0,0.0,0.0,0.0,0.0,0.0,0.0,0.0,0.0,0.0,0.0,0.0,0.0,0.0,0.0,0.0,0.0,0.0,0.0,0.0,0.0,0.0,0.0,0.0,0.0,0.0,0.0,0.0,0.0,0.0,0.0,0.0,0.0,0.0,0.0,0.0,0.0,0.0,1.9367,1.9476,2.0501,2.1023,2.1023,2.1023,2.0829,2.0366,1.9279,1.8584,0.0,0.0,0.0,0.0,0.0,0.0,0.0,0.0,0.0,0.0,0.0,0.0,0.0,0.0,0.0,0.0,0.0,0.0,0.0,0.0,0.0,0.0,0.0,0.0,0.0,0.0,0.0,0.0,0.0,0.0,0.0,0.0,0.0,0.0,0.0,0.0,0.0,0.0,0.0,0.0,0.0,1.6534,1.6534,1.6534,1.6534,0.0,1.6534,1.6534,1.6534,1.6534,1.6534,1.6534,0.0,0.0,0.0,0.0,0.0,0.0,0.0,0.0,0.0,0.0,0.0,0.0,0.0,0.0,0.0,0.0,0.0,0.0,0.0,0.0,0.0,0.0,0.0,0.0,0.0,0.0,0.0,0.0,0.0,0.0,0.0,0.0,0.0,0.0,0.0,0.0,0.0,0.0,0.0,0.0,0.0,0.0,0.0,0.0,0.0,0.0,0.0,0.0,0.0,0.0,0.0,0.0,0.0,1.9362,2.0057,2.0416,2.055,2.0583,2.055,2.0364,1.9945,1.915,1.8576,0.0,0.0,0.0,0.0,0.0,0.0,0.0,0.0,0.0,0.0,0.0,0.0,0.0,0.0,0.0,0.0,0.0,0.0,0.0,0.0,0.0,0.0,0.0,0.0,0.0,0.0,0.0,0.0,1.6901,1.7236,1.7572,0.0,0.0,0.0,0.0,0.0,0.0,0.0,0.0,0.0,0.0,1.7041,1.7068,1.7048,0.0,0.0,1.6534,1.6534,1.6534,1.6534,1.6534,1.6534,1.6534,0.0,0.0,0.0,0.0,0.0,0.0,0.0,0.0,0.0,0.0,0.0,0.0,0.0,0.0,0.0,0.0,0.0,0.0,0.0,0.0,0.0,0.0,0.0,0.0,0.0,0.0,0.0,0.0,0.0,0.0,0.0,0.0,0.0,0.0,0.0,0.0,0.0,0.0,0.0,0.0,0.0,0.0,0.0,0.0,0.0,0.0,0.0,0.0,0.0,0.0,0.0,0.0,1.9471,2.01,2.0139,2.0124,2.0124,2.0124,2.0,1.9711,1.9241,1.8808,0.0,0.0,0.0,0.0,0.0,0.0,0.0,0.0,0.0,0.0,0.0,0.0,0.0,0.0,0.0,0.0,0.0,0.0,0.0,0.0,0.0,0.0,0.0,0.0,0.0,0.0,0.0,0.0,1.6438,1.6634,1.7024,0.0,0.0,0.0,0.0,0.0,0.0,0.0,0.0,0.0,0.0,1.7568,1.742,1.7408,1.7265,1.6829,1.6635,1.6635,1.6974,1.6886,1.6773,1.6773,0.0,0.0,0.0,0.0,0.0,0.0,0.0,0.0,0.0,0.0,0.0,0.0,0.0,0.0,0.0,0.0,0.0,0.0,0.0,0.0,0.0,0.0,0.0,0.0,0.0,0.0,0.0,1.8623,0.0,0.0,1.8623,0.0,0.0,0.0,0.0,0.0,0.0,0.0,0.0,0.0,0.0,0.0,0.0,0.0,0.0,0.0,0.0,0.0,0.0,0.0,0.0,0.0,0.0,1.9673,1.9256,1.9591,1.9726,1.9726,1.9726,1.9726,1.969,1.9675,1.9346,1.8672,0.0,0.0,0.0,0.0,0.0,0.0,0.0,0.0,0.0,0.0,0.0,0.0,0.0,0.0,0.0,0.0,0.0,0.0,0.0,0.0,0.0,0.0,0.0,0.0,0.0,0.0,1.6471,1.6497,1.6497,0.0,0.0,0.0,0.0,0.0,0.0,0.0,0.0,0.0,1.7388,1.784,1.799,1.7521,1.7434,1.747,1.737,1.6911,1.6923,1.7978,1.7702,1.7363,0.0,0.0,0.0,0.0,0.0,0.0,0.0,0.0,0.0,0.0,0.0,0.0,0.0,0.0,0.0,0.0,0.0,0.0,0.0,0.0,0.0,0.0,0.0,0.0,0.0,0.0,0.0,1.8697,1.8604,0.0,0.0,0.0,0.0,0.0,0.0,0.0,0.0,0.0,0.0,0.0,1.919,1.92,0.0,0.0,0.0,0.0,0.0,0.0,0.0,0.0,0.0,0.0,0.0,0.0,1.9909,1.994,1.9768,1.9705,1.9705,1.9705,1.9705,1.9705,1.9705,1.939,1.8732,0.0,0.0,0.0,0.0,0.0,0.0,0.0,0.0,0.0,0.0,0.0,0.0,0.0,0.0,0.0,0.0,0.0,0.0,0.0,0.0,0.0,0.0,0.0,0.0,0.0,1.6534,0.0,0.0,0.0,0.0,0.0,0.0,0.0,0.0,0.0,0.0,0.0,1.7513,1.789,1.8405,1.8681,1.8468,1.8778,1.8763,0.0,0.0,0.0,0.0,0.0,0.0,0.0,0.0,0.0,0.0,0.0,0.0,0.0,0.0,1.8226,1.6766,1.6835,1.7099,1.7087,0.0,0.0,0.0,0.0,0.0,0.0,0.0,0.0,0.0,0.0,0.0,0.0,0.0,0.0,1.9157,1.9073,1.909,0.0,0.0,0.0,0.0,0.0,0.0,0.0,0.0,1.8885,1.928,1.9482,1.9487,1.986,0.0,2.0061,1.9591,0.0,0.0,0.0,0.0,0.0,0.0,0.0,0.0,2.0045,2.0074,1.9854,1.9705,1.9705,1.9705,1.9705,1.9705,1.9705,1.948,1.9061,1.8433,1.8164,0.0,0.0,0.0,0.0,0.0,0.0,0.0,0.0,0.0,0.0,0.0,0.0,0.0,0.0,0.0,0.0,0.0,0.0,0.0,0.0,0.0,0.0,0.0,1.6534,0.0,0.0,0.0,0.0,0.0,0.0,0.0,0.0,0.0,1.6823,1.7313,1.7865,1.8417,1.8976,1.9255,1.9258,0.0,0.0,0.0,0.0,0.0,0.0,0.0,1.907,1.907,1.9058,1.8995,1.8794,1.9058,1.9359,1.956,0.0,0.0,1.7932,1.7979,1.824,1.8239,1.8807,1.9359,1.9547,1.912,1.8933,0.0,0.0,0.0,0.0,0.0,0.0,0.0,0.0,2.0366,2.0189,0.0,1.9959,0.0,0.0,0.0,0.0,1.9405,1.9718,0.0,0.0,1.9273,1.9381,1.8807,1.9411,1.9726,1.9705,1.9711,1.9711,1.9636,1.8707,0.0,0.0,0.0,0.0,0.0,0.0,2.012,1.9711,1.9756,1.9756,1.9705,1.9705,1.9705,1.9705,1.9705,1.969,1.966,1.9061,1.9016,1.963,1.9076,0.0,0.0,0.0,0.0,0.0,0.0,0.0,0.0,0.0,0.0,0.0,0.0,0.0,0.0,0.0,0.0,0.0,0.0,0.0,0.0,1.6534,0.0,0.0,0.0,0.0,0.0,0.0,0.0,0.0,0.0,1.7458,1.7496,1.7903,1.843,1.8982,0.0,0.0,0.0,0.0,2.0116,2.0636,2.0225,2.0263,2.1292,2.1016,2.0718,2.0731,0.0,0.0,1.9987,1.9911,2.0188,2.0718,2.0424,1.9986,1.9976,1.9863,1.9795,1.98,1.9849,2.0087,2.0552,2.0335,2.0122,2.2001,0.0,0.0,0.0,0.0,2.1731,2.1433,2.0935,2.0348,2.006,1.9985,1.9985,0.0,0.0,0.0,0.0,0.0,0.0,1.9547,1.8978,1.9759,1.9858,1.942,1.96,1.9705,1.9705,1.9705,1.9705,1.9711,1.9391,1.9455,1.9888,0.0,0.0,0.0,0.0,2.0564,1.9786,2.0168,2.0183,1.9705,1.9705,1.9705,1.9705,1.9705,1.9705,1.969,1.951,1.9495,1.966,1.9557,0.0,0.0,0.0,0.0,0.0,0.0,0.0,0.0,0.0,0.0,0.0,0.0,0.0,0.0,0.0,0.0,0.0,0.0,0.0,1.6534,1.6534,1.6534,0.0,0.0,0.0,0.0,0.0,0.0,0.0,0.0,0.0,1.8505,1.8645,1.8995,0.0,0.0,2.0615,2.0983,2.1366,2.1476,2.1287,2.1443,0.0,2.1493,2.1355,2.1255,2.1255,2.1581,2.1782,2.1619,2.2246,2.2849,2.3012,2.3258,2.3371,2.3226,2.1719,2.0555,2.0464,2.1029,2.1569,2.1617,2.189,2.2221,2.2424,2.1687,2.2603,2.2611,2.1986,2.1902,2.1797,2.1617,2.1126,2.0914,2.0897,2.0897,2.0773,2.0539,2.0355,0.0,0.0,0.0,1.984,1.9421,1.9852,1.9945,1.9726,1.9705,1.9705,1.9705,1.9705,1.9705,1.9705,1.9705,1.9803,2.007,0.0,0.0,2.0462,2.1103,2.1022,2.0175,2.0513,2.0393,1.9705,1.9705,1.9705,1.9705,1.9705,1.9705,1.9705,1.9705,1.9705,1.969,1.9498,1.9411,0.0,0.0,0.0,0.0,0.0,0.0,0.0,0.0,0.0,0.0,0.0,1.6534,1.6534,0.0,0.0,0.0,1.6534,1.6534,1.6534,1.6534,0.0,0.0,0.0,0.0,0.0,0.0,0.0,1.8166,1.8581,1.8957,1.9296,1.9723,2.0037,2.0137,2.0646,2.1243,2.1719,0.0,2.2233,2.2151,2.2422,2.2523,2.2196,2.2146,2.2146,2.2133,2.2611,2.2962,2.3,2.374,2.4368,2.4582,2.4732,2.4833,2.4833,2.3243,2.2089,2.2276,2.2836,2.3192,2.2923,2.3505,2.4028,2.3477,2.3439,2.301,2.2799,2.2721,2.2483,2.2378,2.2327,2.231,2.2327,2.2327,2.2361,2.2372,2.232,2.184,0.0,2.0416,2.04,2.0238,1.9839,1.9779,1.9779,1.975,1.972,1.9705,1.9705,1.9705,1.9705,1.9705,1.9705,1.972,1.9779,2.0453,2.0767,2.0752,2.141,2.1425,2.0722,2.0767,2.0438,1.9705,1.9705,1.9705,1.9705,1.9705,1.9705,1.9705,1.9705,1.9675,1.9639,1.9191,1.8929,1.8826,0.0,0.0,0.0,0.0,0.0,0.0,0.0,0.0,0.0,0.0,0.0,0.0,0.0,0.0,1.6534,1.6516,0.0,1.6584,1.6622,0.0,0.0,0.0,1.7509,1.7513,1.7965,1.8304,1.838,0.0,0.0,1.9936,2.0878,2.1368,2.092,2.125,2.1766,2.2264,2.234,2.254,2.2977,2.3163,2.3128,2.305,2.304,2.3128,2.3263,2.3753,2.4104,2.4155,2.4594,2.5134,2.5548,2.5285,2.4983,2.4971,2.4514,2.4335,2.4755,2.4695,2.4518,2.4275,2.4745,2.5294,2.4252,2.4235,2.4122,2.376,2.3249,2.3151,2.2818,2.2299,2.2327,2.2327,2.2316,2.2902,2.3048,2.2862,2.2056,2.1569,2.1355,2.1394,2.1317,2.1186,2.0707,2.0468,2.0453,1.9929,1.9705,1.9705,1.9705,1.9705,1.9705,1.9705,1.9959,2.0483,2.1141,2.1216,2.0782,2.1859,2.1874,2.0737,2.1201,2.0887,1.975,1.9705,1.9705,1.9705,1.9705,1.9705,1.9705,1.9705,1.953,1.9118,1.9368,1.9133,1.8341,1.8563,0.0,0.0,0.0,0.0,0.0,0.0,0.0,0.0,0.0,1.6534,1.6534,0.0,1.6534,0.0,1.6911,1.7174,1.7187,1.7564,0.0,0.0,1.7928,1.8179,1.8593,1.8707,1.9158,1.9999,2.03,2.0614,2.1029,2.1694,2.2071,2.1945,2.2008,2.2297,2.2836,2.288,2.2955,2.309,2.3489,2.3627,2.3276,2.3514,2.3929,2.4356,2.4858,2.5209,2.5222,2.5699,2.6113,2.6226,2.6163,2.6076,2.6025,2.5993,2.5906,2.5946,2.4732,2.3741,2.4441,2.5062,2.5535,2.5186,2.5456,2.5473,2.505,2.434,2.4019,2.3646,2.3274,2.3033,2.3063,2.3308,2.3469,2.3391,2.3067,2.2293,2.1862,2.1695,2.1695,2.1695,2.168,2.1321,2.1156,2.1141,2.0767,2.0572,2.0557,2.0273,2.0288,2.0543,2.0288,2.0468,2.1156,2.1814,2.1949,2.1635,2.2592,2.2712,2.2009,2.1784,2.1201,2.0183,2.0139,2.0004,1.9705,1.9705,1.9705,1.9705,1.9705,1.9566,1.9281,1.9338,1.8984,1.8145,1.815,1.7824,0.0,0.0,0.0,0.0,0.0,0.0,0.0,0.0,0.0,0.0,0.0,1.6622,1.6886,1.7187,1.7476,1.7727,1.8028,1.8204,1.8204,1.8417,1.8694,1.8945,1.9233,1.961,2.02,2.0727,2.1142,2.1468,2.2184,2.2686,2.2686,2.2908,2.3072,2.31,2.3125,2.3125,2.315,2.3401,2.3627,2.3502,2.3991,2.4469,2.4782,2.5259,2.5586,2.5611,2.6076,2.6521,2.6521,2.6521,2.6433,2.6194,2.6085,2.6025,2.5668,2.477,2.4204,2.4653,2.5353,2.6025,2.6404,2.6979,2.6996,2.6573,2.5882,2.5225,2.4799,2.4475,2.3934,2.3983,2.4423,2.395,2.3589,2.3247,2.2863,2.2467,2.1934,2.2039,2.2024,2.1934,2.1859,2.1829,2.1829,2.1724,2.1695,2.1665,2.1126,2.1141,2.1665,2.1126,2.1171,2.1829,2.2398,2.2757,2.2951,2.346,2.3655,2.3475,2.2308,2.1425,2.0818,2.0752,2.0438,1.9854,1.9735,1.9705,1.9705,1.9705,1.9675,1.9566,1.917,1.863,1.8027,1.7549,1.7063,0.0,1.6534,0.0,0.0,0.0,0.0,0.0,0.0,0.0,0.0,1.6735,1.6936,1.7451,1.7564,1.779,1.8267,1.8367,1.8405,1.8417,1.8832,1.9083,1.9145,1.9597,1.9936,2.0012,2.0953,2.1619,2.1769,2.256,2.3125,2.3125,2.3452,2.3565,2.3263,2.324,2.3414,2.3215,2.3253,2.3753,2.428,2.4695,2.4946,2.5071,2.5448,2.5699,2.5749,2.6194,2.6521,2.6521,2.6521,2.6302,2.5787,2.5759,2.5617,2.5256,2.4966,2.4752,2.4866,2.5599,2.6352,2.8416,2.8552,2.8552,2.8179,2.7602,2.7507,2.6314,2.4475,2.3934,2.3896,2.4164,2.42,2.4177,2.4191,2.4739,2.4357,2.3281,2.3819,2.3774,2.3221,2.2712,2.2529,2.2458,2.1949,2.1695,2.1695,2.1575,2.1575,2.1695,2.1575,2.1844,2.2529,2.2607,2.3206,2.4208,0.0,0.0,0.0,2.2084,2.165,2.15,2.0991,2.0647,2.0513,1.9989,0.0,1.9705,1.9705,1.9479,1.908,1.8957,0.0,0.0,0.0,0.0,0.0,0.0,0.0,0.0,0.0,0.0,0.0,1.7953,1.789,1.789,1.789,1.7928,1.8053,1.8455,1.8769,1.8869,1.9246,1.9497,1.951,1.9585,1.966,1.9673,2.015,2.0665,2.1129,2.1744,2.2322,2.2698,2.3025,2.3125,2.3138,2.3178,2.319,2.3163,2.3866,2.4293,2.3966,2.4167,2.4845,2.585,2.5649,2.5611,2.6013,2.6269,2.6332,2.6276,2.6395,2.6508,2.6496,2.6521,2.6508,2.6289,2.6352,2.6246,2.6176,2.5554,2.4924,2.4805,2.5306,2.5887,2.9194,2.9499,2.9127,2.8645,0.0,2.8112,2.7235,2.5783,2.5281,2.5124,2.5262,2.533,2.5385,2.5416,2.553,2.5061,2.4133,2.4477,2.4253,2.361,2.3625,2.3445,2.3146,2.3146,2.2951,2.2622,2.2323,2.2338,2.2607,2.2323,2.2503,2.3116,2.3131,2.3625,2.4552,2.4582,2.4462,2.4118,2.3146,2.2488,2.2173,2.153,2.0887,2.0228,1.9869,0.0,0.0,0.0,0.0,0.0,0.0,0.0,0.0,1.7555,0.0,1.6992,1.7187,1.7488,1.7777,1.8041,1.8304,1.8581,1.8857,1.8769,1.8254,1.8204,1.8317,1.8593,1.8869,1.9133,1.9384,1.9648,1.9798,1.9798,1.9798,1.9798,1.9861,2.0313,2.0819,2.1104,2.1807,2.2435,2.2686,2.2927,2.3125,2.309,2.3389,2.3439,2.3263,2.3866,2.4356,2.4406,2.4858,2.5385,2.59,2.6101,2.6076,2.6364,2.6226,2.6244,2.6483,2.6226,2.6025,2.605,2.6251,2.6321,2.5554,2.5965,2.6396,2.5955,2.5746,2.5269,2.4534,2.4772,2.5522,2.9736,3.0243,2.9634,2.903,2.8491,2.8371,2.793,2.7233,2.6663,0.0,0.0,2.6381,2.6366,2.6213,2.5907,2.536,2.4597,2.4582,2.4313,2.3819,2.4373,2.4388,2.3999,2.4537,2.4448,2.3774,2.3266,2.3236,2.3565,2.3071,2.3086,2.3565,2.3595,2.3939,2.4537,2.4462,2.4791,2.5495,2.4283,2.3355,2.2847,2.2203,2.1291,2.0064,1.9929,1.9809,1.9705,1.9281,1.9006,1.8893,1.8493,1.8012,1.754,1.7922,1.7978,1.7617,1.7959,1.8223,1.8355,1.872,1.907,1.9158,1.956,1.9434,1.8543,1.8493,1.8668,1.9083,1.9108,1.9346,1.9761,1.9798,1.9798,1.9798,1.9798,1.9798,1.9849,2.0413,2.0894,2.0928,2.182,2.246,2.2523,2.2802,2.3125,2.3188,2.3416,2.3753,2.3452,2.3841,2.4418,2.4895,2.541,2.5737,2.5686,2.5937,2.6251,2.6076,2.5737,2.5686,2.6063,2.5912,2.5674,2.5837,2.6236,2.5952,2.5046,2.5738,2.6136,2.517,2.5499,2.5624,2.4483,2.4189,2.4731,3.092,3.1021,3.092,3.052,2.9955,2.9426,2.8559,2.7467,2.6704,2.6123,2.577,2.6341,2.6219,2.5738,2.6231,2.5779,2.4597,2.4582,2.4522,2.4492,2.4537,2.4881,2.5315,2.5435,2.5121,2.4507,2.4388,2.4088,2.3625,2.3505,2.352,2.358,2.3595,2.3954,2.4477,2.4044,2.4358,2.554,2.4283,2.3565,2.346,2.2862,2.2173,2.144,2.0857,2.0288,1.9705,1.9632,1.9369,1.8921,1.8796,1.858,1.8104,1.8173,1.8161,1.8113,1.8141,1.8384,1.887,1.8933,1.9221,1.9648,1.9761,1.9723,1.9597,1.9585,1.9623,1.9685,1.966,1.9723,1.9798,1.9823,1.9849,1.9836,1.9823,1.9811,1.9886,2.0752,2.1368,2.1393,2.2347,2.3,2.2975,2.3075,2.3125,2.3138,2.3203,2.3389,2.3778,2.4356,2.4895,2.541,2.5975,2.6088,2.5686,2.5624,2.5573,2.5109,2.5034,2.5109,2.5649,2.5573,2.5611,2.6176,2.6235,2.6159,2.5884,2.6328,2.5841,2.4945,2.4434,2.4403,2.5207,2.4066,2.2859,3.1015,3.074,3.0699,3.0166,2.9271,2.8685,2.8125,2.7565,2.721,2.6904,2.6707,2.6991,2.6946,2.6707,2.6991,2.6393,2.5181,2.5525,2.53,2.4672,2.536,2.5659,2.56,2.56,2.545,2.5075,2.4388,2.4103,2.4118,2.3789,2.3595,2.364,2.4313,2.4672,2.4597,2.5031,2.5166,2.5061,2.4088,2.3595,2.358,2.2996,2.2066,2.0764,2.0709,2.0233,1.9309,1.9288,1.9183,1.8988,1.8702,1.8429,1.8228,1.8486,1.8649,1.8656,1.8882,1.9179,1.9396,1.9447,1.9547,1.9773,1.9798,1.9798,1.9798,1.9798,1.9798,1.9798,1.9798,1.9952,2.0245,2.0267,2.0388,2.069,2.0715,2.0715,2.079,2.1405,2.192,2.1995,2.2636,2.3125,2.3125,2.3125,2.3125,2.3125,2.3125,2.3251,2.3514,2.4004,2.4569,2.5071,2.541,2.5435,2.5222,2.5172,2.5071,2.4845,2.4569,2.4632,2.5021,2.4983,2.4883,2.5018,2.5,2.4505,2.3955,2.4119,2.4002,2.3397,2.3453,2.396,2.4368,2.2917,2.1839,3.0518,3.0123,3.0081,2.9496,2.8463,2.7993,2.771,2.7625,2.761,2.756,2.756,2.756,2.756,2.7545,2.734,2.6572,2.5749,2.5974,2.5674,2.5046,2.6048,2.6393,2.6063,2.5914,2.5824,2.5689,2.4612,2.4343,2.4686,2.4298,2.3955,2.3911,2.4845,2.4988,2.4391,2.533,2.5335,2.417,2.3658,2.3378,2.3363,2.2802,2.1739,2.0489,2.0584,2.026,1.935,1.9202,1.9125,1.9002,1.8734,1.8533,1.8405,1.8871,1.9193,1.9221,1.9572,1.9798,1.9811,1.9924,1.9949,1.9811,2.0049,2.0137,2.0024,2.0112,2.0112,2.0024,2.015,2.0395,2.0772,2.0881,2.1024,2.1437,2.15,2.143,2.1518,2.1983,2.2322,2.2372,2.2786,2.3125,2.3125,2.3125,2.3125,2.3125,2.3125,2.3125,2.3128,2.3552,2.3991,2.4343,2.4644,2.4782,2.4695,2.4644,2.4556,2.4494,2.4079,2.4104,2.4393,2.4268,2.4016,2.3988,2.376,2.3285,2.2049,2.2399,2.2648,2.2092,2.2518,2.301,2.2745,2.1793,2.0974,2.954,2.9496,2.9496,2.9088,2.8511,2.8431,2.8122,2.7625,2.7575,2.756,2.756,2.756,2.756,2.7445,2.6378,2.5809,2.5585,2.5061,2.5106,2.557,2.6258,2.6871,2.723,2.6752,2.6512,2.6408,2.5704,2.5375,2.5495,2.5405,2.5094,2.4505,2.4537,2.4305,2.3645,2.3705,2.3428,2.2825,2.2742,2.2738,2.2723,2.2136,2.1707,2.1571,2.1044,2.0734,2.0387,2.0045,1.9485,1.9074,1.9394,1.9429,1.9044,1.9421,1.9709,1.9723,1.9773,1.9798,1.9849,2.0288,2.0376,1.9949,2.074,2.1079,2.0718,2.1041,2.1117,2.0803,2.1041,2.1288,2.1407,2.1422,2.1499,2.1592,2.1621,2.1481,2.1619,2.1983,2.2322,2.2322,2.2824,2.3125,2.3125,2.3125,2.3125,2.3125,2.3125,2.3125,2.3138,2.314,2.3314,2.3514,2.4104,2.4481,2.4205,2.4079,2.3904,2.3489,2.3288,2.3502,2.3866,2.3979,2.3903,2.3585,2.3417,2.3053,2.2719,2.2867,2.2557,2.1796,2.1826,2.1886,2.1155,2.075,2.0777,2.918,2.8873,2.8873,2.8496,2.8039,2.8384,2.8188,2.767,2.8008,2.7964,2.764,2.756,2.756,2.758,2.6991,2.6572,2.6183,2.5899,2.5929,2.6198,2.6482,2.6946,2.749,2.6886,2.6782,2.7036,2.6123,2.5809,2.6063,2.5809,2.5444,2.5236,2.5575,2.5168,2.4204,2.4803,2.4535,2.3114,2.278,2.2431,2.206,2.1794,2.1374,2.0781,2.0779,2.0401,1.9814,1.9743,1.9697,1.9479,1.9696,1.9724,1.9497,1.9685,1.9798,1.9823,2.0125,2.0451,2.0778,2.1029,2.1041,2.0803,2.1217,2.138,2.1204,2.1656,2.187,2.1681,2.1556,2.1622,2.195,2.1951,2.2106,2.2342,2.2434,2.2447,2.2472,2.2636,2.2727,2.2811,2.3,2.3125,2.3125,2.3125,2.3125,2.3125,2.3125,2.3125,2.3125,2.3125,2.3125,2.3115,2.3552,2.369,2.354,2.3489,2.3364,2.3213,2.3125,2.3288,2.3401,2.3489,2.338,2.3229,2.2941,2.2509,2.188,2.1659,2.1397,2.1087,2.1044,2.1011,2.0634,2.0566,2.0654,2.8685,2.8271,2.8238,2.7993,2.767,2.8098,2.8038,2.7715,2.8113,2.8023,2.759,2.756,2.756,2.7595,2.743,2.7036,2.6632,2.6602,2.6602,2.6617,2.6767,2.7126,2.752,2.6916,2.6931,2.7305,2.6213,2.581,2.6161,2.5839,2.5477,2.5336,2.5727,2.534,2.434,2.516,2.475,2.3232,2.2707,2.2215,2.1642,2.1462,2.1024,2.0329,2.0424,2.0152,1.9557,1.9712,1.9798,1.9798,1.9798,1.9798,1.9798,1.9964,2.0116,2.0263,2.0652,2.1054,2.1481,2.1631,2.1656,2.1531,2.1719,2.187,2.1832,2.2221,2.251,2.2498,2.2159,2.2178,2.2417,2.2498,2.2711,2.3088,2.3125,2.3125,2.31,2.3125,2.3113,2.3125,2.3113,2.3125,2.3125,2.3125,2.3125,2.3125,2.3125,2.3125,2.3125,2.3125,2.3125,2.3125,2.3138,2.315,2.3125,2.3175,2.3125,2.3125,2.3125,2.3125,2.3125,2.3078,2.2884,2.2738,2.2221,2.1823,2.1631,2.1086,2.0928,2.0666,2.0542,2.0615,2.0566,2.0576,2.0693,2.7675,2.7675,2.761,2.766,2.7625,2.7649,2.7685,2.764,2.77,2.7685,2.7625,2.756,2.756,2.753,2.7006,2.6647,2.6617,2.6617,2.6632,2.6692,2.7235,2.7515,2.7565,2.6916,2.6946,2.7369,2.6156,2.5531,2.5507,2.5452,2.5051,2.446,2.456,2.4084,2.3423,2.3454,2.3027,2.2553,2.2394,2.211,2.1567,2.1066,2.081,2.0738,2.0181,2.0131,2.0495,2.008,1.9811,1.9811,1.9836,1.9836,1.99,2.0373,2.0896,2.1322,2.143,2.1468,2.1606,2.2008,2.2096,2.1757,2.2422,2.2811,2.2359,2.2723,2.3,2.3075,2.2902,2.2975,2.3012,2.2987,2.2977,2.3113,2.3125,2.3125,2.3125,2.3125,2.3125,2.3175,2.3213,2.3188,2.315,2.3125,2.3125,2.3125,2.3125,2.3125,2.3125,2.3125,2.3125,2.3125,2.3125,2.3125,2.3125,2.3125,2.3125,2.3125,2.3125,2.3125,2.3125,2.3005,2.2628,2.2335,2.2238,2.1949,2.1536,2.1402,2.1471,2.1186,2.0655,2.0613,2.0547,2.0566,2.0693,2.7979,2.7625,2.756,2.756,2.7619,2.8053,2.7993,2.767,2.8038,2.7964,2.767,2.756,2.756,2.756,2.7335,2.7215,2.7186,2.6797,2.6811,2.7141,2.7036,2.7205,2.753,2.6886,2.663,2.6701,2.5934,2.545,2.5412,2.5398,2.5287,2.5077,2.5007,2.461,2.3989,2.3884,2.3533,2.2824,2.251,2.2209,2.1995,2.1468,2.1243,2.1176,2.0319,1.9901,2.0144,1.9901,1.9974,2.0338,2.0351,2.0557,2.0851,2.1096,2.143,2.1914,2.204,2.2171,2.2498,2.2723,2.2714,2.2611,2.2827,2.3002,2.2865,2.2965,2.3125,2.3125,2.3125,2.3125,2.3125,2.3125,2.3125,2.3125,2.3125,2.3125,2.3125,2.3138,2.3263,2.3577,2.3678,2.3565,2.3251,2.3125,2.3125,2.3125,2.3125,2.3125,2.3125,2.3125,2.3125,2.3125,2.3125,2.3125,2.3125,2.3125,2.3125,2.3125,2.3125,2.3125,2.3125,2.3125,2.2823,2.2628,2.2408,2.2097,2.1681,2.0813,2.1062,2.0944,2.0483,2.0526,2.0518,2.0557,2.0713,2.7993,2.7655,2.756,2.756,2.7619,2.8068,2.8008,2.7634,2.8068,2.8008,2.767,2.756,2.756,2.756,2.756,2.756,2.758,2.716,2.7041,2.7195,2.6796,2.6674,2.6739,2.6375,2.6176,2.6014,2.5398,2.4951,2.4667,2.4667,2.4654,2.461,2.4667,2.4452,2.4002,2.3872,2.3603,2.311,2.2749,2.2573,2.251,2.2046,2.1757,2.1619,2.0828,2.0351,2.0351,2.0351,2.0514,2.0865,2.0983,2.1214,2.166,2.1736,2.2014,2.2506,2.2535,2.2677,2.3062,2.3125,2.3065,2.3125,2.3125,2.3125,2.3125,2.3125,2.3125,2.3125,2.3125,2.3125,2.3125,2.3125,2.3125,2.3125,2.3125,2.3125,2.3125,2.3125,2.3414,2.3828,2.3954,2.3778,2.3477,2.3251,2.315,2.3125,2.3125,2.3125,2.3125,2.3125,2.3125,2.3125,2.3125,2.3125,2.3078,2.3078,2.309,2.309,2.3078,2.3078,2.3005,2.3005,2.2884,2.2763,2.253,2.2206,2.1563,2.0537,2.0285,2.0412,2.0387,2.0526,2.0508,2.0566,2.0713,2.7604,2.7625,2.756,2.756,2.7575,2.7634,2.7655,2.759,2.7604,2.7634,2.756,2.756,2.756,2.756,2.7509,2.7524,2.7444,2.7333,2.7012,2.6602,2.6453,2.6119,2.5605,2.5453,2.5342,2.5231,2.4624,2.3884,2.3305,2.3365,2.3305,2.3198,2.3305,2.3365,2.3125,2.3245,2.3125,2.3113,2.3002,2.3027,2.3062,2.2573,2.2322,2.2259,2.1782,2.1493,2.1481,2.143,2.138,2.1481,2.1493,2.1763,2.2204,2.23,2.2515,2.2952,2.3027,2.3053,2.3065,2.3125,2.3125,2.3125,2.3125,2.3125,2.3125,2.3125,2.3125,2.3125,2.3125,2.3125,2.3125,2.3125,2.3125,2.3125,2.3125,2.3125,2.3125,2.3115,2.3328,2.3941,2.413,2.4029,2.3879,2.3552,2.3263,2.3163,2.3125,2.3125,2.3125,2.3125,2.3125,2.315,2.3251,2.3351,2.319,2.309,2.3103,2.3055,2.309,2.3078,2.2823,2.2763,2.2322,2.2149,2.1689,2.1365,2.1486,2.0625,2.0657,2.0672,2.0655,2.043,2.0537,2.0596,2.0674,2.8008,2.759,2.756,2.756,2.756,2.756,2.756,2.756,2.756,2.756,2.756,2.756,2.756,2.7458,2.7086,2.6826,2.6826,2.639,2.6229,2.6336,2.5946,2.5618,2.5287,2.4838,2.4337,2.3872,2.3603,2.3365,2.3125,2.3125,2.3125,2.3125,2.3138,2.3125,2.315,2.3125,2.3125,2.3125,2.3125,2.3125,2.3125,2.2962,2.2874,2.2862,2.2711,2.2623,2.2585,2.1895,2.1694,2.2033,2.2058,2.2284,2.2749,2.2842,2.293,2.3053,2.3125,2.3125,2.3125,2.3125,2.3125,2.3125,2.3125,2.3125,2.3125,2.3125,2.3125,2.3125,2.3125,2.3125,2.3125,2.3125,2.3175,2.3138,2.3125,2.3138,2.3276,2.3816,2.4305,2.4556,2.487,2.477,2.4192,2.3778,2.3552,2.3226,2.315,2.3125,2.3078,2.303,2.3125,2.3138,2.3389,2.3306,2.301,2.2665,2.2478,2.2456,2.2567,2.2567,2.2431,2.2199,2.1815,2.1371,2.096,2.0806,2.0877,2.0823,2.0788,2.0547,2.0279,2.0312,2.0527,2.0596,2.0712,2.8128,2.7934,2.7679,2.756,2.756,2.756,2.756,2.7575,2.7306,2.7188,2.7137,2.6864,2.6811,2.6707,2.6283,2.6122,2.6014,2.5342,2.5231,2.5563,2.5231,2.4838,2.4553,2.4105,2.3662,2.3198,2.3125,2.3125,2.3125,2.3138,2.3238,2.3401,2.319,2.3263,2.3389,2.3178,2.3125,2.3125,2.3125,2.3125,2.3125,2.3125,2.3125,2.3125,2.3125,2.3125,2.3027,2.2389,2.2246,2.2548,2.2623,2.2799,2.304,2.3065,2.3125,2.3125,2.3125,2.3125,2.3125,2.3125,2.3125,2.3125,2.3125,2.3125,2.3125,2.3125,2.3125,2.3125,2.3125,2.3153,2.3414,2.3464,2.354,2.3753,2.3364,2.3276,2.3527,2.4443,2.5034,2.5172,2.5372,2.5197,2.4795,2.413,2.3916,2.3514,2.3263,2.2871,2.2775,2.2604,2.253,2.2395,2.2145,2.2238,2.2495,2.2242,2.1911,2.1835,2.1796,2.1788,2.1731,2.1469,2.1135,2.0731,2.0281,2.0336,2.0346,2.042,2.0335,2.0078,2.0117,2.0332,2.0615,2.0622,2.0688,2.7979,2.8487,2.7859,2.756,2.756,2.756,2.7524,2.7408,2.6826,2.651,2.6336,2.5892,2.5563,2.5453,2.5467,2.5356,2.5175,2.4553,2.4234,2.4279,2.4234,2.3943,2.3412,2.3305,2.3185,2.3125,2.3125,2.3125,2.3125,2.3138,2.3341,2.3715,2.329,2.3376,2.3615,2.3364,2.3125,2.3125,2.3125,2.3125,2.3125,2.3125,2.3125,2.3125,2.3125,2.3125,2.304,2.2952,2.3025,2.3113,2.3002,2.3015,2.3125,2.3125,2.3125,2.3125,2.3125,2.3125,2.3125,2.3125,2.3125,2.3125,2.3125,2.3125,2.3125,2.3125,2.3128,2.3203,2.3203,2.3464,2.3904,2.4042,2.4243,2.4556,2.3879,2.3678,2.4104,2.5008,2.546,2.5624,2.5649,2.5598,2.546,2.463,2.409,2.3729,2.3331,2.2628,2.2118,2.1835,2.144,2.1342,2.1284,2.1509,2.1876,2.1422,2.1095,2.0951,2.0848,2.0675,2.0853,2.0742,2.0621,2.0163,2.0022,2.0008,2.0066,2.0176,2.0312,2.0371,2.0449,2.0547,2.0673,2.0707,2.0943,2.7979,2.8502,2.7859,2.756,2.756,2.756,2.7306,2.6826,2.6563,2.6108,2.5742,2.5508,2.5287,2.5342,2.4794,2.4567,2.4394,2.3839,2.3424,2.3424,2.3424,2.3365,2.3125,2.3125,2.3125,2.3125,2.3125,2.3125,2.3125,2.3125,2.3251,2.3339,2.3215,2.3153,2.3301,2.3263,2.3138,2.3125,2.3125,2.3125,2.3125,2.3125,2.3125,2.3125,2.3125,2.3125,2.3125,2.3125,2.3125,2.3125,2.3125,2.3125,2.3125,2.3125,2.3125,2.3125,2.3125,2.3125,2.3125,2.3125,2.3125,2.3125,2.3125,2.3125,2.3125,2.3078,2.3339,2.3627,2.3778,2.3929,2.4405,2.4632,2.472,2.4745,2.448,2.4493,2.5021,2.5398,2.5737,2.6194,2.6201,2.5877,2.5393,2.4658,2.3935,2.3477,2.2778,2.2015,2.1521,2.1183,2.093,2.0969,2.0989,2.1181,2.1173,2.0653,2.0318,2.0094,1.9832,1.938,1.9713,1.9993,1.9951,1.9836,2.0062,2.0056,2.0254,2.0469,2.0557,2.0576,2.0576,2.0596,2.0827,2.0905,2.1307,2.8502,2.8577,2.8158,2.7675,2.7152,2.7152,2.6707,2.6068,2.5673,2.5342,2.4964,2.4567,2.4439,2.4394,2.3989,2.3826,2.3734,2.3558,2.3364,2.3138,2.3125,2.3125,2.3125,2.3125,2.3125,2.3125,2.3125,2.3125,2.3125,2.3125,2.3315,2.3641,2.3303,2.3303,2.3879,2.3265,2.3125,2.3125,2.3125,2.3125,2.3125,2.3125,2.3125,2.3125,2.3125,2.3125,2.3125,2.3125,2.3125,2.3125,2.3125,2.3125,2.3125,2.3125,2.3125,2.3125,2.3125,2.3125,2.3125,2.3125,2.3125,2.3125,2.3125,2.2884,2.2751,2.2739,2.3032,2.2707,2.297,2.3574,2.4443,2.5083,2.5485,2.5482,2.5153,2.511,2.5557,2.5382,2.5505,2.5706,2.5475,2.518,2.4737,2.4003,2.3526,2.2971,2.2232,2.145,2.0764,2.0604,2.0332,2.0221,2.0049,1.9956,1.9963,1.9578,1.9514,1.9366,1.9614,1.8954,1.9143,1.9643,1.9831,2.0007,2.0078,2.0225,2.043,2.0576,2.0576,2.0576,2.0576,2.0742,2.0944,2.125,2.1675,2.9017,2.8472,2.8412,2.7592,2.65,2.639,2.596,2.5231,2.4681,2.435,2.4047,2.3424,2.3365,2.3125,2.3305,2.3125,2.3163,2.354,2.3464,2.3288,2.3165,2.3263,2.3125,2.3125,2.3125,2.3125,2.3125,2.3125,2.3125,2.3125,2.369,2.4054,2.3491,2.374,2.4079,2.3541,2.3175,2.3125,2.3125,2.3125,2.3125,2.3125,2.3125,2.3125,2.3125,2.3125,2.3125,2.3125,2.3125,2.3125,2.3125,2.3125,2.3125,2.3125,2.3125,2.3125,2.3125,2.3125,2.3125,2.3125,2.3067,2.3008,2.3021,2.2702,2.2249,2.2262,2.2259,2.1912,2.1822,2.2834,2.3943,2.5277,2.5689,2.5526,2.5121,2.5093,2.5208,2.5057,2.4862,2.4791,2.4047,2.3599,2.3341,2.3034,2.265,2.2601,2.1783,2.0966,2.0414,2.0131,1.9595,1.9052,1.8794,1.8508,1.8547,1.8488,1.8636,1.8735,1.938,1.9374,1.9364,1.9718,2.0046,2.0254,2.0312,2.0391,2.0498,2.0576,2.0576,2.0576,2.0576,2.082,2.1063,2.1471,2.189,2.7906,2.769,2.7195,2.6465,2.5687,2.5618,2.5231,2.4509,2.435,2.3943,2.3412,2.3185,2.3125,2.3125,2.3103,2.3125,2.3138,2.3301,2.3153,2.3178,2.364,2.3502,2.3251,2.309,2.315,2.3138,2.3125,2.3125,2.3125,2.3188,2.3477,2.3966,2.3615,2.3477,2.3954,2.3552,2.3125,2.3125,2.3125,2.3125,2.3078,2.3042,2.3067,2.3067,2.3042,2.3078,2.3078,2.3125,2.3125,2.3125,2.3138,2.3163,2.3188,2.315,2.315,2.3188,2.309,2.3078,2.3078,2.3019,2.296,2.2678,2.2623,2.2456,2.198,2.1925,2.2149,2.221,2.2503,2.27,2.3523,2.3872,2.4313,2.4325,2.4097,2.3845,2.391,2.3883,2.3806,2.3745,2.3599,2.3441,2.3368,2.2563,2.2211,2.2073,2.1383,2.0612,2.0162,1.977,1.9308,1.875,1.8662,1.8652,1.8848,1.8799,1.8721,1.874,1.9199,1.9629,1.9629,1.9785,2.0146,2.0371,2.0508,2.0566,2.0576,2.0576,2.0576,2.0576,2.0605,2.085,2.1152,2.1582,2.1924,2.7092,2.6509,2.6452,2.5828,2.4978,2.4851,2.4452,2.3826,2.3767,2.3484,2.3198,2.3125,2.3125,2.3163,2.3389,2.3427,2.3115,2.3138,2.3301,2.354,2.3853,2.3653,2.3278,2.3364,2.3439,2.314,2.3125,2.3125,2.3125,2.3201,2.3439,2.3904,2.3439,2.3477,2.3828,2.3391,2.3163,2.3125,2.3125,2.3125,2.3078,2.2887,2.2811,2.2811,2.2849,2.2911,2.3103,2.3125,2.3288,2.3427,2.3523,2.3523,2.3439,2.324,2.3215,2.3477,2.319,2.3009,2.2911,2.2773,2.2651,2.229,2.2191,2.1857,2.1585,2.1398,2.1421,2.148,2.1608,2.1945,2.2733,2.3368,2.3441,2.3368,2.3073,2.284,2.2765,2.2776,2.2776,2.2702,2.2339,2.2113,2.1897,2.1669,2.1517,2.1283,2.0893,2.0187,2.0048,1.9679,1.9511,1.9131,1.9023,1.9072,1.9355,1.9346,1.9131,1.9111,1.9228,1.96,1.9775,1.999,2.0264,2.042,2.0566,2.0566,2.0576,2.0576,2.0576,2.0576,2.0654,2.085,2.0985,2.1176,2.1588,2.6295,2.5272,2.5837,2.5297,2.4203,2.4118,2.3767,2.3185,2.3125,2.3185,2.3125,2.3125,2.3125,2.3226,2.3577,2.3527,2.3253,2.3464,2.3766,2.3891,2.428,2.4067,2.3679,2.3567,2.348,2.3132,2.3303,2.3265,2.3339,2.3389,2.3828,2.4017,2.338,2.3306,2.3642,2.3133,2.2701,2.2748,2.2785,2.2823,2.2773,2.2579,2.2409,2.2432,2.2421,2.2538,2.2732,2.2847,2.307,2.3665,2.3704,2.3704,2.3703,2.3503,2.3182,2.3624,2.3018,2.2714,2.2492,2.239,2.2246,2.1827,2.1812,2.1458,2.0916,2.0896,2.0859,2.0562,2.0599,2.1115,2.1735,2.2264,2.2787,2.2776,2.2188,2.1886,2.1811,2.1811,2.1811,2.1745,2.1451,2.1231,2.1011,2.0867,2.0722,2.0518,2.0205,1.998,1.9873,1.9805,1.9717,1.96,1.9512,1.9219,1.9414,1.9687,1.9492,1.9355,1.9365,1.9609,1.9902,2.0166,2.0381,2.0478,2.0566,2.0576,2.0576,2.0576,2.0576,2.0576,2.0615,2.0732,2.0819,2.0755,2.1225,2.524,2.4523,2.4616,2.4138,2.3378,2.3305,2.3245,2.3138,2.3125,2.3125,2.3125,2.3125,2.3125,2.3128,2.314,2.3153,2.3403,2.3904,2.4217,2.428,2.4732,2.4883,2.4304,2.357,2.3212,2.332,2.3536,2.3654,2.3779,2.4305,2.4075,2.4238,2.332,2.2999,2.2906,2.2283,2.197,2.2232,2.2235,2.2246,2.2159,2.2094,2.2003,2.2003,2.1992,2.2094,2.2127,2.2105,2.2128,2.2264,2.2218,2.2526,2.2914,2.3107,2.2925,2.2581,2.2363,2.2195,2.2037,2.2003,2.1765,2.1453,2.1302,2.1145,2.0727,2.0658,2.0658,2.0564,2.0469,2.0722,2.0789,2.1242,2.1165,2.1088,2.1165,2.0944,2.0934,2.0934,2.1011,2.1011,2.0722,2.0576,2.0576,2.0576,2.0576,2.0576,2.043,2.0312,2.0264,2.0283,2.0303,2.0176,2.0039,1.9658,1.9385,1.9697,1.9766,1.9541,1.9541,1.9717,2.0,2.0303,2.0488,2.0537,2.0566,2.0576,2.0576,2.0576,2.0576,2.0576,2.0586,2.0596,2.0654,2.0731,2.0806,2.3989,2.3708,2.3649,2.3484,2.3138,2.3125,2.3125,2.3125,2.3125,2.3125,2.3125,2.3125,2.3125,2.3153,2.3489,2.3715,2.4079,2.4142,2.4406,2.4556,2.5172,2.5322,2.4763,2.3755,2.3478,2.3325,2.3321,2.3136,2.297,2.3069,2.3459,2.3176,2.2541,2.2375,2.2433,2.1959,2.1709,2.184,2.1874,2.1874,2.1838,2.1712,2.1582,2.151,2.156,2.1664,2.1862,2.1909,2.2043,2.2302,2.2355,2.2336,2.2386,2.2476,2.2529,2.2264,2.1985,2.1773,2.1571,2.1521,2.1375,2.0978,2.0898,2.0837,2.0643,2.0624,2.0576,2.0576,2.0576,2.0576,2.0644,2.0576,2.0576,2.0576,2.0576,2.0576,2.0576,2.0576,2.0576,2.0576,2.0576,2.0576,2.0576,2.0576,2.0576,2.0576,2.0576,2.0576,2.0576,2.0576,2.0576,2.0478,2.0303,2.0146,1.9775,1.9853,1.9961,1.9746,1.9668,1.9844,1.998,2.0225,2.042,2.0537,2.0557,2.0566,2.0576,2.0576,2.0576,2.0576,2.0576,2.0586,2.0615,2.0625,2.078,2.3125,2.3125,2.3125,2.3125,2.3125,2.3125,2.3125,2.3125,2.3125,2.3125,2.3125,2.3125,2.3125,2.3276,2.3715,2.4205,2.4644,2.4343,2.4541,2.4628,2.5123,2.511,2.4548,2.389,2.3271,2.2854,2.2143,2.2149,2.2385,2.2545,2.2327,2.2271,2.2076,2.1776,2.1717,2.1377,2.1588,2.1637,2.1637,2.1648,2.1532,2.1272,2.1049,2.1049,2.1049,2.124,2.1514,2.1564,2.1704,2.1929,2.2091,2.2041,2.179,2.1732,2.1883,2.2123,2.1816,2.146,2.1186,2.1049,2.0988,2.069,2.0624,2.0634,2.0634,2.0576,2.0576,2.0576,2.0576,2.0576,2.0576,2.0576,2.0576,2.0576,2.0576,2.0576,2.0576,2.0576,2.0576,2.0576,2.0576,2.0576,2.0576,2.0576,2.0576,2.0576,2.0576,2.0576,2.0576,2.0576,2.0576,2.0576,2.0518,2.0518,2.0322,2.0117,2.0088,1.9863,1.9805,1.9883,1.9971,2.0088,2.0303,2.0547,2.0557,2.0576,2.0576,2.0576,2.0576,2.0576,2.0576,2.0576,2.0596,2.0596,2.0684,2.3125,2.3125,2.3125,2.3125,2.3125,2.3125,2.3125,2.3125,2.3125,2.3125,2.3065,2.3065,2.3005,2.3081,2.3542,2.3891,2.4216,2.466,2.4633,2.4402,2.4728,2.4543,2.3583,2.2252,2.2331,2.2101,2.1038,2.1272,2.1977,2.2706,2.2839,2.2358,2.1707,2.1417,2.1272,2.0843,2.0321,2.0685,2.0811,2.0801,2.0801,2.0775,2.0738,2.0671,2.0738,2.0765,2.0929,2.0908,2.1019,2.0994,2.0921,2.0817,2.0799,2.0809,2.0741,2.0797,2.0777,2.07,2.0738,2.0708,2.0718,2.0624,2.0576,2.0576,2.0576,2.0576,2.0576,2.0576,2.0576,2.0576,2.0576,2.0576,2.0576,2.0576,2.0576,2.0576,2.0576,2.0576,2.0576,2.0576,2.0576,2.0576,2.0576,2.0576,2.0576,2.0576,2.0576,2.0576,2.0576,2.0576,2.0576,2.0576,2.0576,2.0576,2.0547,2.0391,2.0273,2.0029,2.0019,2.001,2.0098,2.0225,2.0381,2.0566,2.0576,2.0576,2.0576,2.0576,2.0576,2.0576,2.0576,2.0576,2.0576,2.0576,2.0576,2.3125,2.3125,2.3125,2.3125,2.3125,2.3125,2.3125,2.3125,2.3125,2.3125,2.3017,2.2567,2.2187,2.2008,2.2221,2.2556,2.2987,2.3715,2.3945,2.386,2.3982,2.3879,2.3385,2.237,2.1901,2.1611,2.0984,2.0685,2.1538,2.1741,2.1686,2.1572,2.123,2.0949,2.0888,2.0493,2.0458,2.0585,2.0634,2.0644,2.0576,2.0576,2.0576,2.0576,2.0576,2.0576,2.0576,2.0576,2.0576,2.0576,2.0576,2.0576,2.0566,2.0654,2.0644,2.0644,2.0634,2.0634,2.0634,2.0576,2.0576,2.0576,2.0576,2.0576,2.0576,2.0576,2.0576,2.0576,2.0576,2.0576,2.0576,2.0576,2.0576,2.0576,2.0576,2.0576,2.0576,2.0576,2.0576,2.0576,2.0576,2.0576,2.0576,2.0576,2.0576,2.0576,2.0576,2.0576,2.0576,2.0576,2.0576,2.0576,2.0576,2.0576,2.0547,2.0556,2.0478,2.0332,2.0332,2.0332,2.0352,2.0459,2.0537,2.0576,2.0576,2.0576,2.0576,2.0576,2.0576,2.0576,2.0576,2.0576,2.0576,2.0576,2.0576,2.3153,2.3339,2.3201,2.3125,2.3125,2.3125,2.2944,2.2823,2.2763,2.2628,2.2372,2.1815,2.1233,2.1012,2.1363,2.1925,2.2318,2.2559,2.2839,2.3066,2.2985,2.2815,2.236,2.179,2.1562,2.1669,2.0894,2.0653,2.0605,2.0722,2.0789,2.0576,2.073,2.0605,2.0634,2.0605,2.0557,2.0557,2.0576,2.0576,2.0576,2.0576,2.0576,2.0576,2.0576,2.0576,2.0576,2.0576,2.0576,2.0576,2.0576,2.0576,2.0576,2.0576,2.0576,2.0576,2.0576,2.0576,2.0576,2.0576,2.0576,2.0576,2.0576,2.0576,2.0576,2.0576,2.0576,2.0576,2.0576,2.0576,2.0576,2.0576,2.0576,2.0576,2.0576,2.0576,2.0576,2.0576,2.0576,2.0576,2.0576,2.0576,2.0576,2.0576,2.0576,2.0576,2.0576,2.0576,2.0576,2.0576,2.0576,2.0576,2.0576,2.0576,2.0557,2.0547,2.0566,2.0576,2.0576,2.0557,2.0508,2.0508,2.0557,2.0576,2.0576,2.0576,2.0576,2.0576,2.0576,2.0576,2.0576,2.0576,2.0576,2.0586,2.0596,2.3452,2.3891,2.3315,2.3175,2.3103,2.3125,2.2653,2.2207,2.2085,2.1561,2.0978,2.0764,2.0893,2.1052,2.127,2.1834,2.2495,2.2775,2.2469,2.2073,2.1744,2.1487,2.1197,2.1011,2.0789,2.0789,2.0644,2.0644,2.0576,2.0576,2.0576,2.0576,2.0576,2.0576,2.0625,2.0684,2.0615,2.0596,2.0576,2.0576,2.0576,2.0576,2.0576,2.0576,2.0576,2.0576,2.0576,2.0576,2.0576,2.0576,2.0576,2.0576,2.0576,2.0576,2.0576,2.0576,2.0576,2.0576,2.0576,2.0576,2.0576,2.0576,2.0576,2.0576,2.0576,2.0576,2.0576,2.0576,2.0576,2.0576,2.0576,2.0576,2.0576,2.0576,2.0596,2.0664,2.0644,2.0586,2.0586,2.0576,2.0576,2.0576,2.0576,2.0576,2.0576,2.0576,2.0576,2.0576,2.0576,2.0576,2.0576,2.0576,2.0576,2.0576,2.0576,2.0576,2.0576,2.0576,2.0576,2.0576,2.0557,2.0576,2.0576,2.0576,2.0576,2.0576,2.0576,2.0576,2.0576,2.0576,2.0576,2.0576,2.0722,2.0791,2.0771,2.4305,2.4481,2.4255,2.3979,2.3603,2.2995,2.2723,2.2663,2.2151,2.123,2.0157,2.0178,1.9938,1.9879,2.0122,2.0566,2.0999,2.1329,2.1267,2.1207,2.0948,2.0804,2.0634,2.0576,2.0644,2.0576,2.0576,2.0576,2.0576,2.0576,2.0576,2.0576,2.0576,2.0781,2.0859,2.0908,2.0801,2.0605,2.0576,2.0576,2.0576,2.0576,2.0576,2.0576,2.0576,2.0576,2.0576,2.0576,2.0576,2.0576,2.0576,2.0576,2.0576,2.0576,2.0576,2.0576,2.0576,2.0576,2.0576,2.0576,2.0576,2.0576,2.0576,2.0576,2.0576,2.0576,2.0576,2.0576,2.0576,2.0576,2.0576,2.0576,2.0576,2.0576,2.0635,2.0742,2.0801,2.0771,2.0859,2.0967,2.0742,2.0576,2.0576,2.0576,2.0576,2.0576,2.0576,2.0576,2.0576,2.0576,2.0576,2.0576,2.0576,2.0576,2.0576,2.0576,2.0576,2.0576,2.0576,2.0576,2.0576,2.0576,2.0576,2.0576,2.0576,2.0576,2.0576,2.0576,2.0576,2.0576,2.0576,2.0576,2.0762,2.1007,2.1086,2.4921,2.5021,2.4895,2.4607,2.4129,2.3147,2.2791,2.2726,2.1709,2.0642,1.952,1.9622,1.9525,1.9144,1.9326,1.9674,2.0072,2.0318,2.0379,2.0399,2.0456,2.0439,2.0527,2.0576,2.0576,2.0576,2.0576,2.0576,2.0576,2.0576,2.0576,2.0576,2.0596,2.082,2.1113,2.1221,2.1016,2.0674,2.0576,2.0576,2.0576,2.0576,2.0576,2.0576,2.0576,2.0576,2.0576,2.0576,2.0576,2.0576,2.0576,2.0576,2.0576,2.0576,2.0576,2.0576,2.0576,2.0576,2.0576,2.0576,2.0576,2.0576,2.0576,2.0576,2.0576,2.0576,2.0576,2.0576,2.0576,2.0586,2.0596,2.0576,2.0576,2.0576,2.084,2.0967,2.1094,2.1133,2.1269,2.1377,2.1162,2.1055,2.0977,2.0986,2.0703,2.0664,2.0576,2.0576,2.0576,2.0576,2.0576,2.0576,2.0576,2.0576,2.0576,2.0576,2.0576,2.0576,2.0576,2.0576,2.0576,2.0576,2.0576,2.0576,2.0576,2.0576,2.0576,2.0576,2.0576,2.0576,2.0586,2.0615,2.0977,2.1253,2.146,2.5094,2.5498,2.5006,2.4728,2.4508,2.3688,2.2819,2.2079,2.0749,1.9715,1.9041,1.9256,1.96,1.9717,1.9775,1.9883,1.998,2.0039,2.0078,2.0137,2.0195,2.0283,2.0449,2.0576,2.0576,2.0576,2.0576,2.0576,2.0576,2.0674,2.0654,2.0684,2.0781,2.0869,2.1211,2.125,2.1006,2.0635,2.0576,2.0576,2.0576,2.0576,2.0576,2.0576,2.0576,2.0576,2.0576,2.0576,2.0576,2.0576,2.0576,2.0576,2.0576,2.0576,2.0576,2.0576,2.0576,2.0576,2.0586,2.0596,2.0684,2.0684,2.0723,2.0732,2.0654,2.0654,2.0752,2.0898,2.0791,2.0781,2.0713,2.0654,2.0723,2.0869,2.1082,2.1328,2.1475,2.1475,2.1592,2.1738,2.1816,2.1807,2.165,2.1445,2.1016,2.0791,2.0635,2.0576,2.0576,2.0576,2.0576,2.0576,2.0576,2.0576,2.0576,2.0576,2.0576,2.0576,2.0576,2.0576,2.0576,2.0576,2.0576,2.0576,2.0576,2.0576,2.0586,2.0596,2.0684,2.0781,2.0674,2.0732,2.1124,2.1558,2.1853,2.5018,2.5139,2.4319,2.3968,2.3839,2.3224,2.2555,2.1869,2.0892,2.0034,1.9615,1.9668,1.9756,1.9883,1.9961,2.0068,2.0283,2.0342,2.0352,2.0322,2.0303,2.041,2.0547,2.0576,2.0576,2.0576,2.0576,2.0576,2.0576,2.0801,2.0977,2.1035,2.1172,2.1152,2.1103,2.1182,2.1348,2.0713,2.0576,2.0576,2.0576,2.0576,2.0576,2.0576,2.0576,2.0576,2.0576,2.0576,2.0576,2.0576,2.0576,2.0576,2.0576,2.0576,2.0576,2.0576,2.0576,2.0732,2.0986,2.1201,2.1289,2.1143,2.1016,2.1133,2.1357,2.1435,2.1445,2.1396,2.1328,2.136,2.151,2.1477,2.1504,2.1568,2.169,2.1924,2.1992,2.1865,2.1865,2.2041,2.2148,2.2041,2.1904,2.1787,2.1426,2.1074,2.0918,2.0654,2.0586,2.0576,2.0576,2.0576,2.0576,2.0576,2.0576,2.0576,2.0576,2.0576,2.0576,2.0576,2.0576,2.0576,2.0576,2.0576,2.0576,2.0576,2.0635,2.0723,2.0937,2.1016,2.0917,2.0956,2.1309,2.1952,2.2527,2.448,2.4409,2.3745,2.3294,2.2955,2.2586,2.2061,2.1312,2.0767,2.0322,2.0,2.0049,2.0146,2.0146,2.0166,2.0088,2.0371,2.0508,2.0381,2.041,2.0518,2.0537,2.0557,2.0576,2.0576,2.0576,2.0576,2.0576,2.0596,2.1025,2.1279,2.1494,2.1728,2.1543,2.1396,2.1533,2.1543,2.1006,2.0859,2.0742,2.0644,2.0576,2.0576,2.0576,2.0576,2.0576,2.0576,2.0576,2.0576,2.0586,2.0576,2.0576,2.0576,2.0576,2.0576,2.0576,2.0762,2.1006,2.1416,2.1631,2.1699,2.1738,2.1562,2.1602,2.1816,2.1787,2.1807,2.1826,2.1924,2.1967,2.1899,2.1973,2.2002,2.1961,2.2087,2.2324,2.2353,2.2217,2.2353,2.25,2.251,2.2353,2.2207,2.2012,2.1826,2.1504,2.1201,2.0918,2.0625,2.0586,2.0576,2.0576,2.0576,2.0576,2.0576,2.0576,2.0576,2.0576,2.0576,2.0576,2.0576,2.0576,2.0576,2.0576,2.0576,2.0605,2.0723,2.0879,2.1211,2.1335,2.125,2.139,2.1568,2.2163,2.2893,2.3441,2.3452,2.3441,2.2765,2.2027,2.191,2.1196,2.0085,2.0391,2.0332,1.998,2.0381,2.0478,2.0527,2.0537,2.0361,2.0166,2.0439,2.0391,2.0273,2.0488,2.0566,2.0615,2.0596,2.0576,2.0576,2.0576,2.0576,2.0625,2.1152,2.1543,2.1777,2.1934,2.1875,2.1885,2.1865,2.1719,2.1387,2.1113,2.1016,2.0918,2.0713,2.0771,2.081,2.085,2.0791,2.0771,2.0762,2.0674,2.0635,2.0605,2.0596,2.0586,2.0576,2.0576,2.0723,2.1045,2.1514,2.1826,2.1992,2.2207,2.2324,2.2158,2.2012,2.2031,2.2168,2.2207,2.2187,2.2207,2.2133,2.2068,2.2113,2.2084,2.224,2.2395,2.2473,2.2627,2.2715,2.292,2.3018,2.2998,2.29,2.2793,2.2598,2.2148,2.1934,2.1572,2.1103,2.082,2.0596,2.0586,2.0576,2.0576,2.0576,2.0576,2.0576,2.0576,2.0576,2.0576,2.0576,2.0576,2.0576,2.0576,2.0576,2.0576,2.0654,2.0859,2.1191,2.1592,2.1603,2.1723,2.1884,2.2139,2.2467,2.3051,2.2403,2.2328,2.1745,2.1231,2.1011,2.1001,2.07,2.041,2.0527,2.0469,2.0391,2.0508,2.0566,2.0576,2.0566,2.0478,2.0469,2.0527,2.0732,2.0742,2.0713,2.082,2.084,2.0771,2.0635,2.0596,2.0596,2.0644,2.0771,2.1269,2.1689,2.1885,2.2168,2.2266,2.2324,2.2334,2.206,2.1768,2.1504,2.1387,2.1318,2.1162,2.123,2.1318,2.1377,2.1279,2.1123,2.1299,2.1172,2.0693,2.0908,2.0937,2.0576,2.0586,2.0654,2.1102,2.1617,2.2227,2.2353,2.2607,2.2793,2.2861,2.2773,2.2812,2.2783,2.2705,2.2685,2.2617,2.2598,2.2551,2.2494,2.2541,2.2512,2.26,2.2716,2.2746,2.2891,2.2949,2.3144,2.3144,2.3144,2.3125,2.3066,2.2832,2.2422,2.2266,2.1963,2.1484,2.1025,2.0791,2.0586,2.0576,2.0576,2.0576,2.0576,2.0576,2.0576,2.0576,2.0576,2.0576,2.0576,2.0576,2.0576,2.0596,2.0644,2.083,2.1064,2.1455,2.1924,2.2305,2.2434,2.2493,2.2656,2.2899,2.3034,2.1441,2.1375,2.0857,2.0576,2.0576,2.0576,2.0576,2.0576,2.0576,2.0576,2.0576,2.0566,2.0576,2.0576,2.0576,2.0566,2.0576,2.0791,2.0977,2.1045,2.1113,2.1299,2.1289,2.1074,2.0898,2.083,2.083,2.0889,2.1016,2.1475,2.1953,2.2432,2.2578,2.2607,2.2705,2.2744,2.2646,2.2344,2.207,2.1875,2.1748,2.166,2.1738,2.1855,2.1924,2.1738,2.1572,2.1826,2.1465,2.0937,2.1172,2.1123,2.0908,2.0986,2.1309,2.1734,2.2055,2.2539,2.2744,2.2949,2.3096,2.3144,2.3144,2.3105,2.3086,2.3018,2.3027,2.3027,2.3066,2.3115,2.3125,2.3125,2.3115,2.3115,2.3125,2.3125,2.3125,2.3125,2.3144,2.3144,2.3144,2.3144,2.3037,2.2842,2.2734,2.2637,2.2422,2.2041,2.1475,2.0986,2.0723,2.0576,2.0576,2.0576,2.0586,2.0625,2.0596,2.0586,2.0576,2.0576,2.0576,2.0586,2.0596,2.0664,2.0752,2.0977,2.1221,2.1787,2.2266,2.2598,2.2842,2.2881,2.2891,2.2959,2.2949,2.0644,2.0644,2.0576,2.0576,2.0576,2.0576,2.0576,2.0576,2.0576,2.0576,2.0576,2.0625,2.0635,2.0625,2.0742,2.0771,2.0879,2.1094,2.1377,2.1338,2.1562,2.1777,2.1758,2.1523,2.1318,2.1279,2.1289,2.1289,2.1406,2.1797,2.2373,2.3047,2.2783,2.2754,2.2998,2.3037,2.2969,2.2861,2.2607,2.2402,2.2129,2.2002,2.1953,2.2041,2.206,2.2012,2.1963,2.1885,2.1738,2.1445,2.1289,2.1309,2.1406,2.166,2.207,2.2334,2.2539,2.2764,2.2959,2.3105,2.3125,2.3144,2.3144,2.3144,2.3144,2.3144,2.3144,2.3144,2.3144,2.3144,2.3144,2.3144,2.3144,2.3144,2.3144,2.3144,2.3144,2.3144,2.3144,2.3144,2.3144,2.3144,2.3125,2.2959,2.2939,2.293,2.2697,2.2366,2.207,2.1374,2.1152,2.0889,2.0918,2.0947,2.0771,2.0771,2.0654,2.0615,2.0625,2.0703,2.0801,2.0732,2.0625,2.0703,2.081,2.1113,2.1435,2.1982,2.2422,2.2695,2.291,2.3076,2.3135,2.3028,2.2949,2.0576,2.0576,2.0576,2.0576,2.0576,2.0576,2.0576,2.0576,2.0576,2.0576,2.0625,2.0859,2.0879,2.0684,2.1191,2.1279,2.1172,2.1494,2.1885,2.1953,2.207,2.2197,2.2236,2.1943,2.1758,2.1728,2.1728,2.1758,2.1894,2.2178,2.2422,2.2695,2.2744,2.3037,2.3125,2.3144,2.3135,2.3038,2.3008,2.2871,2.2734,2.2539,2.2461,2.2666,2.2783,2.2578,2.248,2.2344,2.2109,2.1816,2.1758,2.1738,2.1748,2.2139,2.2373,2.2539,2.2793,2.2988,2.3076,2.3144,2.3144,2.3144,2.3144,2.3144,2.3144,2.3144,2.3144,2.3144,2.3144,2.3144,2.3144,2.3144,2.3144,2.3144,2.3144,2.3144,2.3144,2.3144,2.3144,2.3144,2.3144,2.3144,2.3144,2.3144,2.3144,2.2911,2.265,2.2457,2.238,2.1955,2.1826,2.1666,2.1592,2.1514,2.123,2.1055,2.1006,2.084,2.0801,2.0898,2.1035,2.1055,2.1045,2.084,2.0879,2.1289,2.1719,2.2129,2.2519,2.2803,2.2872,2.3018,2.2969,2.2969,2.2833,2.0576,2.0576,2.0576,2.0576,2.0605,2.0781,2.0762,2.0625,2.0781,2.0742,2.0596,2.081,2.0889,2.084,2.1406,2.1582,2.1416,2.1904,2.2187,2.2353,2.2519,2.2637,2.2549,2.2363,2.2227,2.2158,2.2187,2.2246,2.2402,2.2607,2.2803,2.2812,2.3057,2.3144,2.3144,2.3144,2.3144,2.3135,2.3144,2.3144,2.3144,2.2949,2.2861,2.3105,2.3086,2.2949,2.292,2.2773,2.2539,2.2295,2.2178,2.2168,2.2256,2.2559,2.2754,2.2852,2.2988,2.3144,2.3144,2.3144,2.3144,2.3144,2.3144,2.3144,2.3144,2.3144,2.3144,2.3144,2.3144,2.3144,2.3144,2.3144,2.3144,2.3144,2.3144,2.3144,2.3144,2.3144,2.3144,2.3144,2.3144,2.3144,2.3144,2.3144,2.3144,2.3047,2.2795,2.2785,2.265,2.2544,2.238,2.2301,2.2142,2.1953,2.1631,2.1504,2.1455,2.1269,2.1055,2.1269,2.1475,2.1504,2.1465,2.1309,2.1338,2.168,2.209,2.2393,2.2676,2.2959,2.2969,2.2862,2.2784,2.2511,2.2026,2.0605,2.0654,2.0664,2.0693,2.0781,2.1143,2.1123,2.0869,2.1143,2.1162,2.0937,2.0869,2.0977,2.1123,2.1396,2.1396,2.1611,2.2139,2.2451,2.2715,2.293,2.2949,2.2891,2.2773,2.2646,2.2598,2.2607,2.2783,2.2988,2.3057,2.3057,2.3125,2.3144,2.3144,2.3144,2.3144,2.3144,2.3144,2.3144,2.3144,2.3144,2.3144,2.3125,2.3125,2.3144,2.3144,2.3144,2.3018,2.2822,2.2773,2.2598,2.2588,2.2646,2.2871,2.2978,2.3076,2.3076,2.3144,2.3144,2.3144,2.3144,2.3144,2.3144,2.3144,2.3144,2.3144,2.3144,2.3144,2.3144,2.3144,2.3144,2.3144,2.3144,2.3144,2.3144,2.3144,2.3144,2.3144,2.3144,2.3144,2.3144,2.3144,2.3144,2.3144,2.3144,2.3144,2.3144,2.3144,2.3018,2.294,2.2737,2.2687,2.2598,2.2314,2.2031,2.1943,2.1914,2.1689,2.1523,2.1738,2.1894,2.1904,2.1885,2.1816,2.1914,2.2119,2.2314,2.2578,2.2852,2.2911,2.3027,2.2782,2.1621,2.1266,2.0764,2.0781,2.1103,2.1103,2.1299,2.1602,2.1719,2.1709,2.165,2.1709,2.1875,2.1904,2.1709,2.1553,2.1289,2.2012,2.2197,2.2119,2.25,2.2764,2.3037,2.3076,2.3115,2.3105,2.2988,2.3008,2.2978,2.2959,2.3066,2.3144,2.3144,2.3144,2.3144,2.3144,2.3144,2.3144,2.3144,2.3144,2.3144,2.3144,2.3144,2.3144,2.3144,2.3144,2.3144,2.3144,2.3144,2.3066,2.2793,2.2842,2.2939,2.2998,2.2969,2.2998,2.3047,2.3115,2.3144,2.3144,2.3144,2.3144,2.3144,2.3144,2.3144,2.3144,2.3144,2.3144,2.3144,2.3144,2.3144,2.3144,2.3144,2.3144,2.3144,2.3144,2.3144,2.3144,2.3144,2.3144,2.3144,2.3144,2.3144,2.3144,2.3144,2.3144,2.3144,2.3144,2.3144,2.3144,2.3144,2.3144,2.3144,2.3144,2.3027,2.2891,2.2734,2.248,2.2402,2.2324,2.21,2.1973,2.2129,2.2236,2.2285,2.2256,2.2236,2.2285,2.2432,2.2627,2.2611,2.266,2.2784,2.2977,2.264,2.1239,1.9825,1.9026]},{"header":{"parameterUnit":"m.s-1","parameterCategory":1,"la1":31.0,"la2":29.5877,"lo1":-88.7671,"lo2":-86.6584,"dy":0.0162,"dx":0.0185,"nx":115,"ny":88,"refTime":"2023-09-23T00:00:00:Z","depth":0,"parameterNumber":3,"parameterNumberName":"V-component_of_WINDS"},"data":[0.0,0.0,0.0,0.0,0.0,0.0,0.0,0.0,0.0,0.0,0.0,0.0,0.0,0.0,0.0,0.0,0.0,0.0,0.0,0.0,0.0,0.0,0.0,0.0,0.0,0.0,0.0,0.0,0.0,0.0,0.0,0.0,0.0,0.0,0.0,0.0,0.0,0.0,0.0,0.0,0.0,0.0,0.0,0.0,0.0,0.0,0.0,0.0,0.0,0.0,0.0,0.0,0.0,0.0,0.0,0.0,0.0,0.0,0.0,0.0,0.0,0.0,0.0,0.0,0.0,0.0,0.0,0.0,0.0,0.0,0.0,0.0,0.0,0.0,0.0,0.0,0.0,0.0,0.0,0.0,0.0,0.0,0.0,0.0,0.0,0.0,0.0,0.0,0.0,0.0,0.0,0.0,0.0,0.0,0.0,0.0,0.0,0.0,0.0,0.0,0.0,0.0,0.0,0.0,0.0,0.0,0.0,0.0,0.0,0.0,0.0,0.0,0.0,0.0,0.0,0.0,0.0,0.0,0.0,0.0,0.0,0.0,0.0,0.0,0.0,0.0,0.0,0.0,0.0,0.0,0.0,0.0,0.0,0.0,0.0,0.0,0.0,0.0,0.0,0.0,0.0,0.0,0.0,0.0,0.0,0.0,0.0,0.0,0.0,0.0,0.0,0.0,0.0,0.0,0.0,0.0,0.0,0.0,0.0,0.0,0.0,0.0,0.0,0.0,0.0,0.0,0.0,0.0,0.0,0.0,0.0,0.0,0.0,0.0,0.0,0.0,0.0,0.0,0.0,0.0,0.0,0.0,0.0,0.0,0.0,0.0,0.0,0.0,0.0,0.0,0.0,0.0,0.0,0.0,0.0,0.0,0.0,0.0,0.0,0.0,0.0,0.0,0.0,0.0,0.0,0.0,0.0,0.0,0.0,0.0,0.0,0.0,0.0,0.0,0.0,0.0,0.0,0.0,0.0,0.0,0.0,0.0,0.0,0.0,0.0,0.0,0.0,0.0,0.0,0.0,0.0,0.0,0.0,0.0,0.0,0.0,0.0,0.0,0.0,0.0,0.0,0.0,0.0,0.0,0.0,0.0,0.0,0.0,0.0,0.0,0.0,0.0,0.0,0.0,0.0,0.0,0.0,0.0,0.0,0.0,0.0,0.0,0.0,0.0,0.0,0.0,0.0,0.0,0.0,0.0,0.0,0.0,0.0,0.0,0.0,0.0,0.0,0.0,0.0,0.0,0.0,0.0,0.0,0.0,0.0,0.0,0.0,0.0,0.0,0.0,0.0,0.0,0.0,0.0,0.0,0.0,0.0,0.0,0.0,0.0,0.0,0.0,0.0,0.0,0.0,0.0,0.0,0.0,0.0,0.0,0.0,0.0,0.0,0.0,0.0,0.0,0.0,0.0,0.0,0.0,0.0,0.0,0.0,0.0,0.0,0.0,0.0,0.0,0.0,0.0,0.0,0.0,0.0,0.0,0.0,0.0,0.0,0.0,0.0,0.0,0.0,0.0,0.0,0.0,0.0,0.0,0.0,0.0,0.0,0.0,0.0,0.0,0.0,0.0,0.0,0.0,0.0,0.0,0.0,0.0,0.0,0.0,0.0,0.0,0.0,0.0,0.0,0.0,0.0,0.0,0.0,0.0,0.0,0.0,0.0,0.0,0.0,0.0,0.0,0.0,0.0,0.0,0.0,0.0,0.0,0.0,0.0,0.0,0.0,0.0,0.0,0.0,0.0,0.0,0.0,0.0,0.0,0.0,0.0,0.0,0.0,0.0,0.0,0.0,0.0,0.0,0.0,0.0,0.0,0.0,0.0,0.0,0.0,0.0,0.0,0.0,0.0,0.0,0.0,0.0,0.0,0.0,0.0,0.0,0.0,0.0,0.0,0.0,0.0,0.0,0.0,0.0,0.0,0.0,0.0,0.0,0.0,0.0,0.0,0.0,0.0,0.0,0.0,0.0,0.0,0.0,0.0,0.0,0.0,0.0,0.0,0.0,0.0,0.0,0.0,0.0,0.0,0.0,0.0,0.0,0.0,0.0,0.0,0.0,0.0,0.0,0.0,0.0,0.0,0.0,0.0,0.0,0.0,0.0,0.0,0.0,0.0,0.0,0.0,0.0,0.0,0.0,0.0,0.0,0.0,0.0,0.0,0.0,0.0,0.0,0.0,0.0,0.0,0.0,0.0,0.0,0.0,0.0,0.0,0.0,0.0,0.0,0.0,0.0,0.0,0.0,0.0,0.0,0.0,0.0,0.0,0.0,0.0,0.0,0.0,0.0,0.0,0.0,0.0,0.0,0.0,0.0,0.0,0.0,0.0,0.0,0.0,0.0,0.0,0.0,0.0,0.0,0.0,0.0,0.0,0.0,0.0,0.0,0.0,0.0,0.0,0.0,0.0,0.0,0.0,0.0,0.0,0.0,0.0,0.0,0.0,0.0,0.0,0.0,0.0,0.0,0.0,0.0,0.0,0.0,0.0,0.0,0.0,0.0,0.0,0.0,0.0,0.0,0.0,0.0,0.0,0.0,0.0,0.0,0.0,0.0,0.0,0.0,0.0,0.0,0.0,0.0,0.0,0.0,0.0,0.0,0.0,0.0,0.0,0.0,0.0,0.0,0.0,0.0,0.0,0.0,0.0,0.0,0.0,0.0,0.0,0.0,0.0,0.0,0.0,0.0,0.0,0.0,0.0,0.0,0.0,0.0,0.0,0.0,0.0,0.0,0.0,0.0,0.0,0.0,0.0,0.0,0.0,0.0,0.0,0.0,0.0,0.0,0.0,0.0,0.0,0.0,0.0,0.0,0.0,0.0,0.0,0.0,0.0,0.0,0.0,0.0,0.0,0.0,0.0,0.0,0.0,0.0,0.0,0.0,0.0,0.0,0.0,0.0,0.0,0.0,0.0,0.0,0.0,0.0,0.0,0.0,0.0,0.0,0.0,0.0,0.0,0.0,0.0,0.0,0.0,0.0,0.0,0.0,0.0,0.0,0.0,0.0,0.0,0.0,0.0,0.0,0.0,0.0,0.0,0.0,0.0,0.0,0.0,0.0,0.0,0.0,0.0,0.0,0.0,0.0,0.0,0.0,0.0,0.0,0.0,0.0,0.0,0.0,0.0,0.0,0.0,0.0,0.0,0.0,0.0,0.0,0.0,0.0,0.0,0.0,0.0,0.0,0.0,0.0,0.0,0.0,0.0,0.0,0.0,0.0,0.0,0.0,0.0,0.0,0.0,0.0,0.0,0.0,0.0,0.0,0.0,0.0,0.0,0.0,0.0,0.0,0.0,0.0,0.0,0.0,0.0,0.0,0.0,0.0,0.0,0.0,0.0,0.0,0.0,0.0,0.0,0.0,0.0,0.0,0.0,0.0,0.0,0.0,0.0,0.0,0.0,0.0,0.0,0.0,0.0,0.0,0.0,0.0,0.0,0.0,0.0,0.0,0.0,0.0,0.0,0.0,0.0,0.0,0.0,0.0,0.0,0.0,0.0,0.0,0.0,0.0,0.0,0.0,0.0,0.0,0.0,0.0,0.0,0.0,0.0,0.0,0.0,0.0,0.0,0.0,0.0,0.0,0.0,0.0,0.0,0.0,0.0,0.0,0.0,0.0,0.0,0.0,0.0,0.0,0.0,0.0,0.0,0.0,0.0,0.0,0.0,0.0,0.0,0.0,0.0,0.0,0.0,0.0,0.0,0.0,0.0,0.0,0.0,0.0,0.0,0.0,0.0,0.0,0.0,0.0,0.0,0.0,0.0,0.0,0.0,0.0,0.0,0.0,0.0,0.0,0.0,0.0,0.0,0.0,0.0,0.0,0.0,0.0,0.0,0.0,0.0,0.0,0.0,0.0,0.0,0.0,0.0,0.0,0.0,0.0,0.0,0.0,0.0,0.0,0.0,0.0,0.0,0.0,0.0,0.0,0.0,0.0,0.0,0.0,0.0,0.0,0.0,0.0,0.0,0.0,0.0,0.0,0.0,0.0,0.0,0.0,0.0,0.0,0.0,0.0,0.0,0.0,0.0,0.0,0.0,0.0,0.0,0.0,0.0,0.0,0.0,0.0,0.0,0.0,0.0,0.0,0.0,0.0,0.0,0.0,0.0,0.0,0.0,0.0,0.0,0.0,0.0,0.0,0.0,0.0,0.0,0.0,0.0,0.0,0.0,0.0,0.0,0.0,0.0,0.0,0.0,0.0,0.0,0.0,0.0,0.0,0.0,0.0,0.0,0.0,0.0,0.0,0.0,0.0,0.0,0.0,0.0,0.0,0.0,0.0,-0.331,0.0,0.0,0.0,0.0,0.0,0.0,0.0,0.0,0.0,0.0,0.0,0.0,0.0,0.0,0.0,0.0,0.0,0.0,0.0,0.0,0.0,0.0,0.0,0.0,0.0,0.0,0.0,0.0,0.0,0.0,0.0,0.0,0.0,0.0,0.0,0.0,0.0,0.0,0.0,0.0,0.0,0.0,0.0,0.0,0.0,0.0,0.0,0.0,0.0,0.0,0.0,0.0,0.0,0.0,0.0,0.0,0.0,0.0,0.0,0.0,0.0,0.0,0.0,0.0,0.0,0.0,0.0,0.0,0.0,0.0,0.0,0.0,0.0,0.0,0.0,0.0,0.0,0.0,0.0,0.0,0.0,0.0,0.0,0.0,0.0,0.0,0.0,0.0,0.0,0.0,0.0,0.0,0.0,0.0,0.0,0.0,0.0,0.0,0.0,0.0,0.0,0.0,0.0,0.0,0.0,0.0,0.0,0.0,0.0,0.0,-0.3201,-0.2304,-0.0916,-0.0151,-0.015,0.0,0.0,0.0,0.0,0.0,0.0,0.0,0.0,0.0,0.0,0.0,0.0,0.0,0.0,0.0,0.0,0.0,0.0,0.0,0.0,0.0,0.0,0.0,0.0,0.0,0.0,0.0,0.0,0.0,0.0,0.0,0.0,0.0,0.0,0.0,0.0,0.0,0.0,0.0,0.0,0.0,0.0,0.0,0.0,0.0,0.0,0.0,0.0,0.0,0.0,0.0,0.0,0.0,0.0,0.0,0.0,0.0,0.0,0.0,0.0,0.0,0.0,0.0,0.0,0.0,0.0,0.0,0.0,0.0,0.0,0.0,0.0,0.0,0.0,0.0,0.0,0.0,0.0,0.0,0.0,0.0,0.0,0.0,0.0,0.0,0.0,0.0,0.0,0.0,0.0,0.0,0.0,0.0,0.0,0.0,0.0,0.0,0.0,0.0,0.0,0.0,0.0,0.0,0.0,0.0,0.0,0.0,0.0,0.0,0.0,0.0,0.0,0.0987,0.2549,0.2646,0.0,0.0,0.0,0.0,0.0,0.0,0.0,0.0,0.0,0.0,0.0,0.0,0.0,0.0,0.0,0.0,0.0,0.0,0.0,0.0,0.0,0.0,0.0,0.0,0.0,0.0,0.0,0.0,0.0,0.0,0.0,0.0,0.0,0.0,0.0,0.0,0.0,0.0,0.0,0.0,0.0,0.0,0.0,0.0,0.0,0.0,0.0,0.0,0.0,0.0,0.0,0.0,0.0,0.0,0.0,0.0,0.0,0.0,0.0,0.0,0.0,0.0,0.0,0.0,0.0,0.0,0.0,0.0,0.0,0.0,0.0,0.0,0.0,0.0,0.0,0.0,0.0,0.0,0.0,0.0,0.0,0.0,0.0,0.0,0.0,0.0,0.0,0.0,0.0,0.0,0.0,0.0,0.0,0.0,0.0,0.0,0.0,0.0,0.0,0.0,0.0,0.0,0.0,0.0,0.0,0.0,0.0,0.0,0.0,0.0,-0.0111,0.0891,0.1534,0.0,0.2585,0.0,0.0,0.0,0.0,0.0,0.0,0.0,0.0,0.0,0.0,0.0,0.0,0.0,0.0,0.0,0.0,0.0,0.0,0.0,0.0,0.0,0.0,0.0,0.0,0.0,0.0,0.0,0.0,0.0,0.0,0.0,0.0,0.0,0.0,0.0,0.0,0.0,0.0,0.0,0.0,0.0,0.0,0.0,0.0,0.0,0.0,0.0,0.0,0.0,0.0,0.0,0.0,0.0,0.0,0.0,0.0,0.0,0.0,0.0,0.0,0.0,0.0,0.0,0.0,0.0,0.0,0.0,0.0,0.0,0.0,0.0,0.0,0.0,0.0,0.0,0.0,0.0,0.0,0.0,0.0,0.0,0.0,0.0,0.0,0.0,0.0,0.0,0.0,0.0,0.0,0.0,0.0,0.0,0.0,0.0,0.0,0.0,0.0,0.0,0.0,0.0,0.0,0.0,0.0,0.0,0.0,0.0,0.0,0.0,0.0,0.1886,0.2366,0.2464,0.2585,0.0,0.0,0.0,0.0,0.0,0.0,0.0,0.0,0.0,0.0,0.0,0.0,0.0,0.0,0.0,0.0,0.0,0.0,0.0,0.0,0.0,0.0,0.0,0.0,0.0,0.0,0.0,0.0,0.0,0.0,0.0,0.0,0.0,0.0,0.0,0.0,0.0,0.0,0.0,0.0,0.0,0.0,0.0,0.0,0.0,0.0,0.0,0.0,0.0,0.0,0.0,0.0,0.0,0.0,0.0,0.0,0.0,0.0,0.0,0.0,0.0,0.0,0.0,0.0,0.0,0.0,0.0,0.0,0.0,0.0,0.0,0.0,0.0,0.0,0.0,0.0,0.0,0.0,0.0,0.0,0.0,0.0,0.0,0.0,0.0,0.0,0.0,0.0,0.0,0.0,0.0,0.0,0.0,0.0,0.0,0.0,0.0,0.0,0.0,0.0,0.0,0.0,0.0,0.0,0.0,0.0,0.0,0.0,0.0,0.0,0.2287,0.3018,0.3057,0.2983,0.2853,0.2761,0.0,0.0,0.0,0.0,0.0,0.0,0.0,0.0,0.0,0.0,0.0,0.0,0.0,0.0,0.0,0.0,0.0,0.0,0.0,0.0,0.0,0.0,0.0,0.0,0.0,0.0,0.0,0.0,0.0,0.0,0.0,0.0,0.0,0.0,0.0,0.0,0.0,0.0,0.0,0.0,0.0,0.0,0.0,0.0,0.0,0.0,0.0,0.0,0.0,0.0,0.0,0.0,0.0,0.0,0.0,0.0,0.0,0.0,0.0,0.0,0.0,0.0,0.0,0.0,0.0,0.0,0.0,0.0,0.0,0.0,0.0,0.0,0.0,0.0,0.0,0.0,0.0,0.0,0.0,0.0,0.0,0.0,0.0,0.0,0.0,0.0,0.0,0.0,0.0,0.0,0.0,0.0,0.0,0.0,0.0,0.0,0.0,0.0,0.0,0.0,0.0,0.0,0.0,0.0,0.0,0.0,0.0,0.0,0.3051,0.2877,0.2798,0.2896,0.2768,0.2757,0.0,0.0,0.0,0.0,0.0,0.0,0.0,0.0,0.0,0.0,0.0,0.0,0.0,0.0,0.0,0.0,0.0,0.0,0.0,0.0,0.0,0.0,0.0,0.0,0.0,0.0,0.0,0.0,0.0,0.0,0.0,0.0,0.0,0.0,0.0,0.0,0.0,0.0,0.0,0.0,0.0,0.0,0.0,0.0,0.0,0.0,0.0,0.0,0.0,0.0,0.0,0.0,0.0,0.0,0.0,0.0,0.0,0.0,0.0,0.0,0.0,0.0,0.0,0.0,0.0,0.0,0.0,0.0,0.0,0.0,0.0,0.0,0.0,0.0,0.0,0.0,0.0,0.0,0.0,0.0,0.0,0.0,0.0,0.0,0.0,0.0,0.0,0.0,0.0,0.0,0.0,0.0,0.0,0.0,0.0,0.0,0.0,0.0,0.0,0.0,0.0,0.0,0.0,0.0,0.0,0.0,0.0,0.0,0.0,0.2888,0.2877,0.2947,0.3136,0.2936,0.2944,0.0,0.0,0.0,0.0,0.0,0.0,0.0,0.0,0.0,0.0,0.0,0.0,0.0,0.0,0.0,0.0,0.0,0.0,0.0,0.0,0.0,0.0,0.0,0.0,0.0,0.0,0.0,0.0,0.0,0.0,0.0,0.0,0.0,0.0,0.0,0.0,0.0,0.0,0.0,0.0,0.0,0.0,0.0,0.0,0.0,0.0,0.0,0.0,0.0,0.0,0.0,0.0,0.0,0.0,0.0,0.0,0.0,0.0,0.0,0.0,0.0,0.0,0.0,0.0,0.0,0.0,0.0,0.0,0.0,0.0,0.0,0.0,0.0,0.0,0.0,0.0,0.0,0.0,0.0,0.0,0.0,0.0,0.0,0.0,0.0,0.0,0.0,0.0,0.0,0.0,0.0,0.0,0.0,0.0,0.0,0.0,0.0,0.0,0.0,0.0,0.0,0.0,0.0,0.0,0.0,0.0,0.0,0.0,0.0,0.2893,0.0,0.3387,0.3508,0.3356,0.3364,0.0,0.0,0.0,0.0,0.0,0.0,0.0,0.0,0.0,0.0,0.0,0.0,0.0,0.0,0.0,0.0,0.0,0.0,0.0,0.0,0.0,0.0,0.0,0.0,0.0,0.0,0.0,0.0,0.0,0.0,0.0,0.0,0.0,0.0,0.0,0.0,0.0,0.0,0.0,0.0,0.0,0.0,0.0,0.0,0.0,0.0,0.0,0.0,0.0,0.0,0.0,0.0,0.0,0.0,0.0,0.0,0.0,0.0,0.0,0.0,0.0,0.0,0.0,0.0,0.0,0.0,0.0,0.0,0.0,0.0,0.0,0.0,0.0,0.0,0.0,0.0,0.0,0.0,0.0,0.0,0.0,0.0,0.0,0.0,0.0,0.0,0.0,0.0,0.0,0.0,0.0,0.0,0.0,0.0,0.0,0.0,0.0,0.0,0.0,0.0,0.0,0.0,0.0,0.0,0.0,0.0,0.0,0.0,0.2907,0.3298,0.3873,0.4078,0.3999,0.3961,0.3993,0.0,0.0,0.0,0.0,0.0,0.0,0.0,0.0,0.0,0.0,0.0,0.0,0.0,0.0,0.0,0.0,0.0,0.0,0.0,0.0,0.0,0.0,0.0,0.0,0.0,0.0,0.0,0.0,0.0,0.0,0.0,0.0,0.0,0.0,0.0,0.0,0.0,0.0,0.0,0.0,0.0,0.0,0.0,0.0,0.0,0.0,0.0,0.0,0.0,0.0,0.0,0.0,0.0,0.0,0.0,0.0,0.0,0.0,0.0,0.0,0.0,0.0,0.0,0.0,0.0,0.0,0.0,0.0,0.0,0.0,0.0,0.0,0.0,0.0,0.0,0.0,0.0,0.0,0.0,0.0,0.0,0.0,0.0,0.0,0.0,0.0,0.0,0.0,0.0,0.0,0.0,0.0,0.0,0.0,0.0,0.0,0.0,0.0,0.0,0.0,0.0,0.0,0.0,0.0,0.0,0.0,0.0,0.0,0.0,0.3788,0.3734,0.3956,0.436,0.3925,0.3884,0.0,0.0,0.0,0.0,0.0,0.0,0.0,0.0,0.0,0.0,0.0,0.0,0.0,0.0,0.0,0.0,0.0,0.0,0.0,0.0,0.0,0.0,0.0,0.0,0.0,0.0,0.0,0.0,0.0,0.0,0.0,0.0,0.0,0.0,0.0,0.0,0.0,0.0,0.0,0.0,0.0,0.0,0.0,0.0,0.0,0.0,0.0,0.0,0.0,0.0,0.0,0.0,0.0,0.0,0.0,0.0,0.0,0.0,0.0,0.0,0.0,0.0,0.0,0.0,0.0,0.0,0.0,0.0,0.0,0.0,0.0,0.0,0.0,0.0,0.0,0.0,0.0,0.0,0.0,0.0,0.0,0.0,0.0,0.0,0.0,0.0,0.0,0.0,0.0,0.0,0.0,0.0,0.0,0.0,0.0,0.0,0.0,0.0,0.0,0.0,0.0,0.0,0.0,0.0,0.0,0.0,0.0,0.0,0.0,0.4808,0.462,0.4713,0.5193,0.4751,0.4619,0.4858,0.0,0.0,0.0,0.0,0.0,0.0,0.0,0.0,0.0,0.0,0.0,0.0,0.0,0.0,0.0,0.0,0.0,0.0,0.0,0.0,0.0,0.0,0.0,0.0,0.0,0.0,0.0,0.0,0.0,0.0,0.0,0.0,0.0,0.0,0.0,0.0,0.0,0.0,0.0,0.0,0.0,0.0,0.0,0.0,0.0,0.0,0.0,0.0,0.0,0.0,0.0,0.0,0.0,0.0,0.0,0.0,0.0,0.0,0.0,0.0,0.0,0.0,0.0,0.0,0.0,0.0,0.0,0.0,0.0,0.0,0.0,0.0,0.0,0.0,0.0,0.0,0.0,0.0,0.0,0.0,0.0,0.0,0.0,0.0,0.0,0.0,0.0,0.0,0.0,0.0,0.0,0.0,0.0,0.0,0.0,0.0,0.0,0.0,0.0,0.0,0.0,0.0,0.0,0.0,0.0,0.0,0.0,0.0,0.6375,0.6395,0.6351,0.6236,0.6176,0.5914,0.0,0.0,0.0,0.0,0.0,0.0,0.0,0.0,0.0,0.0,0.0,0.0,0.0,0.0,0.0,0.0,0.0,0.0,0.0,0.0,0.0,0.0,0.0,0.0,0.0,0.0,0.0,0.0,0.0,0.0,0.0,0.0,0.0,0.0,0.0,0.0,0.0,0.0,0.0,0.0,0.0,0.0,0.0,0.0,0.0,0.0,0.0,0.0,0.0,0.0,0.0,0.0,0.0,0.0,0.0,0.0,0.0,0.0,0.0,0.0,0.0,0.0,0.0,0.0,0.0,0.0,0.0,0.0,0.0,0.0,0.0,0.0,0.0,0.0,0.0,0.0,0.0,0.0,0.0,0.0,0.0,0.0,0.0,0.0,0.0,0.0,0.0,0.0,0.0,0.0,0.0,0.0,0.0,0.0,0.0,0.0,0.0,0.0,0.0,0.0,0.0,0.0,0.0,0.0,0.0,0.0,0.0,0.0,0.0,0.8421,0.8784,0.8242,0.6841,0.6166,0.59,0.0,0.0,0.0,0.0,0.0,0.0,0.0,0.0,0.0,0.0,0.0,0.0,0.0,0.0,0.0,0.0,0.0,0.0,0.0,0.0,0.0,0.0,0.0,0.0,0.0,0.0,0.0,0.0,0.0,0.0,0.0,0.0,0.0,0.0,0.0,0.0,0.0,0.0,0.0,0.0,0.0,0.0,0.0,0.0,0.0,0.0,0.0,0.0,0.0,0.0,0.0,0.0,0.0,0.0,0.0,0.0,0.0,0.0,0.0,0.0,0.0,0.0,0.0,0.0,0.0,0.0,0.0,0.0,0.0,0.0,0.0,0.0,0.0,0.0,0.0,0.0,0.0,0.0,0.0,0.0,0.0,0.0,0.0,0.0,0.0,0.0,0.0,0.0,0.0,0.0,0.0,0.0,0.0,0.0,0.0,0.0,0.0,0.0,0.0,0.0,0.0,0.0,0.0,0.0,0.0,0.0,0.0,0.0,0.7991,0.9281,0.9948,0.9761,0.8624,0.7546,0.6841,0.0,0.0,0.0,0.0,0.0,0.0,0.0,0.0,0.0,0.0,0.0,0.0,0.0,0.0,0.0,0.0,0.0,0.0,0.0,0.0,0.0,0.0,0.0,0.0,0.0,0.0,0.0,0.0,0.0,0.0,0.0,0.0,0.0,0.0,0.0,0.0,0.0,0.0,0.0,0.0,0.0,0.0,0.0,0.0,0.0,0.0,0.0,0.0,0.0,0.0,0.0,0.0,0.0,0.0,0.0,0.0,0.0,0.0,0.0,0.0,0.0,0.0,0.0,0.0,0.0,0.0,0.0,0.0,0.0,0.0,0.0,0.0,0.0,0.0,0.0,0.0,0.0,0.0,0.0,0.0,0.0,0.0,0.0,0.0,0.0,0.0,0.0,0.0,0.0,0.0,0.0,0.0,0.0,0.0,0.0,0.0,0.0,0.0,0.0,0.0,0.0,0.0,0.0,0.0,0.0,0.0,0.0,0.0,0.8399,0.958,1.0542,1.1023,1.0981,0.9514,0.8252,0.0,0.0,0.0,0.0,0.0,0.0,0.0,0.0,0.0,0.0,0.0,0.0,0.0,0.0,0.0,0.0,0.0,0.0,0.0,0.0,0.0,0.0,0.0,0.0,0.0,0.0,0.0,0.0,0.0,0.0,0.0,0.0,0.0,0.0,0.0,0.0,0.0,0.0,0.0,0.0,0.0,0.0,0.0,0.0,0.0,0.0,0.0,0.0,0.0,0.0,0.0,0.0,0.0,0.0,0.0,0.0,0.0,0.0,0.0,0.0,0.0,0.0,0.0,0.0,0.0,0.0,0.0,0.0,0.0,0.0,0.0,0.0,0.0,0.0,0.0,0.0,0.0,0.0,0.0,0.0,0.0,0.0,0.0,0.0,0.0,0.0,0.0,0.0,0.0,0.0,0.0,0.0,0.0,0.0,0.0,0.0,0.0,0.0,0.0,0.0,0.0,0.0,0.0,0.0,0.0,0.0,0.0,0.0,1.0017,1.1552,1.2158,1.2461,1.2452,1.0013,0.8448,0.0,0.0,0.0,0.0,0.0,0.0,0.0,0.0,0.0,0.0,0.0,0.0,0.0,0.0,0.0,0.0,0.0,0.0,0.0,0.0,0.0,0.0,0.0,0.0,0.0,0.0,0.0,0.0,0.0,0.0,0.0,0.0,0.0,0.0,0.0,0.0,0.0,0.0,0.0,0.0,0.0,0.0,0.0,0.0,0.0,0.0,0.0,0.0,1.789,0.0,0.0,0.0,0.0,0.0,0.0,0.0,0.0,0.0,0.0,0.0,0.0,0.0,0.0,0.0,0.0,0.0,0.0,0.0,0.0,0.0,0.0,0.0,0.0,0.0,0.0,0.0,0.0,0.0,0.0,0.0,0.0,0.0,0.0,0.0,0.0,0.0,0.0,0.0,0.0,0.0,0.0,0.0,0.0,0.0,0.0,0.0,0.0,0.0,0.0,0.0,0.0,0.0,0.0,0.0,0.0,0.0,0.0,0.0,1.0681,1.2151,1.2656,1.2891,1.2832,1.1034,0.9692,0.0,0.0,0.0,0.0,0.0,0.0,0.0,0.0,0.0,0.0,0.0,0.0,0.0,0.0,0.0,0.0,0.0,0.0,0.0,0.0,0.0,0.0,0.0,0.0,0.0,0.0,0.0,0.0,0.0,0.0,0.0,0.0,0.0,0.0,0.0,0.0,0.0,0.0,0.0,0.0,0.0,0.0,0.0,0.0,0.0,0.0,0.0,0.0,0.0,0.0,0.0,0.0,0.0,0.0,0.0,0.0,0.0,0.0,0.0,0.0,0.0,0.0,0.0,0.0,0.0,0.0,0.0,0.0,0.0,0.0,0.0,0.0,0.0,0.0,0.0,0.0,0.0,0.0,0.0,0.0,0.0,0.0,0.0,0.0,0.0,0.0,0.0,0.0,0.0,0.0,0.0,0.0,0.0,0.0,0.0,0.0,0.0,0.0,0.0,0.0,0.0,0.0,0.0,0.0,0.0,0.0,0.0,0.995,1.0956,1.2239,1.2695,1.2891,1.2861,1.2067,1.1026,0.9823,0.0,0.0,0.0,0.0,0.0,0.0,0.0,0.0,0.0,0.0,0.0,0.0,0.0,0.0,0.0,0.0,0.0,0.0,0.0,0.0,0.0,0.0,0.0,0.0,0.0,0.0,0.0,0.0,0.0,0.0,0.0,0.0,0.0,0.0,0.0,0.0,0.0,0.0,1.4318,1.5876,0.0,0.0,0.0,0.0,0.0,0.0,0.0,0.0,1.8852,0.0,0.0,0.0,0.0,0.0,0.0,0.0,0.0,0.0,0.0,0.0,0.0,0.0,0.0,0.0,0.0,0.0,0.0,0.0,0.0,0.0,0.0,0.0,0.0,0.0,0.0,0.0,0.0,0.0,0.0,0.0,0.0,0.0,0.0,0.0,0.0,0.0,0.0,0.0,0.0,0.0,0.0,0.0,0.0,0.0,0.0,0.0,0.0,0.0,0.0,0.0,0.0,0.0,0.0,0.0,0.0,1.0543,1.0409,1.112,1.2725,1.2842,1.2891,1.2861,1.2067,1.1152,1.0225,0.0,0.0,0.0,0.0,0.0,0.0,0.0,0.0,0.0,0.0,0.0,0.0,0.0,0.0,0.0,0.0,0.0,0.0,0.0,0.0,0.0,0.0,0.0,0.0,0.0,0.0,0.0,0.0,0.0,0.0,0.0,0.0,0.0,0.0,0.0,0.0,0.0,0.0,0.0,1.6346,1.6993,0.0,0.0,0.0,0.0,0.0,0.0,0.0,0.0,1.9555,0.0,0.0,0.0,0.0,0.0,0.0,0.0,0.0,0.0,0.0,0.0,0.0,0.0,0.0,0.0,0.0,0.0,0.0,0.0,0.0,0.0,0.0,0.0,0.0,0.0,0.0,0.0,0.0,0.0,0.0,0.0,0.0,0.0,0.0,0.0,0.0,0.0,0.0,0.0,0.0,0.0,0.0,0.0,0.0,0.0,0.0,0.0,0.0,0.0,0.0,0.0,0.0,0.0,0.0,0.0,1.083,1.1162,1.1816,1.2842,1.2891,1.2891,1.2871,1.2067,1.1302,0.0,0.0,0.0,0.0,0.0,0.0,0.0,0.0,0.0,0.0,0.0,0.0,0.0,0.0,0.0,0.0,0.0,0.0,0.0,0.0,0.0,0.0,0.0,0.0,0.0,0.0,0.0,0.0,0.0,0.0,0.0,0.0,0.0,0.0,0.0,0.0,0.0,0.0,0.0,0.0,1.7495,1.7952,1.9086,0.0,0.0,0.0,0.0,0.0,0.0,1.9705,1.9705,0.0,0.0,0.0,0.0,0.0,0.0,0.0,0.0,0.0,0.0,0.0,0.0,0.0,0.0,0.0,0.0,0.0,0.0,0.0,0.0,0.0,0.0,0.0,0.0,0.0,0.0,0.0,0.0,0.0,0.0,0.0,0.0,0.0,0.0,0.0,0.0,0.0,0.0,0.0,0.0,0.0,0.0,0.0,0.0,0.0,0.0,0.0,0.0,0.0,0.0,0.0,0.0,0.0,0.0,0.0,1.0857,1.1689,1.2353,1.2861,1.2891,1.2978,1.3035,1.1935,1.1256,0.0,0.0,0.0,0.0,0.0,0.0,0.0,0.0,0.0,0.0,0.0,0.0,0.0,0.0,0.0,0.0,0.0,0.0,0.0,0.0,0.0,0.0,0.0,0.0,0.0,0.0,0.0,0.0,0.0,0.0,0.0,0.0,0.0,0.0,0.0,0.0,0.0,0.0,0.0,0.0,0.0,1.8957,1.96,1.9705,0.0,0.0,0.0,0.0,1.9705,1.9705,0.0,0.0,0.0,0.0,0.0,0.0,0.0,0.0,0.0,0.0,0.0,0.0,0.0,0.0,0.0,0.0,0.0,0.0,0.0,0.0,0.0,0.0,0.0,0.0,0.0,0.0,0.0,0.0,0.0,0.0,0.0,0.0,0.0,0.0,0.0,0.0,0.0,0.0,0.0,0.0,0.0,0.0,0.0,0.0,0.0,0.0,0.0,0.0,0.0,0.0,0.0,0.0,0.0,0.0,0.0,0.0,1.0889,1.1387,1.2086,1.2832,1.2881,1.3152,1.3663,1.1608,1.0815,0.0,0.0,0.0,0.0,0.0,0.0,0.0,0.0,0.0,0.0,0.0,0.0,0.0,0.0,0.0,0.0,0.0,0.0,0.0,0.0,0.0,0.0,0.0,0.0,0.0,0.0,0.0,0.0,0.0,0.0,0.0,0.0,0.0,0.0,0.0,0.0,0.0,0.0,0.0,0.0,0.0,1.8942,1.9585,1.9705,1.9705,0.0,0.0,1.9705,1.9705,1.9705,0.0,0.0,0.0,0.0,0.0,0.0,0.0,0.0,0.0,0.0,0.0,0.0,0.0,0.0,0.0,0.0,0.0,0.0,0.0,0.0,0.0,0.0,0.0,0.0,0.0,0.0,0.0,0.0,0.0,0.0,0.0,0.0,0.0,0.0,0.0,0.0,0.0,0.0,0.0,0.0,0.0,0.0,0.0,0.0,0.0,0.0,0.0,0.0,0.0,0.0,0.0,0.0,0.0,0.0,0.0,1.1015,1.1312,1.2337,1.3011,1.3399,1.342,1.3684,1.4283,1.258,1.1786,0.0,0.0,0.0,0.0,0.0,0.0,0.0,0.0,0.0,0.0,0.0,0.0,0.0,0.0,0.0,0.0,0.0,0.0,0.0,0.0,0.0,0.0,0.0,0.0,0.0,0.0,0.0,0.0,0.0,0.0,0.0,0.0,0.0,0.0,0.0,0.0,0.0,0.0,0.0,0.0,0.0,0.0,1.9681,1.9705,0.0,0.0,0.0,1.9705,1.9705,0.0,0.0,0.0,0.0,0.0,0.0,0.0,0.0,0.0,0.0,0.0,0.0,0.0,0.0,0.0,0.0,0.0,0.0,0.0,0.0,0.0,0.0,0.0,0.0,0.0,0.0,0.0,0.0,0.0,0.0,0.0,0.0,0.0,0.0,0.0,0.0,0.0,0.0,0.0,0.0,0.0,0.0,0.0,0.0,0.0,0.0,0.0,0.0,0.0,0.0,0.0,0.0,0.0,0.0,0.0,0.0,0.0,1.1867,1.3261,1.4014,1.4014,1.4003,1.4329,1.4858,1.3565,0.0,0.0,0.0,0.0,0.0,0.0,0.0,0.0,0.0,0.0,0.0,0.0,0.0,0.0,0.0,0.0,0.0,0.0,0.0,0.0,0.0,0.0,0.0,0.0,0.0,0.0,0.0,1.5125,0.0,0.0,0.0,0.0,0.0,0.0,0.0,0.0,0.0,0.0,0.0,0.0,0.0,0.0,1.9705,1.9705,1.9705,1.9705,0.0,0.0,1.9705,1.9705,1.9705,1.9705,0.0,0.0,0.0,0.0,0.0,0.0,0.0,0.0,0.0,0.0,0.0,0.0,0.0,0.0,0.0,0.0,0.0,0.0,0.0,0.0,0.0,0.0,0.0,0.0,0.0,0.0,0.0,0.0,0.0,0.0,0.0,0.0,0.0,0.0,0.0,0.0,0.0,0.0,0.0,0.0,0.0,0.0,0.0,0.0,0.0,0.0,0.0,0.0,0.0,0.0,0.0,0.0,0.0,0.0,1.2457,1.2468,1.3893,1.4652,1.4652,1.4652,1.4926,1.5487,1.4136,1.3564,0.0,0.0,0.0,0.0,0.0,0.0,0.0,0.0,0.0,0.0,0.0,0.0,0.0,0.0,0.0,0.0,0.0,0.0,0.0,0.0,0.0,0.0,0.0,0.0,0.0,0.0,0.0,0.0,0.0,0.0,0.0,0.0,0.0,0.0,0.0,0.0,0.0,0.0,0.0,0.0,0.0,1.9705,1.9705,1.9705,1.9705,0.0,1.9705,1.9705,1.9705,1.9705,1.9705,1.9705,0.0,0.0,0.0,0.0,0.0,0.0,0.0,0.0,0.0,0.0,0.0,0.0,0.0,0.0,0.0,0.0,0.0,0.0,0.0,0.0,0.0,0.0,0.0,0.0,0.0,0.0,0.0,0.0,0.0,0.0,0.0,0.0,0.0,0.0,0.0,0.0,0.0,0.0,0.0,0.0,0.0,0.0,0.0,0.0,0.0,0.0,0.0,0.0,0.0,0.0,0.0,0.0,0.0,1.2998,1.2901,1.4429,1.5276,1.5231,1.5276,1.5555,1.6151,1.5301,1.4578,0.0,0.0,0.0,0.0,0.0,0.0,0.0,0.0,0.0,0.0,0.0,0.0,0.0,0.0,0.0,0.0,0.0,0.0,0.0,0.0,0.0,0.0,0.0,0.0,0.0,0.0,0.0,0.0,1.7888,1.8163,1.8517,0.0,0.0,0.0,0.0,0.0,0.0,0.0,0.0,0.0,0.0,1.9864,2.0251,1.9961,0.0,0.0,1.9705,1.9705,1.9705,1.9705,1.9705,1.9705,1.9705,0.0,0.0,0.0,0.0,0.0,0.0,0.0,0.0,0.0,0.0,0.0,0.0,0.0,0.0,0.0,0.0,0.0,0.0,0.0,0.0,0.0,0.0,0.0,0.0,0.0,0.0,0.0,0.0,0.0,0.0,0.0,0.0,0.0,0.0,0.0,0.0,0.0,0.0,0.0,0.0,0.0,0.0,0.0,0.0,0.0,0.0,0.0,0.0,0.0,0.0,0.0,0.0,1.3634,1.3685,1.5107,1.5864,1.5864,1.5864,1.6051,1.6466,1.6145,1.5504,0.0,0.0,0.0,0.0,0.0,0.0,0.0,0.0,0.0,0.0,0.0,0.0,0.0,0.0,0.0,0.0,0.0,0.0,0.0,0.0,0.0,0.0,0.0,0.0,0.0,0.0,0.0,0.0,1.8498,1.8637,1.9074,0.0,0.0,0.0,0.0,0.0,0.0,0.0,0.0,0.0,0.0,2.0389,2.0669,2.0114,1.9773,1.9967,1.9824,1.9824,2.0228,2.0124,1.9989,1.9989,0.0,0.0,0.0,0.0,0.0,0.0,0.0,0.0,0.0,0.0,0.0,0.0,0.0,0.0,0.0,0.0,0.0,0.0,0.0,0.0,0.0,0.0,0.0,0.0,0.0,0.0,0.0,0.8635,0.0,0.0,0.8635,0.0,0.0,0.0,0.0,0.0,0.0,0.0,0.0,0.0,0.0,0.0,0.0,0.0,0.0,0.0,0.0,0.0,0.0,0.0,0.0,0.0,0.0,1.4359,1.4977,1.5936,1.6479,1.6479,1.6479,1.6479,1.6522,1.6509,1.6233,1.5668,0.0,0.0,0.0,0.0,0.0,0.0,0.0,0.0,0.0,0.0,0.0,0.0,0.0,0.0,0.0,0.0,0.0,0.0,0.0,0.0,0.0,0.0,0.0,0.0,0.0,0.0,1.963,1.966,1.966,0.0,0.0,0.0,0.0,0.0,0.0,0.0,0.0,0.0,2.0722,2.1261,2.144,2.0789,2.0144,2.0009,2.0609,2.0154,2.0168,2.1425,2.1096,2.0692,0.0,0.0,0.0,0.0,0.0,0.0,0.0,0.0,0.0,0.0,0.0,0.0,0.0,0.0,0.0,0.0,0.0,0.0,0.0,0.0,0.0,0.0,0.0,0.0,0.0,0.0,0.0,0.8521,0.8675,0.0,0.0,0.0,0.0,0.0,0.0,0.0,0.0,0.0,0.0,0.0,1.3625,1.4078,0.0,0.0,0.0,0.0,0.0,0.0,0.0,0.0,0.0,0.0,0.0,0.0,1.4531,1.537,1.6151,1.6534,1.6534,1.6534,1.6534,1.6534,1.6534,1.6271,1.5718,0.0,0.0,0.0,0.0,0.0,0.0,0.0,0.0,0.0,0.0,0.0,0.0,0.0,0.0,0.0,0.0,0.0,0.0,0.0,0.0,0.0,0.0,0.0,0.0,0.0,1.9705,0.0,0.0,0.0,0.0,0.0,0.0,0.0,0.0,0.0,0.0,0.0,2.0872,2.1321,2.155,2.1776,2.2009,2.2181,2.2066,0.0,0.0,0.0,0.0,0.0,0.0,0.0,0.0,0.0,0.0,0.0,0.0,0.0,0.0,2.106,1.9893,2.0064,2.0378,2.0363,0.0,0.0,0.0,0.0,0.0,0.0,0.0,0.0,0.0,0.0,0.0,0.0,0.0,0.0,0.9551,0.9718,0.9727,0.0,0.0,0.0,0.0,0.0,0.0,0.0,0.0,1.3847,1.4463,1.4681,1.5157,1.5377,0.0,1.5049,1.4763,0.0,0.0,0.0,0.0,0.0,0.0,0.0,0.0,1.5037,1.5896,1.6293,1.6534,1.6534,1.6534,1.6534,1.6534,1.6534,1.6346,1.5994,1.5467,1.5241,0.0,0.0,0.0,0.0,0.0,0.0,0.0,0.0,0.0,0.0,0.0,0.0,0.0,0.0,0.0,0.0,0.0,0.0,0.0,0.0,0.0,0.0,0.0,1.9705,0.0,0.0,0.0,0.0,0.0,0.0,0.0,0.0,0.0,2.0049,2.0632,2.1291,2.1949,2.2218,2.2545,2.2951,0.0,0.0,0.0,0.0,0.0,0.0,0.0,2.2727,2.2727,2.2712,2.2637,2.2398,2.2712,2.3071,2.331,0.0,0.0,2.1183,2.1143,2.1357,2.164,2.2413,2.3071,2.3295,2.3194,2.3069,0.0,0.0,0.0,0.0,0.0,0.0,0.0,0.0,1.0829,1.1076,0.0,1.1523,0.0,0.0,0.0,0.0,1.2542,1.3552,0.0,0.0,1.5677,1.6191,1.5781,1.6216,1.6479,1.6534,1.6466,1.6466,1.6403,1.4947,0.0,0.0,0.0,0.0,0.0,0.0,1.5932,1.6466,1.6504,1.6504,1.6534,1.6534,1.6534,1.6534,1.6534,1.6522,1.6497,1.5994,1.5957,1.6471,1.5517,0.0,0.0,0.0,0.0,0.0,0.0,0.0,0.0,0.0,0.0,0.0,0.0,0.0,0.0,0.0,0.0,0.0,0.0,0.0,0.0,1.9705,0.0,0.0,0.0,0.0,0.0,0.0,0.0,0.0,0.0,2.0714,2.0759,2.1335,2.1964,2.2622,0.0,0.0,0.0,0.0,2.5402,2.4702,2.4103,2.4148,2.5375,2.5046,2.4582,2.4597,0.0,0.0,2.3819,2.3729,2.4059,2.4582,2.3703,2.279,2.3701,2.3052,2.2672,2.3389,2.3655,2.3939,2.4492,2.4342,2.4088,1.085,0.0,0.0,0.0,0.0,1.0954,1.1277,1.1784,1.1512,1.1465,1.1596,1.1596,0.0,0.0,0.0,0.0,0.0,0.0,1.4332,1.4761,1.5507,1.6009,1.6296,1.6446,1.6534,1.6534,1.6534,1.6534,1.6466,1.6056,1.5545,1.4987,0.0,0.0,0.0,0.0,1.6284,1.6529,1.6923,1.6936,1.6534,1.6534,1.6534,1.6534,1.6534,1.6534,1.6522,1.6371,1.6358,1.6497,1.6193,0.0,0.0,0.0,0.0,0.0,0.0,0.0,0.0,0.0,0.0,0.0,0.0,0.0,0.0,0.0,0.0,0.0,0.0,0.0,1.9705,1.9705,1.9705,0.0,0.0,0.0,0.0,0.0,0.0,0.0,0.0,0.0,2.2054,2.2319,2.2637,0.0,0.0,2.3925,2.4896,2.6151,2.664,2.5482,2.5555,0.0,2.5615,2.545,2.533,2.533,2.5719,2.5959,2.5764,2.6512,2.723,2.7425,2.7473,2.7607,2.7679,2.5884,2.4388,2.4388,2.5061,2.5933,2.6576,2.6555,2.6482,1.2239,1.1836,1.1393,1.1335,1.1568,1.1768,1.2082,1.248,1.2197,1.2135,1.2126,1.2126,1.2298,1.2648,1.2905,0.0,0.0,0.0,1.5018,1.5587,1.5862,1.6151,1.6479,1.6534,1.6534,1.6534,1.6534,1.6534,1.6534,1.6534,1.6324,1.5964,0.0,0.0,1.6349,1.6861,1.7024,1.6854,1.7212,1.7112,1.6534,1.6534,1.6534,1.6534,1.6534,1.6534,1.6534,1.6534,1.6534,1.6522,1.6506,1.6579,0.0,0.0,0.0,0.0,0.0,0.0,0.0,0.0,0.0,0.0,0.0,1.9705,1.9705,0.0,0.0,0.0,1.9705,1.9705,1.9705,1.9705,0.0,0.0,0.0,0.0,0.0,0.0,0.0,2.165,2.2143,2.2592,2.2996,2.3505,2.3879,2.3999,2.4388,2.4982,2.5884,0.0,2.7334,2.6516,2.6722,2.6841,2.6452,2.6393,2.6393,2.6378,2.6946,2.7365,2.741,2.8293,2.9041,2.9295,2.9475,2.9594,2.9594,2.8071,2.6796,2.6666,2.7215,2.7885,2.8308,2.8387,2.8383,1.3555,1.3464,1.2429,1.1995,1.2017,1.2656,1.292,1.2891,1.2881,1.2891,1.2891,1.291,1.3047,1.3213,1.3847,0.0,1.5808,1.5796,1.6098,1.6647,1.6597,1.6597,1.6572,1.6547,1.6534,1.6534,1.6534,1.6534,1.6534,1.6534,1.6547,1.6597,1.7162,1.7426,1.7413,1.7965,1.7978,1.7388,1.7426,1.7149,1.6534,1.6534,1.6534,1.6534,1.6534,1.6534,1.6534,1.6534,1.6509,1.6552,1.6536,1.6747,1.7327,0.0,0.0,0.0,0.0,0.0,0.0,0.0,0.0,0.0,0.0,0.0,0.0,0.0,0.0,1.9705,1.9771,0.0,1.9765,1.9809,0.0,0.0,0.0,2.0774,2.0872,2.141,2.1814,2.1904,0.0,0.0,2.3759,2.4881,2.5465,2.4821,2.5664,2.6404,2.6651,2.7221,2.7588,2.7505,2.7604,2.7685,2.747,2.758,2.7685,2.7724,2.8308,2.8727,2.8786,2.931,2.9953,3.0447,3.0133,2.9774,2.9759,2.9606,2.9652,2.9633,2.943,2.9349,2.9448,2.949,2.9485,1.3931,1.3922,1.3647,1.3374,1.3087,1.3299,1.3174,1.2939,1.2891,1.2891,1.2949,1.3223,1.4124,1.5493,1.662,1.7311,1.7604,1.7557,1.765,1.7777,1.7375,1.7174,1.7162,1.6722,1.6534,1.6534,1.6534,1.6534,1.6534,1.6534,1.6748,1.7187,1.7739,1.7802,1.7438,1.8342,1.8355,1.74,1.779,1.7526,1.6572,1.6534,1.6534,1.6534,1.6534,1.6534,1.6534,1.6534,1.668,1.7063,1.6689,1.6928,1.7867,1.8808,0.0,0.0,0.0,0.0,0.0,0.0,0.0,0.0,0.0,1.9705,1.9705,0.0,1.9705,0.0,2.0154,2.0468,2.0483,2.0932,0.0,0.0,2.1365,2.1665,2.2158,2.2394,2.2832,2.3834,2.4193,2.4567,2.5061,2.5854,2.6303,2.6153,2.6228,2.6572,2.7215,2.751,2.76,2.764,2.7993,2.8158,2.7739,2.8023,2.8517,2.9026,2.9624,3.0043,3.0058,3.0627,3.112,3.1255,3.118,3.1076,3.1016,3.03,3.0066,3.0648,2.9475,2.8419,2.9387,2.9605,2.9766,1.4541,1.4697,1.4707,1.4463,1.4053,1.3867,1.3652,1.3437,1.3771,1.3721,1.3457,1.4032,1.4974,1.6227,1.7339,1.7941,1.8204,1.8204,1.8204,1.8191,1.789,1.7752,1.7739,1.7426,1.7262,1.725,1.7011,1.7024,1.7237,1.7024,1.7174,1.7752,1.8304,1.8417,1.8154,1.8957,1.9058,1.8468,1.8279,1.779,1.6936,1.6898,1.6785,1.6534,1.6534,1.6534,1.6534,1.6534,1.6637,1.6909,1.7109,1.7472,1.8066,1.9126,1.9536,0.0,0.0,0.0,0.0,0.0,0.0,0.0,0.0,0.0,0.0,0.0,1.9809,2.0124,2.0483,2.0827,2.1126,2.1485,2.1695,2.1695,2.1949,2.2278,2.2679,2.2921,2.337,2.4073,2.4702,2.5196,2.5585,2.6437,2.7036,2.7036,2.7181,2.7375,2.753,2.756,2.756,2.759,2.7889,2.8158,2.8008,2.8592,2.916,2.9535,3.0103,3.0492,3.0522,3.1076,3.1467,3.1467,3.1467,3.1362,3.1078,3.0812,3.0607,3.0321,2.952,2.9102,3.0174,3.0483,3.0607,1.5244,1.5576,1.5586,1.5419,1.517,1.4785,1.439,1.4131,1.4883,1.4914,1.453,1.5332,1.5986,1.6582,1.7464,1.8032,1.8405,1.8493,1.848,1.8405,1.8342,1.8317,1.8317,1.8229,1.8204,1.8179,1.7727,1.7739,1.8179,1.7727,1.7765,1.8317,1.8794,1.9095,1.9258,1.9685,1.9849,1.9698,1.8719,1.7978,1.7546,1.7413,1.7149,1.666,1.6559,1.6534,1.6534,1.6534,1.6509,1.6637,1.7413,1.7991,1.8185,1.9152,1.9716,0.0,1.9705,0.0,0.0,0.0,0.0,0.0,0.0,0.0,0.0,1.9944,2.0183,2.0797,2.0932,2.1201,2.1769,2.1889,2.1934,2.1949,2.2443,2.2843,2.2817,2.3355,2.3759,2.3849,2.4971,2.5764,2.5944,2.6886,2.756,2.756,2.7949,2.8083,2.7724,2.782,2.7904,2.779,2.7835,2.8308,2.8936,2.943,2.9729,2.9879,3.0328,3.0627,3.0687,3.1078,3.1467,3.1467,3.1467,3.1345,3.0731,3.111,3.1076,3.0233,3.0018,3.0295,3.0982,3.1192,3.1405,1.6406,1.6484,1.6484,1.6848,1.7415,1.7272,1.6046,1.4131,1.4883,1.5667,1.653,1.7663,1.8219,1.8395,1.9944,2.0257,1.9535,1.9987,1.9949,1.9484,1.9058,1.882,1.8844,1.8417,1.8204,1.8204,1.8103,1.8103,1.8204,1.8103,1.8329,1.882,1.897,1.9472,2.0313,0.0,0.0,0.0,1.853,1.8166,1.8041,1.7614,1.7325,1.7212,1.6773,0.0,1.6534,1.6534,1.671,1.7105,1.692,0.0,0.0,0.0,0.0,0.0,0.0,0.0,0.0,0.0,0.0,0.0,2.1395,2.1321,2.1321,2.1321,2.1365,2.1515,2.1994,2.2368,2.2488,2.2936,2.3236,2.3251,2.334,2.343,2.3445,2.4014,2.4627,2.5181,2.5914,2.6602,2.7051,2.744,2.756,2.7575,2.7745,2.776,2.7604,2.8442,2.8951,2.8562,2.8801,2.9609,3.0806,3.0567,3.0522,3.1001,3.1168,3.1243,3.1315,3.1317,3.1452,3.1437,3.1467,3.1452,3.133,3.1405,3.1417,3.1195,3.1556,3.1758,3.0906,3.0699,3.0851,1.6855,1.7031,1.6816,1.7211,0.0,1.7996,1.7518,1.6743,1.7457,1.8087,1.8693,1.9349,1.9567,1.9591,2.0952,2.1029,2.025,2.0539,2.0351,1.9811,1.9823,1.9673,1.9422,1.9422,1.9258,1.8982,1.8731,1.8744,1.897,1.8731,1.8882,1.9397,1.9409,1.9823,2.0693,2.0718,2.0526,2.0238,1.9422,1.8869,1.8606,1.8066,1.7526,1.6974,1.6672,0.0,0.0,0.0,0.0,0.0,0.0,0.0,0.0,1.9411,0.0,2.0161,2.0483,2.0842,2.1186,2.15,2.1814,2.2143,2.2473,2.2368,2.1754,2.1695,2.1829,2.2158,2.2488,2.2802,2.3101,2.3415,2.3595,2.3595,2.3595,2.3595,2.367,2.4208,2.4701,2.5151,2.5989,2.6737,2.7036,2.7445,2.756,2.764,2.7874,2.7934,2.7724,2.8442,2.9026,2.9086,2.9624,3.0253,3.0866,3.1106,3.1076,3.142,3.1255,3.1138,3.1422,3.1255,3.1016,3.1046,3.1285,3.1507,3.1556,3.1498,3.1597,3.191,3.2079,3.191,3.1121,3.1282,3.1658,1.7168,1.7461,1.7109,1.7443,1.8238,1.8424,1.9017,1.9968,2.0275,0.0,0.0,2.0704,2.0692,2.0665,2.1356,2.128,2.0731,2.0718,2.0401,1.9987,2.0451,2.0464,2.0137,2.0589,2.0514,1.9949,1.9522,1.9497,1.9773,1.9359,1.9371,1.9773,1.9798,2.0087,2.068,2.0618,2.0894,2.1393,2.0376,1.9597,1.9171,1.8631,1.7865,1.6835,1.6722,1.6622,1.6534,1.6909,1.7188,1.7312,1.7169,1.7701,1.8975,1.9473,2.0055,2.081,2.1594,2.2009,2.1874,2.2409,2.2727,2.2832,2.331,2.3161,2.2099,2.2039,2.2248,2.2843,2.2873,2.3056,2.355,2.3595,2.3595,2.3595,2.3595,2.3595,2.3655,2.4328,2.4791,2.4941,2.6004,2.6767,2.6841,2.7295,2.756,2.7634,2.803,2.8308,2.7949,2.8412,2.9101,2.9669,3.0283,3.0672,3.0612,3.0911,3.1285,3.1076,3.0672,3.0612,3.1061,3.0881,3.0597,3.0791,3.0991,3.1204,3.1488,3.1784,3.1989,3.2508,3.2201,3.1926,3.2051,3.2541,3.2819,1.7852,1.791,1.7852,1.8338,1.9175,1.9942,2.1132,2.2441,2.1052,2.0779,2.1338,2.1811,2.1806,2.1406,2.1913,2.1631,2.0731,2.0718,2.0668,2.0552,2.068,2.0878,2.1242,2.1343,2.1079,2.0564,2.0464,2.0213,1.9823,1.9723,1.9736,1.9786,1.9798,2.01,2.063,2.0175,2.0439,2.143,2.0376,1.9773,1.9685,1.9183,1.8606,1.799,1.7501,1.7024,1.6534,1.662,1.6837,1.7338,1.8714,1.9579,1.9757,1.9746,2.0258,2.1491,2.2705,2.3111,2.2589,2.2664,2.2906,2.3415,2.355,2.3505,2.3355,2.334,2.3385,2.346,2.343,2.3505,2.3595,2.3625,2.3655,2.364,2.3625,2.361,2.3699,2.4732,2.5465,2.5495,2.6632,2.741,2.738,2.75,2.756,2.7575,2.7775,2.7874,2.8338,2.9026,2.9669,3.0283,3.0956,3.1091,3.0612,3.0537,3.0477,2.9924,2.9834,2.9924,3.0567,3.0477,3.0522,3.1195,3.0582,3.0493,3.1261,3.2513,3.2926,3.2804,3.287,3.3282,3.3756,3.4053,3.389,1.8269,1.8654,1.8721,1.9497,2.0782,2.1616,2.2372,2.3027,2.2231,2.208,2.241,2.2648,2.2611,2.241,2.2648,2.2146,2.1129,2.1418,2.123,2.0794,2.128,2.1531,2.1481,2.1481,2.1355,2.1134,2.0464,2.0225,2.0238,1.9962,1.9798,1.9836,2.0401,2.0702,2.0731,2.1004,2.1117,2.1029,2.0213,1.9798,1.9786,1.9296,1.8763,1.8209,1.8242,1.8218,1.7927,1.8545,1.9017,1.9239,2.0055,2.0648,2.0877,2.1454,2.1932,2.2233,2.3111,2.3474,2.3218,2.3176,2.3295,2.3565,2.3595,2.3595,2.3595,2.3595,2.3595,2.3595,2.3595,2.3568,2.36,2.394,2.4298,2.4657,2.4687,2.4687,2.4777,2.551,2.6123,2.6213,2.6976,2.756,2.756,2.756,2.756,2.756,2.756,2.7709,2.8023,2.8607,2.928,2.9879,3.0283,3.0313,3.0058,2.9998,2.9879,2.9609,2.928,2.9355,2.9819,2.9774,2.9654,2.9948,3.0193,3.067,3.1078,3.2447,3.3187,3.3259,3.3339,3.3746,3.4006,3.4298,3.4116,1.8977,1.9562,1.9628,2.0462,2.1939,2.2567,2.2944,2.3078,2.3065,2.3125,2.3125,2.3125,2.3125,2.3113,2.284,2.2297,2.1606,2.1794,2.1543,2.1016,2.1857,2.2146,2.187,2.1744,2.1669,2.1556,2.0652,2.0426,2.0806,2.0388,2.028,2.0512,2.1313,2.1626,2.139,2.2214,2.212,2.1197,2.0656,2.0322,2.0042,1.9735,1.9318,1.8692,1.9194,1.9395,1.9182,2.0147,2.0781,2.092,2.1082,2.1414,2.1934,2.2994,2.3387,2.3008,2.3325,2.3595,2.361,2.3744,2.3774,2.361,2.3894,2.3999,2.3864,2.3969,2.3969,2.3864,2.4014,2.3985,2.379,2.4341,2.5167,2.589,2.5736,2.554,2.5644,2.6198,2.6602,2.6662,2.7156,2.756,2.756,2.756,2.756,2.756,2.756,2.756,2.7685,2.8068,2.8592,2.9011,2.937,2.9535,2.943,2.937,2.9265,2.919,2.8697,2.8727,2.9071,2.8921,2.8877,2.9229,3.014,3.09,3.1054,3.2288,3.342,3.3696,3.386,3.3953,3.4202,3.4539,3.4564,2.0398,2.0462,2.0462,2.1037,2.1877,2.2013,2.2469,2.3078,2.3138,2.3125,2.3125,2.3125,2.3125,2.2927,2.2133,2.1656,2.1468,2.1029,2.1066,2.1455,2.2033,2.2548,2.2849,2.2447,2.2246,2.2159,2.1568,2.1292,2.1393,2.1317,2.1623,2.2259,2.2484,2.2764,2.3338,2.3499,2.3224,2.2528,2.2446,2.1862,2.0822,2.1191,2.0962,1.9853,2.0411,2.0198,1.9346,1.9784,2.0444,2.0907,2.154,2.2058,2.2596,2.3248,2.3593,2.3505,2.3565,2.3595,2.3655,2.4178,2.4283,2.3774,2.4717,2.5121,2.4582,2.5076,2.5166,2.4792,2.5076,2.4815,2.388,2.4752,2.5965,2.7023,2.6346,2.56,2.5764,2.6198,2.6602,2.6602,2.72,2.756,2.756,2.756,2.756,2.756,2.756,2.756,2.7575,2.77,2.7784,2.8023,2.8727,2.9175,2.8846,2.8697,2.8487,2.7993,2.7754,2.8008,2.8442,2.8704,2.8869,2.9255,2.9838,3.0316,3.1704,3.2962,3.3599,3.4213,3.4426,3.4688,3.5207,3.5402,3.5273,2.091,2.1365,2.1365,2.1865,2.2604,2.2985,2.3133,2.3115,2.3502,2.3464,2.309,2.3125,2.3125,2.304,2.2648,2.2297,2.197,2.1732,2.1757,2.1983,2.2221,2.2611,2.2965,2.256,2.2472,2.2686,2.192,2.1656,2.187,2.1656,2.1635,2.1937,2.2232,2.2662,2.307,2.3744,2.3797,2.3317,2.3589,2.3329,2.2546,2.1985,2.1467,2.1147,2.1611,2.1782,2.1341,2.183,2.2264,2.2507,2.2758,2.2992,2.3236,2.346,2.3595,2.3625,2.3984,2.4373,2.4762,2.5061,2.5076,2.4792,2.5285,2.548,2.527,2.5809,2.6063,2.5839,2.5689,2.5429,2.525,2.5816,2.6579,2.7346,2.7094,2.6752,2.6782,2.6976,2.7205,2.7186,2.741,2.756,2.756,2.756,2.756,2.756,2.756,2.756,2.756,2.756,2.756,2.767,2.8068,2.8233,2.8053,2.7993,2.7844,2.7664,2.756,2.7754,2.7889,2.7993,2.8237,2.8814,2.897,2.9601,3.0959,3.2414,3.3425,3.4243,3.5023,3.5316,3.556,3.5622,3.5774,2.1616,2.2187,2.2261,2.2567,2.3115,2.3577,2.3527,2.3153,2.359,2.3514,2.315,2.3125,2.3125,2.3053,2.2915,2.2686,2.2347,2.2322,2.2322,2.2334,2.246,2.2761,2.299,2.2585,2.2598,2.2912,2.2388,2.2437,2.3044,2.276,2.2639,2.2913,2.3267,2.363,2.4024,2.4833,2.4967,2.4589,2.4889,2.4781,2.4141,2.3116,2.2349,2.2088,2.2584,2.2878,2.2697,2.3284,2.3595,2.3595,2.3595,2.3595,2.3595,2.3583,2.3762,2.4148,2.4612,2.5091,2.56,2.5779,2.5809,2.5659,2.5884,2.6063,2.6019,2.6482,2.6826,2.6811,2.6408,2.6314,2.6598,2.6811,2.7066,2.7515,2.756,2.756,2.753,2.756,2.7545,2.756,2.7545,2.756,2.756,2.756,2.756,2.756,2.756,2.756,2.756,2.756,2.756,2.756,2.7575,2.759,2.756,2.7619,2.756,2.756,2.756,2.756,2.756,2.7625,2.776,2.8458,2.8442,2.9092,3.0465,3.1857,3.3168,3.4225,3.5049,3.5526,3.5622,3.5639,3.5842,2.3017,2.3017,2.3065,2.3005,2.3078,2.3201,2.3128,2.309,2.314,2.3128,2.3078,2.3125,2.3125,2.31,2.2661,2.2359,2.2334,2.2334,2.2347,2.2397,2.2752,2.3088,2.3027,2.2585,2.2611,2.317,2.3345,2.3912,2.5066,2.5121,2.5604,2.6115,2.5994,2.6515,2.6945,2.71,2.708,2.6406,2.6336,2.6117,2.5476,2.4774,2.3834,2.2931,2.3216,2.326,2.2862,2.3304,2.361,2.361,2.364,2.364,2.3611,2.3644,2.4251,2.5299,2.554,2.5585,2.5749,2.6228,2.6333,2.5929,2.6722,2.7186,2.6647,2.7081,2.741,2.75,2.7415,2.738,2.7425,2.7395,2.7505,2.7545,2.756,2.756,2.756,2.756,2.756,2.7619,2.7664,2.7634,2.759,2.756,2.756,2.756,2.756,2.756,2.756,2.756,2.756,2.756,2.756,2.756,2.756,2.756,2.756,2.756,2.756,2.756,2.756,2.766,2.7944,2.8079,2.7957,2.8604,3.0053,3.1433,3.2749,3.3905,3.4891,3.5346,3.5588,3.5622,3.5842,2.3477,2.3078,2.3125,2.3125,2.3175,2.354,2.3489,2.3115,2.3527,2.3464,2.3115,2.3125,2.3125,2.3125,2.2937,2.2836,2.2811,2.2485,2.2498,2.2774,2.2686,2.2727,2.31,2.3372,2.3664,2.3936,2.4396,2.4901,2.5301,2.5398,2.5508,2.5742,2.5783,2.6162,2.6759,2.6878,2.6953,2.72,2.6826,2.6467,2.6213,2.5585,2.4982,2.4576,2.3896,2.3508,2.3275,2.3508,2.3804,2.4238,2.4253,2.4283,2.4521,2.503,2.554,2.6001,2.615,2.6422,2.6811,2.7081,2.719,2.6946,2.7325,2.7535,2.737,2.749,2.756,2.756,2.756,2.756,2.756,2.756,2.756,2.756,2.756,2.756,2.756,2.7575,2.7724,2.8098,2.8218,2.8083,2.7709,2.756,2.756,2.756,2.756,2.756,2.756,2.756,2.756,2.756,2.756,2.756,2.756,2.756,2.756,2.756,2.756,2.756,2.756,2.756,2.781,2.7944,2.7795,2.8539,3.0117,3.1896,3.306,3.401,3.4947,3.5374,3.5537,3.5605,3.5876,2.3489,2.3103,2.3125,2.3125,2.3175,2.3552,2.3502,2.3188,2.3552,2.3502,2.3115,2.3125,2.3125,2.3125,2.3125,2.3125,2.304,2.2689,2.2892,2.3433,2.3089,2.3289,2.3865,2.4381,2.4624,2.4794,2.5398,2.5837,2.6108,2.6108,2.6094,2.6162,2.6108,2.6336,2.6774,2.6864,2.7152,2.7419,2.7111,2.6901,2.6826,2.6273,2.5929,2.5764,2.4822,2.4253,2.4253,2.4253,2.4448,2.4866,2.4896,2.5058,2.5473,2.6251,2.6705,2.6703,2.6856,2.7145,2.7485,2.756,2.761,2.756,2.756,2.756,2.756,2.756,2.756,2.756,2.756,2.756,2.756,2.756,2.756,2.756,2.756,2.756,2.756,2.756,2.7904,2.8397,2.8547,2.8338,2.7979,2.7709,2.759,2.756,2.756,2.756,2.756,2.756,2.756,2.756,2.756,2.756,2.7625,2.7625,2.764,2.764,2.7625,2.7625,2.766,2.766,2.776,2.786,2.8324,2.9071,3.037,3.2237,3.3428,3.4309,3.4958,3.5374,3.552,3.5622,3.5876,2.3163,2.3078,2.3125,2.3125,2.3138,2.3188,2.3103,2.315,2.3163,2.3188,2.3125,2.3125,2.3125,2.3125,2.3185,2.3198,2.3233,2.3242,2.3585,2.4163,2.4239,2.457,2.5161,2.5342,2.5453,2.5563,2.6176,2.6878,2.7408,2.7357,2.7408,2.7524,2.7408,2.7357,2.756,2.7458,2.756,2.7545,2.7535,2.7565,2.7485,2.6901,2.6602,2.6527,2.5959,2.5615,2.56,2.554,2.548,2.56,2.5615,2.5821,2.6344,2.7052,2.7557,2.7475,2.7565,2.7595,2.761,2.756,2.756,2.756,2.756,2.756,2.756,2.756,2.756,2.756,2.756,2.756,2.756,2.756,2.756,2.756,2.756,2.756,2.756,2.767,2.7925,2.8532,2.8757,2.8637,2.8457,2.8068,2.7724,2.7604,2.756,2.756,2.756,2.756,2.756,2.759,2.7709,2.7829,2.776,2.764,2.7655,2.772,2.764,2.7625,2.781,2.786,2.8189,2.835,2.9045,2.9815,3.0972,3.2689,3.3544,3.4404,3.4891,3.5385,3.5571,3.5673,3.5808,2.3502,2.315,2.3125,2.3125,2.3125,2.3125,2.3125,2.3125,2.3125,2.3125,2.3125,2.3125,2.3125,2.3245,2.3649,2.3943,2.3943,2.4394,2.4567,2.4452,2.4838,2.5175,2.5508,2.5946,2.6443,2.6864,2.7152,2.7357,2.756,2.756,2.756,2.756,2.7575,2.756,2.759,2.756,2.756,2.756,2.756,2.756,2.756,2.7365,2.726,2.7245,2.7066,2.6961,2.6916,2.6093,2.5854,2.6258,2.6288,2.6557,2.7111,2.7465,2.757,2.7595,2.756,2.756,2.756,2.756,2.756,2.756,2.756,2.756,2.756,2.756,2.756,2.756,2.756,2.756,2.756,2.756,2.7619,2.7575,2.756,2.7575,2.7739,2.8382,2.8966,2.9265,2.9639,2.952,2.8831,2.8338,2.8068,2.7679,2.759,2.756,2.7625,2.769,2.756,2.7575,2.7874,2.8273,2.8288,2.8366,2.8514,2.8357,2.8118,2.8244,2.8327,2.8286,2.8559,2.928,2.9934,3.0846,3.1994,3.3003,3.3922,3.4365,3.4773,3.5182,3.5554,3.5853,3.6056,2.3602,2.3439,2.3226,2.3125,2.3125,2.3125,2.3125,2.3138,2.3424,2.3531,2.359,2.3872,2.393,2.4047,2.4509,2.4681,2.4794,2.5453,2.5563,2.5231,2.5563,2.5946,2.6215,2.6654,2.71,2.7524,2.756,2.756,2.756,2.7575,2.7694,2.7889,2.776,2.7724,2.7874,2.7745,2.756,2.756,2.756,2.756,2.756,2.756,2.756,2.756,2.756,2.756,2.7565,2.6801,2.6512,2.6871,2.6961,2.7171,2.758,2.761,2.756,2.756,2.756,2.756,2.756,2.756,2.756,2.756,2.756,2.756,2.756,2.756,2.756,2.756,2.756,2.7715,2.7904,2.7964,2.8053,2.8308,2.7844,2.7739,2.8038,2.9131,2.9834,2.9998,3.0238,3.0028,2.9549,2.8757,2.8502,2.8023,2.7724,2.7745,2.7875,2.8164,2.8198,2.8281,2.8601,2.885,2.8922,2.9117,2.9343,2.9107,2.8794,2.9045,2.9234,2.9014,2.909,3.0448,3.138,3.2387,3.3528,3.3985,3.4695,3.4776,3.4844,3.5216,3.5707,3.6265,3.6565,2.3477,2.3904,2.3376,2.3125,2.3125,2.3125,2.3198,2.3305,2.3943,2.4292,2.4452,2.4894,2.5231,2.5342,2.5356,2.5467,2.5618,2.6215,2.6563,2.6496,2.6563,2.6826,2.7291,2.7408,2.7509,2.756,2.756,2.756,2.756,2.7575,2.794,2.8263,2.788,2.7859,2.8143,2.7844,2.756,2.756,2.756,2.756,2.756,2.756,2.756,2.756,2.756,2.756,2.758,2.7475,2.744,2.7545,2.7535,2.755,2.756,2.756,2.756,2.756,2.756,2.756,2.756,2.756,2.756,2.756,2.756,2.756,2.756,2.756,2.7685,2.7775,2.7775,2.7964,2.8487,2.8652,2.8891,2.9265,2.8584,2.8218,2.8727,2.9804,3.0342,3.0537,3.0567,3.0507,3.0342,2.9484,2.9094,2.8658,2.8177,2.7944,2.8695,2.9107,2.9375,2.9374,2.9295,2.947,2.9564,2.9894,3.0126,3.006,2.9774,2.9942,3.0341,3.018,3.0429,3.1803,3.2673,3.3799,3.458,3.4945,3.5182,3.5284,3.5419,3.5588,3.5989,3.6599,3.7206,2.3477,2.3916,2.3376,2.3125,2.3125,2.3125,2.3424,2.3943,2.4234,2.4667,2.5077,2.5287,2.5508,2.5453,2.6014,2.6229,2.639,2.6945,2.7306,2.7306,2.7306,2.7357,2.756,2.756,2.756,2.756,2.756,2.756,2.756,2.756,2.7709,2.7814,2.779,2.7715,2.7769,2.7724,2.7575,2.756,2.756,2.756,2.756,2.756,2.756,2.756,2.756,2.756,2.756,2.756,2.756,2.756,2.756,2.756,2.756,2.756,2.756,2.756,2.756,2.756,2.756,2.756,2.756,2.756,2.756,2.756,2.756,2.7625,2.7814,2.8158,2.8338,2.8644,2.9214,2.9355,2.946,2.949,2.9304,2.9319,2.9819,3.0268,3.0672,3.1078,3.1225,3.1114,3.0805,3.0723,3.0499,2.9915,2.9024,2.8306,2.9485,3.0112,3.0312,2.9809,2.9699,2.997,3.0238,3.0619,3.0843,3.0942,3.0833,3.0865,3.1394,3.1841,3.2557,3.3674,3.3722,3.4563,3.5081,3.5453,3.5605,3.5639,3.5639,3.5673,3.6441,3.7138,3.7853,2.3916,2.3979,2.3627,2.3533,2.3603,2.3603,2.4047,2.4738,2.5119,2.5453,2.5851,2.6229,2.6322,2.639,2.6759,2.693,2.7063,2.7705,2.7844,2.7575,2.756,2.756,2.756,2.756,2.756,2.756,2.756,2.756,2.756,2.756,2.791,2.8299,2.7895,2.7895,2.8457,2.785,2.756,2.756,2.756,2.756,2.756,2.756,2.756,2.756,2.756,2.756,2.756,2.756,2.756,2.756,2.756,2.756,2.756,2.756,2.756,2.756,2.756,2.756,2.756,2.756,2.756,2.756,2.756,2.776,2.797,2.8206,2.8697,2.9326,2.9666,3.0038,3.032,3.0428,3.0372,3.0503,3.0649,3.0734,3.0593,3.1066,3.1496,3.1886,3.217,3.2228,3.1805,3.1998,3.1793,3.1328,3.032,3.021,3.0639,3.0981,3.116,3.0696,3.0435,3.0729,3.0888,3.1179,3.1381,3.1449,3.2007,3.2017,3.2337,3.3017,3.3835,3.4479,3.4776,3.503,3.5385,3.5639,3.5639,3.5639,3.5639,3.5926,3.6644,3.7369,3.8116,2.4457,2.4103,2.4053,2.4197,2.439,2.4394,2.4851,2.5563,2.6122,2.6457,2.6707,2.7306,2.7357,2.756,2.7408,2.756,2.7604,2.8053,2.7964,2.7754,2.773,2.7724,2.756,2.756,2.756,2.756,2.756,2.756,2.756,2.756,2.8233,2.8667,2.812,2.8293,2.8697,2.818,2.7619,2.756,2.756,2.756,2.756,2.756,2.756,2.756,2.756,2.756,2.756,2.756,2.756,2.756,2.756,2.756,2.756,2.756,2.756,2.756,2.756,2.756,2.756,2.756,2.7735,2.7911,2.7926,2.816,2.8865,2.9543,3.0082,3.072,3.131,3.1573,3.1774,3.1778,3.1723,3.1805,3.2299,3.1974,3.1409,3.1927,3.2695,3.2749,3.3251,3.3547,3.3489,3.3203,3.2803,3.2884,3.2142,3.2285,3.2199,3.2216,3.2133,3.1708,3.159,3.1577,3.1645,3.1702,3.1796,3.1965,3.29,3.322,3.3204,3.3811,3.4547,3.5081,3.5182,3.5318,3.5504,3.5639,3.5639,3.5639,3.5639,3.6062,3.6666,3.7377,3.8106,2.4045,2.4823,2.438,2.4571,2.5133,2.5175,2.5563,2.6283,2.6457,2.6826,2.7291,2.7509,2.756,2.756,2.7655,2.756,2.7575,2.7769,2.7715,2.7745,2.8173,2.8008,2.7709,2.764,2.759,2.7575,2.756,2.756,2.756,2.7634,2.7979,2.8562,2.8143,2.7979,2.8547,2.8068,2.756,2.756,2.756,2.756,2.7625,2.7705,2.7735,2.7735,2.7705,2.7625,2.7625,2.756,2.756,2.756,2.7575,2.7604,2.7634,2.759,2.759,2.7634,2.764,2.7625,2.7625,2.7801,2.8102,2.9027,2.9218,2.9666,3.0815,3.1023,3.1486,3.2015,3.2287,3.2721,3.2978,3.316,3.3008,3.3024,3.3166,3.3276,3.3061,3.3176,3.3375,3.3443,3.3547,3.3633,3.3684,3.4088,3.4039,3.4152,3.422,3.4303,3.3889,3.3395,3.2942,3.2476,3.2324,3.2307,3.2645,3.256,3.2425,3.2459,3.3254,3.3998,3.3998,3.4269,3.4895,3.5284,3.552,3.5622,3.5639,3.5639,3.5639,3.5639,3.569,3.6113,3.6637,3.7381,3.7973,2.5044,2.5266,2.5212,2.5492,2.5865,2.596,2.6336,2.693,2.6982,2.7255,2.7524,2.756,2.756,2.7604,2.7874,2.7919,2.767,2.7575,2.7769,2.8053,2.8427,2.8188,2.7865,2.7844,2.7934,2.77,2.756,2.756,2.756,2.7649,2.7934,2.8487,2.7934,2.7979,2.8397,2.8,2.7604,2.756,2.756,2.756,2.7625,2.8263,2.8549,2.8549,2.8469,2.8293,2.7655,2.756,2.7754,2.7919,2.7786,2.7786,2.7934,2.782,2.779,2.7979,2.776,2.8037,2.8293,2.8629,2.9123,3.0399,3.0543,3.107,3.1851,3.2329,3.2829,3.3395,3.3754,3.4118,3.4022,3.3684,3.3633,3.3684,3.3887,3.4021,3.4071,3.4087,3.4087,3.4137,3.4399,3.4544,3.4704,3.4847,3.4941,3.4901,3.443,3.4442,3.4206,3.3743,3.3457,3.3136,3.2949,3.3034,3.3525,3.3508,3.3136,3.3102,3.3305,3.3947,3.4252,3.4624,3.5098,3.5368,3.5622,3.5622,3.5639,3.5639,3.5639,3.5639,3.5774,3.6113,3.653,3.7051,3.7581,2.6295,2.5605,2.6063,2.6425,2.6645,2.6669,2.6982,2.7509,2.756,2.7509,2.756,2.756,2.756,2.7679,2.8098,2.8038,2.7835,2.7964,2.8323,2.8472,2.8936,2.8682,2.8344,2.8463,2.861,2.8062,2.7895,2.785,2.7814,2.7874,2.8397,2.8622,2.8237,2.8525,2.868,2.844,2.8412,2.8599,2.8645,2.8564,2.8629,2.9425,2.9873,2.9904,2.9889,2.9506,2.8836,2.8595,2.8617,2.8964,2.8501,2.8628,2.8882,2.8894,2.85,2.9173,2.8808,2.9073,2.9713,2.9984,3.0479,3.1758,3.1886,3.2266,3.2991,3.3603,3.4039,3.4561,3.497,3.514,3.4783,3.4447,3.4103,3.4087,3.4496,3.4688,3.4736,3.4736,3.4736,3.48,3.5005,3.5161,3.5316,3.5424,3.5532,3.5537,3.4996,3.4607,3.4421,3.4303,3.415,3.3947,3.3795,3.3288,3.3626,3.41,3.3761,3.3525,3.3541,3.3964,3.4472,3.4928,3.5301,3.547,3.5622,3.5639,3.5639,3.5639,3.5639,3.5639,3.5707,3.591,3.6243,3.6684,3.7136,2.591,2.6297,2.6397,2.6808,2.7372,2.7408,2.7458,2.7575,2.756,2.756,2.756,2.756,2.756,2.7685,2.77,2.7715,2.8015,2.8487,2.8861,2.8936,2.9475,2.9654,2.9222,2.9367,2.9577,2.9715,2.9194,2.8695,2.8718,2.8966,2.9335,2.9403,2.9317,2.957,2.9987,3.0113,3.0101,3.032,3.0463,3.0479,3.0639,3.0974,3.1278,3.1278,3.1262,3.0974,3.0879,3.0847,3.1022,3.1069,3.1006,3.129,3.1684,3.2098,3.1845,3.1081,3.078,3.083,3.1182,3.1278,3.1966,3.2878,3.3277,3.3839,3.4667,3.5071,3.5071,3.5262,3.5453,3.5532,3.547,3.5178,3.5224,3.527,3.5224,3.5379,3.5362,3.5362,3.5316,3.5316,3.5532,3.5639,3.5639,3.5639,3.5639,3.5639,3.5385,3.5182,3.5098,3.5131,3.5165,3.4945,3.4709,3.4049,3.3575,3.4117,3.4235,3.3846,3.3846,3.415,3.4641,3.5165,3.5487,3.5571,3.5622,3.5639,3.5639,3.5639,3.5639,3.5639,3.5656,3.5673,3.5955,3.6271,3.6588,2.6759,2.7034,2.7086,2.7255,2.7575,2.756,2.756,2.756,2.756,2.756,2.756,2.756,2.756,2.7715,2.7993,2.8263,2.8697,2.8771,2.9086,2.9265,2.9998,3.0178,2.9907,3.0268,3.0459,3.0674,3.053,3.0425,3.0208,3.0476,3.0572,3.0616,3.0602,3.0796,3.1019,3.1071,3.1293,3.163,3.1678,3.1678,3.1774,3.219,3.2606,3.2653,3.2574,3.227,3.1662,3.1582,3.1775,3.1999,3.2224,3.2805,3.3502,3.3958,3.3876,3.2547,3.2289,3.2432,3.259,3.2669,3.3231,3.4401,3.4609,3.4851,3.5397,3.5543,3.5639,3.5639,3.5639,3.5639,3.5577,3.5639,3.5639,3.5639,3.5639,3.5639,3.5639,3.5639,3.5639,3.5639,3.5639,3.5639,3.5639,3.5639,3.5639,3.5639,3.5639,3.5639,3.5639,3.5639,3.5639,3.547,3.5165,3.4895,3.4252,3.4387,3.4573,3.4201,3.4066,3.437,3.4607,3.503,3.5368,3.5571,3.5605,3.5622,3.5639,3.5639,3.5639,3.5639,3.5639,3.5656,3.5707,3.5904,3.6175,2.756,2.756,2.756,2.756,2.756,2.756,2.756,2.756,2.756,2.756,2.756,2.756,2.756,2.7739,2.8263,2.8846,2.937,2.9011,2.9507,3.0144,3.0749,3.0734,3.0861,3.1275,3.1883,3.204,3.237,3.2531,3.1821,3.19,3.1886,3.1806,3.1823,3.1982,3.2045,3.2297,3.2156,3.2382,3.2382,3.2398,3.2686,3.339,3.4014,3.4014,3.4014,3.3502,3.2814,3.2735,3.2947,3.3289,3.3534,3.394,3.4703,3.5291,3.4851,3.3583,3.3434,3.3686,3.3905,3.4014,3.4418,3.5301,3.5543,3.556,3.556,3.5639,3.5639,3.5639,3.5639,3.5639,3.5639,3.5639,3.5639,3.5639,3.5639,3.5639,3.5639,3.5639,3.5639,3.5639,3.5639,3.5639,3.5639,3.5639,3.5639,3.5639,3.5639,3.5639,3.5639,3.5639,3.5639,3.5639,3.5537,3.5537,3.5199,3.4844,3.4793,3.4404,3.4303,3.4438,3.459,3.4793,3.5165,3.5588,3.5605,3.5639,3.5639,3.5639,3.5639,3.5639,3.5639,3.5639,3.5673,3.5673,3.5825,2.756,2.756,2.756,2.756,2.756,2.756,2.756,2.756,2.756,2.756,2.761,2.761,2.766,2.7876,2.8432,2.8726,2.9117,2.9915,3.0693,3.1374,3.1936,3.2422,3.2911,3.3145,3.3421,3.355,3.3997,3.3551,3.3047,3.3192,3.3076,3.2837,3.3108,3.3297,3.339,3.3682,3.4499,3.4942,3.498,3.4964,3.4964,3.5093,3.5206,3.5268,3.5206,3.5076,3.466,3.4626,3.481,3.494,3.5165,3.534,3.5487,3.5503,3.5566,3.5307,3.5273,3.5318,3.5206,3.5155,3.5172,3.5543,3.5639,3.5639,3.5639,3.5639,3.5639,3.5639,3.5639,3.5639,3.5639,3.5639,3.5639,3.5639,3.5639,3.5639,3.5639,3.5639,3.5639,3.5639,3.5639,3.5639,3.5639,3.5639,3.5639,3.5639,3.5639,3.5639,3.5639,3.5639,3.5639,3.5639,3.5639,3.5639,3.5588,3.5318,3.5115,3.4692,3.4675,3.4658,3.481,3.503,3.5301,3.5622,3.5639,3.5639,3.5639,3.5639,3.5639,3.5639,3.5639,3.5639,3.5639,3.5639,3.5639,2.756,2.756,2.756,2.756,2.756,2.756,2.756,2.756,2.756,2.756,2.7675,2.7993,2.8271,2.8682,2.9354,2.9933,3.0367,3.1187,3.2066,3.2541,3.3008,3.3323,3.3553,3.3958,3.4378,3.4584,3.4923,3.4942,3.4468,3.4457,3.4537,3.4355,3.4476,3.4693,3.4593,3.4964,3.5256,3.5476,3.556,3.5577,3.5639,3.5639,3.5639,3.5639,3.5639,3.5639,3.5639,3.5639,3.5639,3.5639,3.5639,3.5639,3.5622,3.5594,3.5577,3.5577,3.556,3.556,3.556,3.5639,3.5639,3.5639,3.5639,3.5639,3.5639,3.5639,3.5639,3.5639,3.5639,3.5639,3.5639,3.5639,3.5639,3.5639,3.5639,3.5639,3.5639,3.5639,3.5639,3.5639,3.5639,3.5639,3.5639,3.5639,3.5639,3.5639,3.5639,3.5639,3.5639,3.5639,3.5639,3.5639,3.5639,3.5639,3.5588,3.5425,3.547,3.5216,3.5216,3.5216,3.525,3.5436,3.5571,3.5639,3.5639,3.5639,3.5639,3.5639,3.5639,3.5639,3.5639,3.5639,3.5639,3.5639,3.5639,2.7715,2.7814,2.7649,2.756,2.756,2.756,2.771,2.781,2.786,2.7944,2.8125,2.8559,2.9091,2.9731,3.0368,3.1023,3.1725,3.2367,3.3076,3.3561,3.3758,3.3825,3.4268,3.4703,3.4844,3.4847,3.5295,3.5414,3.5509,3.5532,3.547,3.5639,3.5369,3.5509,3.556,3.5509,3.5605,3.5605,3.5639,3.5639,3.5639,3.5639,3.5639,3.5639,3.5639,3.5639,3.5639,3.5639,3.5639,3.5639,3.5639,3.5639,3.5639,3.5639,3.5639,3.5639,3.5639,3.5639,3.5639,3.5639,3.5639,3.5639,3.5639,3.5639,3.5639,3.5639,3.5639,3.5639,3.5639,3.5639,3.5639,3.5639,3.5639,3.5639,3.5639,3.5639,3.5639,3.5639,3.5639,3.5639,3.5639,3.5639,3.5639,3.5639,3.5639,3.5639,3.5639,3.5639,3.5639,3.5639,3.5639,3.5639,3.5639,3.5639,3.5605,3.5588,3.5622,3.5639,3.5639,3.5605,3.552,3.552,3.5605,3.5639,3.5639,3.5639,3.5639,3.5639,3.5639,3.5639,3.5639,3.5639,3.5639,3.5656,3.5673,2.7949,2.8472,2.791,2.7619,2.7655,2.756,2.7974,2.8552,2.8523,2.8873,2.9275,2.938,2.9838,3.0489,3.1239,3.1918,3.2578,3.2526,3.347,3.3989,3.3968,3.4386,3.4931,3.5316,3.547,3.547,3.5577,3.5577,3.5639,3.5639,3.5639,3.5639,3.5639,3.5639,3.5723,3.5825,3.5707,3.5673,3.5639,3.5639,3.5639,3.5639,3.5639,3.5639,3.5639,3.5639,3.5639,3.5639,3.5639,3.5639,3.5639,3.5639,3.5639,3.5639,3.5639,3.5639,3.5639,3.5639,3.5639,3.5639,3.5639,3.5639,3.5639,3.5639,3.5639,3.5639,3.5639,3.5639,3.5639,3.5639,3.5639,3.5639,3.5639,3.5639,3.5673,3.5791,3.5757,3.5656,3.5656,3.5639,3.5639,3.5639,3.5639,3.5639,3.5639,3.5639,3.5639,3.5639,3.5639,3.5639,3.5639,3.5639,3.5639,3.5639,3.5639,3.5639,3.5639,3.5639,3.5639,3.5639,3.5605,3.5639,3.5639,3.5639,3.5639,3.5639,3.5639,3.5639,3.5639,3.5639,3.5639,3.5639,3.5712,3.583,3.5797,2.8966,2.9175,2.8906,2.8577,2.8255,2.8652,2.9215,2.9803,3.021,3.0461,3.0598,3.0631,3.0997,3.1659,3.2359,3.3072,3.3769,3.43,3.4705,3.4948,3.5036,3.5143,3.556,3.5639,3.5577,3.5639,3.5639,3.5639,3.5639,3.5639,3.5639,3.5639,3.5639,3.5994,3.6129,3.6214,3.6028,3.569,3.5639,3.5639,3.5639,3.5639,3.5639,3.5639,3.5639,3.5639,3.5639,3.5639,3.5639,3.5639,3.5639,3.5639,3.5639,3.5639,3.5639,3.5639,3.5639,3.5639,3.5639,3.5639,3.5639,3.5639,3.5639,3.5639,3.5639,3.5639,3.5639,3.5639,3.5639,3.5639,3.5639,3.5639,3.5639,3.5639,3.574,3.5926,3.6028,3.5977,3.6129,3.6315,3.5926,3.5639,3.5639,3.5639,3.5639,3.5639,3.5639,3.5639,3.5639,3.5639,3.5639,3.5639,3.5639,3.5639,3.5639,3.5639,3.5639,3.5639,3.5639,3.5639,3.5639,3.5639,3.5639,3.5639,3.5639,3.5639,3.5639,3.5639,3.5639,3.5639,3.5639,3.5639,3.578,3.6021,3.6156,2.9699,2.9819,2.9669,2.9325,2.9012,2.9627,3.0245,3.0854,3.1293,3.1634,3.1698,3.1865,3.2336,3.2992,3.3474,3.3905,3.4418,3.484,3.5121,3.5155,3.5076,3.5402,3.5554,3.5639,3.5639,3.5639,3.5639,3.5639,3.5639,3.5639,3.5639,3.5639,3.5673,3.6062,3.6569,3.6755,3.64,3.5808,3.5639,3.5639,3.5639,3.5639,3.5639,3.5639,3.5639,3.5639,3.5639,3.5639,3.5639,3.5639,3.5639,3.5639,3.5639,3.5639,3.5639,3.5639,3.5639,3.5639,3.5639,3.5639,3.5639,3.5639,3.5639,3.5639,3.5639,3.5639,3.5639,3.5639,3.5639,3.5656,3.5673,3.5639,3.5639,3.5639,3.6096,3.6315,3.6535,3.6603,3.684,3.7026,3.6654,3.6468,3.6332,3.6349,3.5859,3.5791,3.5639,3.5639,3.5639,3.5639,3.5639,3.5639,3.5639,3.5639,3.5639,3.5639,3.5639,3.5639,3.5639,3.5639,3.5639,3.5639,3.5639,3.5639,3.5639,3.5639,3.5639,3.5639,3.5639,3.5639,3.5656,3.5707,3.6151,3.6443,3.6797,3.0038,3.0387,2.9933,2.9732,2.9863,3.032,3.0979,3.1678,3.1798,3.2014,3.2487,3.3018,3.3609,3.415,3.4252,3.4438,3.4607,3.4709,3.4776,3.4878,3.4979,3.5131,3.5419,3.5639,3.5639,3.5639,3.5639,3.5639,3.5639,3.5808,3.5774,3.5825,3.5994,3.6146,3.6738,3.6806,3.6383,3.574,3.5639,3.5639,3.5639,3.5639,3.5639,3.5639,3.5639,3.5639,3.5639,3.5639,3.5639,3.5639,3.5639,3.5639,3.5639,3.5639,3.5639,3.5639,3.5639,3.5639,3.5656,3.5673,3.5825,3.5825,3.5893,3.591,3.5774,3.5774,3.5943,3.6197,3.6011,3.5814,3.5695,3.5774,3.5893,3.6146,3.67,3.6941,3.7195,3.7195,3.7398,3.7652,3.7787,3.777,3.7499,3.7144,3.64,3.6011,3.574,3.5639,3.5639,3.5639,3.5639,3.5639,3.5639,3.5639,3.5639,3.5639,3.5639,3.5639,3.5639,3.5639,3.5639,3.5639,3.5639,3.5639,3.5639,3.5639,3.5656,3.5673,3.5825,3.5994,3.5808,3.591,3.6405,3.6966,3.7472,3.1735,3.1888,3.2126,3.2243,3.2217,3.1966,3.2513,3.3515,3.3927,3.4011,3.3803,3.4066,3.4218,3.4438,3.4573,3.4759,3.5131,3.5233,3.525,3.5199,3.5165,3.5351,3.5588,3.5639,3.5639,3.5639,3.5639,3.5639,3.5639,3.6028,3.6332,3.6434,3.6671,3.6637,3.6552,3.6688,3.6975,3.5876,3.5639,3.5639,3.5639,3.5639,3.5639,3.5639,3.5639,3.5639,3.5639,3.5639,3.5639,3.5639,3.5639,3.5639,3.5639,3.5639,3.5639,3.5639,3.5639,3.591,3.6349,3.6721,3.6874,3.662,3.64,3.6603,3.6992,3.7127,3.7144,3.706,3.6941,3.681,3.67,3.7013,3.7246,3.7547,3.795,3.7973,3.8091,3.7872,3.7872,3.8176,3.8362,3.8176,3.7939,3.7736,3.711,3.6502,3.6231,3.5774,3.5656,3.5639,3.5639,3.5639,3.5639,3.5639,3.5639,3.5639,3.5639,3.5639,3.5639,3.5639,3.5639,3.5639,3.5639,3.5639,3.5639,3.5639,3.574,3.5893,3.6265,3.64,3.6412,3.648,3.6907,3.7641,3.8435,3.2933,3.2986,3.3443,3.3735,3.3872,3.3485,3.381,3.4609,3.5256,3.5199,3.4641,3.4726,3.4895,3.4895,3.4928,3.4793,3.5284,3.552,3.5301,3.5351,3.5537,3.5571,3.5605,3.5639,3.5639,3.5639,3.5639,3.5639,3.5673,3.6417,3.6857,3.7229,3.7635,3.7313,3.706,3.7297,3.7313,3.6383,3.6129,3.5926,3.5757,3.5639,3.5639,3.5639,3.5639,3.5639,3.5639,3.5639,3.5639,3.5656,3.5639,3.5639,3.5639,3.5639,3.5639,3.5639,3.596,3.6383,3.7094,3.7466,3.7584,3.7652,3.7347,3.7415,3.7787,3.7736,3.777,3.7804,3.7973,3.7858,3.7739,3.8058,3.8108,3.8424,3.8645,3.8667,3.8717,3.8481,3.8717,3.8971,3.8988,3.8717,3.8464,3.8125,3.7804,3.7246,3.6721,3.6231,3.5723,3.5656,3.5639,3.5639,3.5639,3.5639,3.5639,3.5639,3.5639,3.5639,3.5639,3.5639,3.5639,3.5639,3.5639,3.5639,3.5639,3.569,3.5893,3.6163,3.6738,3.714,3.7369,3.7424,3.7547,3.8195,3.9059,3.3633,3.3649,3.3633,3.4071,3.4576,3.4558,3.4588,3.4614,3.5318,3.5216,3.4607,3.5301,3.547,3.5554,3.5571,3.5267,3.4928,3.5402,3.5318,3.5115,3.5487,3.5622,3.5707,3.5673,3.5639,3.5639,3.5639,3.5639,3.5723,3.6637,3.7313,3.7719,3.799,3.7889,3.7905,3.7872,3.7618,3.7043,3.6569,3.64,3.6231,3.5876,3.5977,3.6045,3.6113,3.6011,3.5977,3.596,3.5808,3.574,3.569,3.5673,3.5656,3.5639,3.5639,3.5893,3.6451,3.7263,3.7804,3.8091,3.8464,3.8667,3.8379,3.8125,3.8159,3.8396,3.8464,3.843,3.8464,3.8529,3.8611,3.8495,3.8444,3.8715,3.8986,3.9122,3.9191,3.9343,3.9698,3.9868,3.9834,3.9665,3.9478,3.914,3.8362,3.799,3.7364,3.6552,3.6062,3.5673,3.5656,3.5639,3.5639,3.5639,3.5639,3.5639,3.5639,3.5639,3.5639,3.5639,3.5639,3.5639,3.5639,3.5639,3.5639,3.5774,3.6129,3.6705,3.7398,3.7797,3.8201,3.8289,3.8345,3.8719,3.9328,3.4333,3.4382,3.48,3.5161,3.5316,3.5299,3.5318,3.5351,3.5554,3.5453,3.5318,3.552,3.5622,3.5639,3.5622,3.547,3.5453,3.5554,3.591,3.5926,3.5876,3.6062,3.6096,3.5977,3.574,3.5673,3.5673,3.5757,3.5977,3.684,3.7567,3.7905,3.8396,3.8565,3.8667,3.8684,3.821,3.7702,3.7246,3.7043,3.6924,3.6654,3.6772,3.6924,3.7026,3.6857,3.6586,3.6891,3.6671,3.5842,3.6214,3.6265,3.5639,3.5656,3.5774,3.6734,3.7631,3.8497,3.8717,3.9157,3.9478,3.9597,3.9445,3.9512,3.9462,3.9326,3.9292,3.9174,3.914,3.9257,3.9357,3.924,3.9189,3.9342,3.9545,3.9596,3.9648,3.9749,4.0087,4.0087,4.0087,4.0054,3.9952,3.9546,3.8836,3.8565,3.8041,3.7212,3.6417,3.6011,3.5656,3.5639,3.5639,3.5639,3.5639,3.5639,3.5639,3.5639,3.5639,3.5639,3.5639,3.5639,3.5639,3.5673,3.5757,3.6079,3.6485,3.7161,3.7973,3.8633,3.9054,3.9156,3.9242,3.9462,3.9497,3.4988,3.5052,3.5407,3.5639,3.5639,3.5639,3.5639,3.5639,3.5639,3.5639,3.5639,3.5622,3.5639,3.5639,3.5639,3.5622,3.5639,3.6011,3.6332,3.6451,3.6569,3.6891,3.6874,3.6502,3.6197,3.6079,3.6079,3.618,3.64,3.7195,3.8024,3.8853,3.9106,3.9157,3.9326,3.9394,3.9225,3.87,3.8227,3.7889,3.7669,3.7516,3.7652,3.7855,3.7973,3.7652,3.7364,3.7804,3.7178,3.6265,3.6671,3.6586,3.6214,3.6349,3.6907,3.7835,3.8393,3.9039,3.9394,3.9749,4.0003,4.0087,4.0087,4.002,3.9986,3.9868,3.9884,3.9884,3.9952,4.0037,4.0054,4.0054,4.0037,4.0037,4.0054,4.0054,4.0054,4.0054,4.0087,4.0087,4.0087,4.0087,3.9901,3.9563,3.9377,3.9208,3.8836,3.8176,3.7195,3.6349,3.5893,3.5639,3.5639,3.5639,3.5656,3.5723,3.5673,3.5656,3.5639,3.5639,3.5639,3.5656,3.5673,3.5791,3.5943,3.6332,3.6755,3.7736,3.8565,3.914,3.9563,3.9631,3.9648,3.9766,3.9749,3.5577,3.5577,3.5639,3.5639,3.5639,3.5639,3.5639,3.5639,3.5639,3.5639,3.5639,3.5723,3.574,3.5723,3.5926,3.5977,3.6163,3.6535,3.7026,3.6958,3.7347,3.7719,3.7686,3.728,3.6924,3.6857,3.6874,3.6874,3.7077,3.7753,3.8751,3.9918,3.9462,3.9411,3.9834,3.9901,3.9783,3.9597,3.9157,3.8802,3.8328,3.8108,3.8024,3.8176,3.821,3.8125,3.8041,3.7905,3.7652,3.7144,3.6874,3.6907,3.7077,3.7516,3.8227,3.8684,3.9039,3.9428,3.9766,4.002,4.0054,4.0087,4.0087,4.0087,4.0087,4.0087,4.0087,4.0087,4.0087,4.0087,4.0087,4.0087,4.0087,4.0087,4.0087,4.0087,4.0087,4.0087,4.0087,4.0087,4.0087,4.0087,4.0054,3.9766,3.9732,3.9715,3.9511,3.8935,3.8227,3.7208,3.6637,3.618,3.6231,3.6282,3.5977,3.5977,3.5774,3.5707,3.5723,3.5859,3.6028,3.591,3.5723,3.5859,3.6045,3.6569,3.7127,3.8075,3.8836,3.9309,3.9681,3.9969,4.007,4.0087,3.9749,3.5639,3.5639,3.5639,3.5639,3.5639,3.5639,3.5639,3.5639,3.5639,3.5639,3.5723,3.6129,3.6163,3.5825,3.6705,3.6857,3.6671,3.7229,3.7905,3.8024,3.8227,3.8447,3.8514,3.8007,3.7686,3.7635,3.7635,3.7686,3.7922,3.8413,3.8836,3.9309,3.9394,3.9901,4.0054,4.0087,4.007,4.0104,3.9851,3.9614,3.9377,3.9039,3.8903,3.9259,3.9462,3.9106,3.8937,3.87,3.8294,3.7787,3.7686,3.7652,3.7669,3.8345,3.8751,3.9039,3.9478,3.9817,3.9969,4.0087,4.0087,4.0087,4.0087,4.0087,4.0087,4.0087,4.0087,4.0087,4.0087,4.0087,4.0087,4.0087,4.0087,4.0087,4.0087,4.0087,4.0087,4.0087,4.0087,4.0087,4.0087,4.0087,4.0087,4.0087,4.0087,4.0086,4.0033,3.9693,3.9355,3.8608,3.8187,3.7716,3.7398,3.7263,3.6772,3.6468,3.6383,3.6096,3.6028,3.6197,3.6434,3.6468,3.6451,3.6096,3.6163,3.6874,3.7618,3.8328,3.9005,3.9495,3.9816,4.007,4.0188,4.0188,3.9748,3.5639,3.5639,3.5639,3.5639,3.569,3.5994,3.596,3.5723,3.5994,3.5926,3.5673,3.6045,3.618,3.6096,3.7077,3.7381,3.7094,3.7939,3.843,3.8717,3.9005,3.9208,3.9056,3.8734,3.8497,3.8379,3.843,3.8531,3.8802,3.9157,3.9495,3.9512,3.9935,4.0087,4.0087,4.0087,4.0087,4.007,4.0087,4.0087,4.0087,3.9749,3.9597,4.002,3.9986,3.9749,3.9698,3.9445,3.9039,3.8616,3.8413,3.8396,3.8548,3.9073,3.9411,3.958,3.9817,4.0087,4.0087,4.0087,4.0087,4.0087,4.0087,4.0087,4.0087,4.0087,4.0087,4.0087,4.0087,4.0087,4.0087,4.0087,4.0087,4.0087,4.0087,4.0087,4.0087,4.0087,4.0087,4.0087,4.0087,4.0087,4.0087,4.0087,4.0087,4.0121,4.0085,4.0068,3.9831,3.9644,3.9355,3.9018,3.8546,3.8024,3.7466,3.7246,3.7161,3.684,3.6468,3.684,3.7195,3.7246,3.7178,3.6907,3.6958,3.755,3.8261,3.8785,3.9276,3.9766,3.9985,4.0204,4.0271,4.0402,4.0357,3.569,3.5774,3.5791,3.5842,3.5994,3.662,3.6586,3.6146,3.662,3.6654,3.6265,3.6146,3.6332,3.6586,3.706,3.706,3.7432,3.8345,3.8886,3.9343,3.9715,3.9749,3.9648,3.9445,3.9225,3.914,3.9157,3.9462,3.9817,3.9935,3.9935,4.0054,4.0087,4.0087,4.0087,4.0087,4.0087,4.0087,4.0087,4.0087,4.0087,4.0087,4.0054,4.0054,4.0087,4.0087,4.0087,3.9868,3.9529,3.9445,3.914,3.9123,3.9225,3.9614,3.98,3.9969,3.9969,4.0087,4.0087,4.0087,4.0087,4.0087,4.0087,4.0087,4.0087,4.0087,4.0087,4.0087,4.0087,4.0087,4.0087,4.0087,4.0087,4.0087,4.0087,4.0087,4.0087,4.0087,4.0087,4.0087,4.0087,4.0087,4.0087,4.0087,4.0087,4.0087,4.0087,4.0087,4.007,3.9935,3.9781,3.9494,3.914,3.865,3.8159,3.8007,3.7956,3.7567,3.728,3.7652,3.7922,3.7939,3.7905,3.7787,3.7956,3.8311,3.865,3.9106,3.958,4.0086,4.029,4.0474,4.0664,4.0851,4.1196,3.5994,3.6552,3.6552,3.6891,3.7415,3.7618,3.7601,3.7499,3.7601,3.7889,3.7939,3.7601,3.733,3.6874,3.8125,3.8447,3.8311,3.8971,3.9428,3.9901,3.9969,4.0037,4.002,3.9817,3.9851,3.98,3.9766,3.9952,4.0087,4.0087,4.0087,4.0087,4.0087,4.0087,4.0087,4.0087,4.0087,4.0087,4.0087,4.0087,4.0087,4.0087,4.0087,4.0087,4.0087,4.0087,3.9952,3.9478,3.9563,3.9732,3.9834,3.9783,3.9834,3.9918,4.0037,4.0087,4.0087,4.0087,4.0087,4.0087,4.0087,4.0087,4.0087,4.0087,4.0087,4.0087,4.0087,4.0087,4.0087,4.0087,4.0087,4.0087,4.0087,4.0087,4.0087,4.0087,4.0087,4.0087,4.0087,4.0087,4.0087,4.0087,4.0087,4.0087,4.0087,4.0087,4.0087,4.0087,4.0087,4.0087,4.0087,3.9884,3.9648,3.9377,3.8937,3.8802,3.8667,3.8278,3.8058,3.8328,3.8514,3.8599,3.8548,3.8514,3.8599,3.8853,3.9191,3.9561,3.9848,4.0271,4.0611,4.0844,4.1019,4.1331,4.1748]}]]